GFSSW_250_spd_000.txt.gz
Wind_Speed
33 32 36 38 43 47 60 70 81 100 108 106 101 107 102 109 115 114 112 116 116 113 112 113 113 109 110 114 114 113 114 115 112 113 108 108 110 110 103 89 83 69 60 49 39
33 34 35 36 38 42 49 54 66 71 79 80 88 94 100 100 102 109 112 116 116 117 118 117 116 115 113 114 110 107 109 110 108 101 108 107 102 80 63 53 48 35 32 23 15
34 35 34 32 35 40 41 44 45 54 55 64 76 74 86 89 93 92 101 108 108 112 117 115 108 104 109 110 115 108 112 112 103 94 79 63 51 44 28 20 9 5 5 4 4
28 28 28 31 30 31 33 35 39 42 46 50 62 69 71 71 73 73 82 81 88 77 89 97 80 83 100 101 111 87 76 55 47 47 37 32 23 9 5 7 12 18 29 34 31
26 28 28 28 28 30 31 30 32 36 42 41 44 50 47 54 61 62 66 69 73 61 64 61 73 77 80 59 41 37 22 21 19 15 12 5 7 14 21 27 28 29 28 29 31
21 22 21 21 23 25 26 27 28 29 29 30 33 36 34 41 45 52 54 65 70 69 75 53 48 25 38 28 21 12 9 7 3 1 6 17 24 25 27 28 27 26 26 25 25
23 23 24 23 22 23 21 21 23 23 24 26 26 26 28 27 34 40 37 34 34 31 20 17 8 13 12 10 6 4 9 10 8 15 18 22 20 22 20 22 21 23 21 22 23
26 26 24 21 17 15 17 20 19 16 16 15 12 12 13 16 17 19 17 13 13 9 7 1 1 1 2 4 8 9 12 16 19 19 19 16 14 15 17 16 18 17 18 19 20
21 17 16 14 17 16 16 15 13 10 7 7 8 9 7 9 9 10 11 9 3 3 2 3 3 2 2 7 6 6 10 13 12 12 11 9 9 9 9 9 10 11 13 15 16
16 15 13 13 16 18 19 18 11 6 4 4 4 5 6 7 8 9 9 5 1 2 3 3 3 3 4 7 7 7 6 9 9 8 4 1 1 1 1 2 5 9 12 12 12
17 16 20 21 22 21 19 13 7 4 4 5 5 5 7 8 9 12 9 4 4 2 1 6 6 3 2 4 5 7 11 12 11 8 7 7 7 6 7 5 9 12 12 11 13
20 24 24 21 19 18 14 9 5 3 4 5 7 9 8 7 9 11 10 7 8 6 4 9 8 7 7 9 10 11 10 10 10 11 13 10 12 12 12 10 14 13 12 17 22
27 25 21 20 19 15 13 9 5 6 7 8 7 9 13 11 10 12 12 13 11 9 7 12 11 10 10 10 9 12 13 13 15 15 14 18 16 19 23 23 20 26 23 26 30
27 20 18 14 12 9 6 6 7 8 11 10 12 13 16 16 12 13 15 16 16 14 13 11 14 13 11 11 12 13 15 20 21 22 21 24 25 18 15 19 22 24 28 36 37
22 14 13 12 10 8 8 9 10 10 10 11 14 17 18 18 16 17 18 21 20 16 14 14 12 14 17 15 17 20 21 21 22 25 25 24 28 25 20 26 23 23 30 37 37
17 13 13 12 11 9 9 9 8 10 12 14 15 16 16 17 19 20 21 22 23 19 17 16 18 17 15 16 18 20 19 20 21 25 29 29 31 29 27 23 24 33 36 35 38
16 14 14 12 10 9 8 8 9 11 12 13 14 15 17 19 18 21 23 21 24 25 20 20 21 20 16 18 18 19 22 24 23 26 28 28 34 33 36 35 35 36 38 39 46
17 15 13 12 11 10 10 10 12 11 11 13 15 16 19 19 18 16 22 21 22 26 25 22 22 22 19 17 18 20 23 26 26 25 31 37 42 44 44 45 46 46 47 48 53
15 14 14 13 10 11 12 10 12 13 14 15 14 16 20 15 15 18 19 19 21 25 26 22 21 21 20 22 22 24 26 26 28 28 29 37 47 49 52 49 48 50 51 55 60
14 14 14 10 10 11 10 10 11 13 14 15 14 14 18 15 14 16 19 20 22 24 23 23 22 23 26 26 28 32 34 31 30 29 31 37 52 55 50 48 50 52 55 60 64
16 15 15 12 10 11 12 11 12 12 13 13 13 13 17 16 13 12 10 14 19 26 24 26 27 26 25 27 33 37 38 37 40 44 47 44 45 48 48 50 52 56 61 65 69
19 17 17 14 13 12 12 13 13 14 15 15 13 13 14 15 15 13 12 11 15 23 28 29 32 31 30 34 41 48 48 43 40 38 40 36 41 50 52 53 56 61 64 68 71
21 20 19 20 18 16 15 16 14 14 15 13 12 12 12 14 14 14 13 13 16 20 25 31 37 38 37 42 44 51 51 39 35 38 42 45 47 55 57 57 63 65 70 73 76
27 24 24 24 23 21 20 20 19 17 16 15 15 14 13 15 14 13 13 13 13 15 21 28 34 37 38 36 30 37 42 42 43 46 47 53 51 58 60 62 64 71 78 81 83
30 28 27 28 27 25 24 23 24 23 24 23 21 19 18 18 18 19 17 18 18 19 20 22 23 26 31 34 36 43 44 49 53 57 56 58 60 61 64 69 75 79 80 84 89
34 32 29 31 31 29 28 28 29 26 28 28 29 29 29 25 27 26 26 26 26 27 28 30 32 34 40 43 44 47 49 49 51 53 56 59 64 68 71 76 78 81 82 92 99
40 38 34 35 35 33 34 35 34 31 30 31 29 30 33 34 33 30 31 30 31 32 34 35 35 39 45 48 50 52 52 55 57 64 65 67 70 75 78 80 85 88 89 100 104

GFSSW_250_spd_003.txt.gz
Wind_Speed
26 26 28 34 37 40 44 46 60 78 85 98 113 119 117 120 118 117 116 111 113 107 110 108 108 111 112 110 109 106 110 115 116 113 116 125 130 126 126 116 109 96 86 68 50
25 27 30 31 30 32 36 43 52 54 66 75 90 99 101 92 104 113 111 114 116 114 109 111 113 111 113 116 116 114 115 116 122 115 118 115 107 104 97 92 85 69 47 36 24
25 28 29 29 26 30 33 38 41 46 49 48 57 63 72 89 79 88 102 104 101 101 111 112 111 101 106 113 103 104 105 101 106 102 97 92 87 64 64 58 47 25 13 9 5
25 27 28 27 28 26 28 32 34 34 36 37 42 44 50 59 65 71 75 86 99 75 84 107 80 86 85 82 101 96 86 90 88 78 60 58 40 32 34 28 17 12 5 12 15
26 29 29 27 28 29 27 28 30 29 30 33 30 32 39 45 38 46 53 55 64 71 56 81 66 72 80 86 84 77 71 66 55 34 34 29 23 13 13 5 10 14 17 15 15
26 27 26 25 24 23 23 23 22 22 24 26 28 28 28 32 34 35 38 47 43 50 44 53 46 49 46 53 50 35 32 25 19 17 13 7 8 8 12 14 14 12 9 13 14
24 24 23 21 19 18 17 16 15 15 17 17 16 20 24 24 26 24 26 28 32 28 39 34 24 22 20 25 24 21 16 11 7 8 10 13 15 13 11 9 6 5 7 8 9
28 28 28 26 26 23 21 16 14 13 11 13 13 14 14 15 15 17 17 19 24 26 24 16 14 11 12 8 17 8 4 8 11 15 14 11 10 9 5 4 1 2 3 6 8
28 27 26 25 22 19 14 9 9 10 11 9 9 8 8 8 12 13 15 16 11 14 11 11 9 8 8 8 11 9 12 16 17 18 12 9 8 7 10 7 8 8 8 10 11
25 23 22 21 19 15 13 13 10 10 9 8 7 6 6 9 11 15 14 14 11 8 8 8 9 8 10 10 8 11 14 18 16 16 12 12 12 13 14 15 15 15 19 22 22
22 20 18 18 16 15 15 14 13 9 7 6 4 4 6 9 10 13 14 13 8 7 6 9 9 10 9 13 13 11 13 13 15 15 15 16 18 18 18 21 18 19 22 23 25
19 17 16 15 13 17 18 17 12 8 5 3 3 3 5 7 7 9 13 14 10 8 10 11 12 11 9 8 8 10 13 14 13 15 18 20 21 20 21 26 24 28 28 27 27
17 18 18 19 20 20 18 13 8 4 3 3 4 5 8 9 10 11 14 17 17 12 9 12 16 13 12 11 13 15 18 20 21 19 23 23 25 22 27 31 33 33 34 36 37
23 22 20 18 18 16 13 9 5 4 5 6 7 8 11 13 14 14 17 19 20 18 14 13 16 17 16 16 20 20 21 23 25 28 29 29 29 28 32 33 31 33 34 37 41
26 21 20 21 19 16 11 6 5 6 8 8 9 12 13 13 15 16 18 20 20 21 20 12 15 17 18 21 21 22 22 26 28 28 29 31 32 32 34 36 35 35 37 38 45
25 20 18 17 14 10 8 8 8 8 7 9 10 10 10 12 14 16 17 20 24 24 24 18 17 15 15 18 22 24 24 24 23 23 25 29 31 30 31 33 36 39 42 43 48
23 17 16 15 14 12 10 10 11 8 7 10 11 11 11 13 17 20 20 19 22 25 27 25 20 18 17 20 21 23 23 22 24 28 29 30 30 31 33 35 37 42 44 45 48
23 17 17 17 16 13 12 10 10 10 10 9 12 14 14 14 16 18 21 19 21 24 23 27 27 22 21 20 20 21 22 25 26 30 34 36 39 41 36 38 44 40 39 44 49
24 18 17 15 14 13 13 11 8 10 11 11 12 15 14 14 16 14 16 18 19 21 23 24 26 24 23 22 21 22 25 27 29 32 35 44 51 51 49 48 42 39 45 50 53
22 18 16 16 15 14 13 11 11 10 10 10 12 12 11 14 14 15 16 17 18 20 21 24 26 27 26 26 28 29 28 31 33 37 42 46 54 54 48 42 48 50 52 55 59
22 18 18 16 15 14 13 13 11 12 12 11 11 13 14 15 15 13 11 12 13 16 21 26 28 29 30 32 34 34 36 38 43 46 47 36 39 45 48 49 54 56 59 60 62
24 22 21 20 17 16 15 14 13 12 12 13 14 13 13 15 15 16 14 10 10 13 15 25 30 29 31 34 36 37 41 44 41 38 37 36 42 47 51 54 58 60 61 65 70
28 24 23 23 21 20 18 17 17 16 12 11 12 12 14 14 16 16 16 12 11 12 13 18 22 27 30 35 39 40 38 33 35 40 44 46 49 56 54 55 59 64 68 70 75
33 27 26 24 24 24 22 21 20 18 18 16 15 17 18 17 17 17 17 17 16 15 17 20 20 21 22 24 30 36 37 40 44 46 46 52 48 56 59 63 67 70 72 76 80
35 33 29 28 27 27 26 25 25 23 23 22 22 24 25 25 26 24 24 24 25 24 23 26 28 29 31 33 36 42 44 50 50 49 47 51 56 61 66 69 72 76 77 78 80
38 37 35 32 30 30 28 28 29 29 29 27 26 28 29 30 32 32 33 33 33 33 31 32 31 32 37 38 40 48 47 48 49 52 54 58 63 70 73 76 77 80 81 81 84
44 41 39 36 34 32 31 33 33 32 33 34 32 32 32 31 34 34 32 30 33 35 34 34 32 35 42 45 46 51 50 51 55 59 61 64 69 73 79 79 81 83 88 92 97

GFSSW_250_spd_006.txt.gz
Wind_Speed
28 27 29 31 33 35 38 45 46 51 58 76 92 108 107 111 113 114 109 110 109 105 106 112 106 110 115 108 106 109 115 107 103 106 107 110 111 115 122 123 118 119 107 104 98
24 25 26 28 28 33 35 36 40 41 50 56 70 79 96 110 112 111 105 108 106 107 109 113 111 110 109 111 110 110 113 106 109 112 113 111 112 118 120 112 105 93 89 71 60
19 23 24 24 28 30 30 31 33 36 44 51 56 66 79 84 87 99 100 102 109 93 108 111 113 115 113 105 105 115 108 107 108 102 104 102 97 102 101 88 79 61 59 47 41
19 21 27 28 28 27 28 30 33 35 38 40 42 47 56 67 84 91 98 96 95 82 88 96 97 99 109 99 94 97 92 90 91 85 85 87 87 75 58 53 40 33 27 20 11
23 26 27 28 24 25 26 26 27 27 28 29 30 34 36 38 49 58 68 70 70 73 72 103 75 75 87 88 86 83 98 84 81 78 70 66 48 39 34 28 20 10 7 4 6
26 27 26 24 24 27 26 25 24 23 23 22 23 22 23 26 31 37 40 43 41 49 57 58 88 95 71 76 83 81 75 69 52 57 40 33 25 19 16 16 7 8 5 3 5
28 28 26 25 25 24 23 19 18 17 16 14 14 15 14 15 21 23 20 21 23 20 44 61 62 56 64 71 66 56 51 49 27 28 20 16 12 14 11 7 5 6 8 10 12
27 27 26 23 22 21 19 16 15 14 12 9 9 9 11 17 17 14 15 16 16 19 26 33 31 32 41 47 41 26 21 25 16 13 14 14 12 10 9 7 7 9 12 15 18
31 29 28 26 24 22 22 22 16 15 13 12 10 12 12 14 16 16 14 14 14 20 25 26 22 22 22 17 14 15 12 12 13 17 17 17 14 13 11 13 16 17 19 21 21
33 31 30 30 28 26 24 17 15 14 12 13 14 12 11 12 13 12 12 13 20 20 19 16 14 14 15 14 11 11 14 15 17 23 20 16 15 16 17 19 22 25 28 28 28
31 30 29 26 23 20 19 18 11 16 16 12 9 5 6 7 8 10 13 13 13 11 12 13 12 13 12 12 11 13 15 18 20 21 24 21 19 21 24 25 27 29 34 37 37
26 25 24 21 19 18 14 10 13 13 11 9 6 5 3 3 5 8 11 13 14 8 9 11 11 13 12 12 14 16 16 16 16 20 22 23 24 24 27 28 29 31 35 38 42
24 23 19 15 12 14 16 14 12 10 7 6 4 1 3 6 7 10 13 14 16 14 12 13 14 16 15 14 13 12 13 15 18 23 24 25 29 31 31 32 34 37 40 41 42
20 21 19 16 17 18 17 14 11 7 6 5 2 2 6 9 11 11 14 18 20 19 18 15 15 19 20 19 18 16 19 20 23 23 25 28 30 31 30 32 34 34 35 36 41
22 21 19 17 16 18 16 11 8 7 4 3 2 5 8 9 10 10 11 15 20 22 22 20 18 18 20 24 21 21 23 25 26 28 30 30 28 27 26 29 31 32 35 40 43
25 21 20 18 19 17 14 11 10 8 5 5 7 8 10 11 12 13 14 15 16 22 25 25 21 17 19 22 21 22 25 29 31 31 28 25 25 27 26 27 30 35 36 41 48
24 21 21 21 20 17 13 10 8 7 6 7 7 10 13 14 16 19 20 21 21 22 25 27 25 21 20 20 23 23 24 24 23 22 25 26 28 31 33 34 38 43 47 48 49
26 21 21 21 18 16 13 10 9 8 9 9 9 11 13 16 19 19 19 19 20 24 24 27 26 26 25 23 23 25 25 24 22 23 24 26 33 38 39 39 41 42 40 40 46
28 21 19 20 19 16 12 10 9 9 9 11 12 13 14 16 15 17 18 17 19 19 20 21 25 25 27 26 25 25 25 25 27 28 32 39 45 45 42 42 39 42 44 48 53
29 22 20 20 18 15 13 14 14 11 10 11 11 11 13 13 14 14 14 15 16 14 17 19 23 26 26 26 26 26 28 30 31 32 36 43 53 47 37 42 49 51 53 53 55
30 26 22 19 17 17 16 16 14 12 12 12 13 11 13 13 14 13 13 13 14 13 13 16 21 26 28 30 29 30 31 33 34 39 41 34 48 44 48 52 54 53 55 60 63
31 27 23 20 20 19 17 18 15 15 14 11 12 12 12 13 14 14 12 12 11 13 11 11 14 19 27 30 32 35 36 37 39 39 38 37 45 49 49 49 51 54 59 64 69
31 28 25 24 23 21 20 18 18 19 17 14 13 15 14 16 18 19 16 15 14 15 16 15 12 11 15 20 23 27 29 28 31 36 41 45 45 45 44 50 56 60 63 65 72
33 30 26 26 25 24 23 23 22 21 20 19 18 17 17 21 22 22 22 21 22 22 23 24 24 23 24 29 32 33 33 34 36 39 41 46 42 53 57 59 62 65 64 73 77
36 34 30 28 26 26 26 26 24 25 25 24 22 22 24 26 28 30 29 30 31 30 32 34 33 31 33 34 34 37 38 40 40 44 42 46 52 58 60 62 66 70 75 80 82
42 39 35 32 29 29 30 29 29 30 29 28 29 29 29 30 31 33 33 32 31 31 32 31 30 31 35 34 36 43 46 45 45 49 50 53 57 62 65 68 71 77 79 84 87
44 43 40 39 36 34 33 33 32 32 32 32 32 33 34 35 35 36 35 34 34 33 34 35 34 32 36 38 42 51 52 45 48 55 57 58 62 66 70 73 78 81 86 91 96

GFSSW_250_spd_009.txt.gz
Wind_Speed
25 26 27 30 31 33 36 39 41 44 47 53 61 66 80 89 103 113 109 110 108 107 99 100 99 99 97 100 100 99 100 99 102 104 105 104 107 113 114 111 109 107 104 100 102
20 23 27 29 31 33 34 36 41 42 46 48 52 55 62 73 88 102 108 108 108 107 106 103 112 102 100 99 105 99 104 104 99 106 105 108 106 107 102 91 94 91 93 92 88
21 23 27 28 30 31 31 34 39 39 40 43 44 48 54 60 72 81 93 102 103 100 105 106 106 111 106 108 97 99 101 109 105 105 108 109 106 97 94 92 86 83 76 70 53
21 25 27 29 30 27 31 32 31 33 36 34 36 41 46 50 57 66 79 90 96 96 97 104 104 102 100 98 99 95 87 91 96 99 97 94 89 84 90 75 57 56 53 38 34
22 25 28 29 27 27 30 29 27 30 30 31 29 31 34 39 42 50 56 63 68 78 89 97 98 97 86 86 91 84 91 92 85 89 75 78 86 75 65 59 44 40 25 17 10
24 25 27 27 27 27 27 25 26 25 24 24 24 24 26 29 29 31 33 39 45 57 63 71 88 67 79 88 84 86 86 84 77 68 77 73 55 48 36 32 24 17 8 10 13
30 29 30 28 26 24 24 23 22 21 19 17 14 13 13 13 17 22 27 29 34 43 47 60 52 36 52 69 64 75 73 71 57 53 41 33 30 28 21 17 11 11 12 16 15
29 30 27 25 25 23 19 17 16 14 13 11 8 7 5 4 5 7 9 13 18 22 27 32 40 45 51 40 36 41 47 30 39 22 21 21 19 16 11 13 15 15 16 19 23
30 26 26 25 25 23 20 18 18 19 16 15 13 12 11 10 12 12 14 18 20 22 24 27 29 32 33 33 32 32 24 20 20 19 17 15 14 13 15 18 19 20 24 26 29
29 28 28 26 26 27 26 22 19 17 15 12 14 14 14 13 13 15 18 19 19 20 21 24 27 25 22 19 16 16 14 15 18 17 13 14 16 18 21 22 24 26 30 33 35
33 31 31 30 29 27 24 22 19 16 16 17 16 16 15 12 11 13 15 15 19 24 20 18 16 14 10 10 11 12 14 17 19 19 17 20 23 25 24 25 26 26 28 30 34
34 32 30 29 29 26 22 17 16 18 19 17 16 13 9 6 5 6 8 10 12 14 14 11 10 10 11 11 8 10 13 17 18 19 20 22 28 29 32 32 32 32 31 32 36
33 33 31 29 25 23 20 19 20 19 17 15 11 9 6 3 1 3 6 8 11 11 12 10 10 11 12 12 9 10 14 15 17 18 16 18 22 26 29 31 28 29 32 36 39
29 28 28 23 21 22 22 20 19 15 11 9 8 6 4 3 5 7 9 11 13 14 14 13 12 12 13 15 16 17 18 18 20 20 20 22 25 30 27 25 26 28 31 37 40
28 27 24 22 22 23 20 18 14 11 10 10 9 9 6 4 6 5 7 9 13 16 18 19 18 17 18 19 21 22 21 23 23 22 24 27 29 26 26 25 25 31 38 41 42
24 23 21 21 20 22 19 15 11 9 8 7 7 4 3 5 7 10 12 14 16 18 19 21 23 23 22 21 23 22 22 23 24 25 25 21 21 24 24 26 30 37 42 45 46
27 24 21 20 21 21 18 13 11 9 7 5 5 3 4 8 10 12 13 15 15 16 20 24 25 28 26 25 23 23 24 22 22 23 20 20 22 25 29 33 37 39 41 39 39
26 23 23 22 22 20 16 12 9 9 7 6 6 5 9 11 11 12 14 14 15 15 17 19 23 24 28 26 26 24 25 23 22 21 21 23 26 31 37 39 38 38 37 43 45
27 25 25 24 23 19 16 11 10 10 9 8 7 9 10 10 10 10 10 12 14 15 15 16 18 20 21 24 28 28 27 24 23 23 27 31 33 37 40 38 38 43 45 47 46
28 23 24 24 22 18 17 13 13 11 9 8 7 7 9 9 11 10 9 11 12 13 14 14 15 17 19 22 24 26 26 26 26 26 29 37 41 38 34 36 43 46 46 46 51
28 23 23 23 21 20 18 16 14 14 12 10 8 9 11 11 9 8 7 9 10 10 12 14 15 13 15 19 21 25 26 27 29 33 34 35 49 39 39 45 47 46 48 53 57
32 30 24 21 21 22 19 17 16 15 12 9 8 10 11 11 11 11 12 12 10 10 11 11 13 13 13 13 16 21 26 30 30 27 30 31 39 42 44 43 45 50 54 57 59
27 33 29 25 24 23 20 20 19 16 13 12 13 13 12 13 14 14 15 16 18 19 19 19 20 19 20 21 22 24 27 28 28 29 33 37 41 44 42 46 49 52 55 59 61
27 32 31 28 27 24 22 22 20 17 17 17 17 17 17 18 18 20 22 22 23 26 28 29 28 29 31 30 30 32 29 28 31 31 32 45 38 47 46 51 55 60 64 64 69
29 32 32 30 29 27 26 24 21 19 20 20 21 21 22 22 23 24 26 28 30 28 29 30 30 29 28 28 30 33 35 32 33 37 39 41 43 49 52 58 61 66 68 71 76
33 34 34 33 31 29 27 25 24 24 25 25 26 27 27 28 29 30 32 33 33 33 32 32 29 31 34 31 32 38 37 38 37 41 44 47 50 53 58 63 67 69 72 78 82
38 36 38 37 35 32 30 29 29 29 29 30 31 31 32 32 32 34 34 35 35 35 36 36 31 29 33 33 38 44 42 44 45 49 50 52 57 60 65 67 72 76 81 86 90

GFSSW_250_spd_012.txt.gz
Wind_Speed
28 29 30 33 35 38 39 40 40 42 44 47 50 57 64 69 79 91 103 107 105 102 100 100 100 101 99 98 99 94 99 98 93 93 91 96 95 98 98 102 102 106 109 98 97
27 28 30 30 32 36 36 36 37 40 41 45 47 53 56 62 66 74 80 91 107 104 103 99 99 99 102 100 105 103 101 102 101 98 97 99 102 100 101 99 103 105 89 83 79
24 24 26 27 29 31 31 31 33 37 40 42 46 49 51 51 55 61 62 69 88 97 102 99 95 102 99 103 103 107 104 103 103 104 105 105 100 99 95 89 83 82 76 70 71
23 23 24 28 29 28 29 30 32 35 36 39 42 43 46 47 51 52 54 55 67 78 92 98 97 90 94 99 102 107 103 103 104 106 100 103 100 95 94 79 72 70 67 54 50
21 24 25 27 25 26 27 29 30 31 33 36 39 40 39 41 42 44 47 51 58 67 71 76 84 90 90 93 96 98 96 101 102 101 97 96 86 79 72 74 75 45 43 33 27
23 25 28 27 27 27 27 27 28 30 31 30 31 28 27 29 32 35 38 42 46 51 57 67 81 89 91 84 86 84 85 90 68 69 70 70 70 60 59 53 36 31 24 20 18
27 27 29 30 29 28 28 28 27 27 24 23 24 23 22 23 25 27 29 31 32 36 40 47 48 56 69 68 67 66 70 76 73 52 47 51 49 58 31 25 23 21 15 19 20
28 29 30 28 28 28 27 24 24 23 22 20 19 19 16 18 18 19 20 23 25 28 30 33 36 39 42 49 52 44 42 59 56 35 42 35 46 29 19 18 19 18 22 23 23
33 32 31 29 28 27 25 25 24 22 21 19 20 21 20 20 20 18 18 20 20 21 23 25 27 29 28 25 24 25 28 27 27 25 24 24 23 21 19 22 21 24 25 27 30
32 30 28 28 28 28 26 23 22 21 21 19 19 17 15 12 11 12 13 14 15 16 19 20 19 17 18 18 19 19 19 18 20 20 21 19 20 21 21 23 25 26 26 30 32
30 31 32 32 29 29 28 29 27 23 19 16 14 11 10 10 10 11 12 13 12 14 15 16 14 15 17 17 16 16 16 17 18 19 18 19 22 23 26 28 31 32 35 38 37
32 34 33 33 33 31 26 23 22 21 17 15 14 13 12 11 10 12 11 11 13 15 15 15 16 13 14 17 17 17 16 15 15 16 21 25 26 28 29 33 33 32 30 31 34
35 36 35 32 28 26 24 23 22 19 18 16 14 13 12 10 9 7 7 8 11 14 15 15 13 15 16 16 17 16 12 12 15 18 21 24 24 24 26 27 31 28 29 31 32
32 32 31 31 30 27 25 23 22 21 19 17 16 14 11 9 8 6 7 8 10 13 15 15 17 17 17 17 18 19 17 17 18 19 19 22 23 25 27 29 27 27 28 29 34
31 33 32 30 30 27 24 23 23 21 18 16 15 13 8 4 2 2 3 6 8 10 13 17 20 22 21 22 20 20 21 21 21 22 23 25 27 29 28 24 25 25 28 35 41
32 32 29 28 28 25 23 22 19 17 15 14 12 10 7 5 3 2 4 7 10 13 16 18 21 24 27 26 24 21 23 24 25 26 25 26 27 25 25 26 26 28 34 41 41
29 29 27 26 26 25 24 21 17 15 14 14 11 9 7 4 4 6 7 10 11 13 14 15 20 25 24 25 28 27 25 25 26 27 27 26 26 25 28 29 31 35 41 40 39
30 28 27 28 27 26 23 18 14 12 12 13 10 8 6 5 6 6 8 8 10 10 10 12 15 16 18 22 23 26 27 27 28 28 29 30 30 29 31 33 36 39 40 40 44
30 28 27 25 26 25 21 18 13 13 12 9 7 8 7 6 5 5 6 7 7 9 10 11 13 12 13 16 18 21 24 28 28 28 28 29 30 32 34 36 38 39 41 45 50
31 28 26 25 26 24 21 16 12 12 11 10 8 6 6 4 4 5 2 3 5 8 9 11 13 13 14 12 13 17 21 24 27 25 26 33 36 37 37 34 37 41 46 48 49
32 28 27 26 26 23 20 17 12 12 11 10 8 6 7 6 4 3 3 3 4 6 6 7 10 13 14 13 12 12 13 16 21 25 27 33 42 34 32 35 40 44 47 49 52
33 29 27 27 25 22 20 18 14 14 14 13 11 8 6 7 7 6 5 7 8 9 10 11 12 14 17 18 18 19 20 19 20 23 28 31 37 38 36 40 43 45 49 53 56
35 30 26 25 25 23 21 20 18 16 16 15 12 10 8 8 8 9 11 12 13 15 17 20 23 23 24 25 26 24 25 25 26 28 30 32 37 40 42 47 48 51 56 59 62
35 33 31 27 25 24 23 22 20 18 19 17 14 13 13 14 14 15 16 18 19 22 24 26 28 28 26 28 28 27 25 25 27 28 28 36 36 42 45 47 51 56 60 63 65
32 29 33 33 29 27 26 25 22 20 21 18 17 17 18 19 19 20 21 23 24 27 28 28 31 33 32 31 35 33 29 30 30 34 36 37 40 42 48 51 60 63 65 66 70
33 29 32 34 33 31 29 28 26 24 23 22 21 21 22 23 24 26 27 27 29 29 29 29 33 36 38 34 37 37 32 33 37 36 37 40 46 50 52 58 62 64 67 69 74
33 30 28 32 33 33 31 30 30 28 27 26 25 25 25 26 29 31 32 33 32 32 33 34 36 37 39 38 42 38 41 42 42 42 44 47 53 56 59 64 66 69 73 77 81

GFSSW_250_spd_015.txt.gz
Wind_Speed
33 33 33 35 37 38 39 42 45 47 49 51 49 49 54 59 66 71 78 82 91 92 100 101 93 92 91 94 98 97 98 96 95 95 96 96 95 99 96 96 95 100 95 98 97
28 28 28 30 32 34 36 37 42 45 46 47 46 47 50 53 57 62 71 73 80 92 93 92 98 99 95 94 97 95 99 97 96 93 96 96 99 97 97 94 99 105 105 102 97
24 24 25 27 29 32 35 38 39 40 43 44 45 45 48 51 54 56 60 67 68 79 83 90 91 91 91 89 96 94 93 95 99 99 99 99 99 96 101 105 103 102 100 95 85
23 23 25 26 28 30 33 34 35 35 37 40 41 43 46 47 49 50 52 53 58 64 71 80 86 91 88 89 88 89 88 87 90 92 97 96 99 104 102 101 97 95 84 81 67
23 24 25 27 28 29 30 30 30 30 32 36 38 41 42 43 45 45 47 48 51 55 60 66 76 80 84 83 79 79 83 88 91 93 90 92 91 94 95 88 86 72 63 62 57
24 25 24 25 27 27 27 27 26 27 29 32 34 35 36 37 37 40 42 44 46 48 54 58 63 65 72 72 75 74 80 79 79 79 81 81 84 83 77 64 61 59 54 52 36
24 25 26 25 25 26 26 25 25 24 26 28 30 31 33 32 33 35 37 39 41 44 46 51 53 55 57 58 59 62 63 64 68 66 68 67 81 74 66 55 52 52 39 30 24
23 25 28 27 27 26 24 23 23 24 25 26 27 27 27 27 28 29 29 29 31 32 33 34 36 39 40 44 47 49 50 51 55 54 46 49 43 47 55 49 33 31 26 25 27
26 29 30 28 25 24 23 23 24 25 24 23 23 23 22 22 22 23 24 26 29 30 32 33 34 35 35 36 38 38 37 34 36 35 36 33 33 27 30 29 27 25 27 27 29
31 30 29 27 27 26 24 25 25 25 25 25 25 22 24 24 23 25 26 27 30 30 30 29 30 32 30 26 25 20 18 18 20 21 22 25 24 25 24 24 24 27 28 30 34
34 33 33 32 29 27 26 27 27 27 26 25 24 26 25 23 22 20 21 18 16 15 16 16 16 16 16 15 16 17 17 15 15 18 21 22 21 22 25 24 26 29 30 34 35
35 34 32 32 32 31 31 30 29 28 25 23 21 19 15 14 13 12 13 12 13 13 12 13 13 14 14 14 15 15 16 15 16 17 19 21 24 26 28 29 29 30 33 35 36
34 34 34 32 31 30 29 27 24 22 21 19 14 13 12 11 10 10 11 12 12 12 13 14 14 16 16 17 18 16 16 18 19 18 21 25 26 29 32 33 32 32 33 35 32
34 34 34 33 30 28 26 23 22 20 17 16 16 15 14 13 11 11 10 8 9 11 13 15 17 17 18 20 20 19 21 22 23 21 22 26 30 32 31 32 32 32 33 33 32
33 33 32 30 26 26 24 22 21 20 20 18 18 16 14 10 8 6 4 4 6 8 11 14 18 21 23 22 23 24 25 25 25 27 27 28 32 24 33 34 34 31 32 33 35
33 31 32 30 27 24 22 21 21 21 20 19 17 14 11 9 7 6 7 8 8 9 11 14 15 18 21 25 27 28 28 29 31 33 33 31 35 26 31 30 29 32 35 36 39
33 34 32 29 26 24 24 24 23 21 18 14 14 12 9 8 6 5 6 8 10 10 10 11 12 15 16 19 24 26 30 31 32 32 32 34 36 31 34 33 32 32 35 38 41
36 34 30 29 26 24 24 23 20 17 15 16 15 13 12 9 5 5 3 4 5 5 3 4 7 10 12 13 14 20 24 29 33 34 35 36 37 35 33 34 34 36 40 43 46
33 33 30 29 27 25 25 21 19 18 17 16 14 12 11 7 4 3 2 2 2 4 5 6 6 8 9 9 12 15 17 19 26 31 34 37 37 33 36 38 40 42 44 43 46
34 31 28 28 28 26 25 21 17 18 18 16 12 9 9 5 2 2 3 1 1 2 3 4 7 11 12 12 11 12 13 16 19 23 27 32 39 32 36 36 40 39 42 44 47
35 33 30 30 29 29 25 21 17 17 15 13 10 10 8 6 4 4 3 3 3 3 5 8 10 12 14 15 17 18 19 19 19 21 23 28 37 32 33 36 40 43 45 49 54
35 34 31 30 29 28 26 22 16 15 15 13 13 12 9 8 7 7 7 6 6 7 9 11 14 17 20 21 21 21 22 23 25 29 33 34 40 40 39 38 41 45 49 53 56
38 34 31 30 28 28 26 24 19 15 15 14 14 14 11 10 8 8 9 9 11 13 15 18 20 23 25 26 26 26 26 25 26 29 32 33 36 35 38 42 46 48 50 55 54
39 35 31 30 29 29 27 24 20 17 17 16 17 16 15 14 12 12 13 15 16 17 20 22 25 27 29 30 30 29 30 32 33 35 34 37 37 44 45 45 47 52 56 59 63
40 38 34 32 30 29 26 24 22 21 20 20 20 20 19 18 16 16 18 20 21 22 23 25 27 29 32 34 36 36 34 35 37 37 37 40 44 45 45 50 52 56 61 64 70
41 41 37 33 30 28 27 25 24 24 24 23 23 23 23 21 19 20 22 23 25 26 28 28 29 34 40 41 43 44 41 40 39 38 41 44 46 49 50 52 57 61 66 71 74
40 38 35 34 34 33 30 27 26 27 26 26 26 26 25 24 24 25 26 28 29 31 31 32 34 36 40 42 46 44 42 40 42 39 45 46 48 51 53 58 61 65 70 74 76

GFSSW_250_spd_018.txt.gz
Wind_Speed
35 36 38 39 39 40 41 42 43 45 45 47 45 45 48 50 53 56 63 67 73 78 78 84 86 83 90 80 89 86 81 92 90 91 89 89 87 91 90 86 88 89 91 95 100
32 33 33 35 38 37 36 37 38 41 42 44 45 47 44 41 42 49 52 58 66 73 77 80 83 86 90 90 91 86 89 87 86 91 89 92 93 93 89 90 94 95 93 100 103
30 32 29 31 34 34 34 33 35 37 41 43 44 42 40 41 42 45 50 56 58 65 70 77 74 75 81 93 93 99 91 91 93 89 92 93 92 91 93 91 90 92 95 94 93
28 27 25 28 29 28 27 30 32 33 36 39 39 37 39 41 44 45 48 52 53 57 60 67 70 80 80 85 87 91 91 94 88 90 88 86 90 90 90 89 87 88 89 88 88
23 22 24 25 24 24 25 26 29 31 31 33 34 36 39 41 41 43 45 48 48 52 54 59 64 70 77 80 84 86 91 83 91 88 85 83 86 90 87 83 83 84 84 83 76
19 21 23 24 23 23 24 25 26 26 27 29 31 34 36 37 37 40 40 42 45 48 51 50 53 59 64 72 75 79 81 86 84 85 87 87 85 88 87 84 84 81 78 77 73
18 23 23 23 24 23 24 23 24 24 24 25 27 30 33 33 33 35 35 38 40 42 43 45 47 51 55 58 61 64 68 75 80 84 83 80 77 76 76 80 77 70 65 59 51
20 23 24 24 25 24 22 21 20 20 21 23 24 26 27 27 29 30 31 33 36 38 41 43 44 44 46 47 50 52 55 57 59 61 66 74 72 71 68 54 47 48 43 42 30
21 24 24 25 23 21 20 18 19 19 20 21 20 21 22 24 25 27 29 30 32 34 36 38 36 35 35 37 38 41 44 48 51 52 52 55 50 44 46 41 37 33 28 28 25
24 27 26 25 23 22 21 20 22 22 22 22 20 20 23 22 23 24 25 25 28 29 29 28 29 30 31 32 32 34 40 41 43 44 40 38 35 32 29 26 28 26 25 26 26
25 28 29 28 25 24 23 24 26 25 25 22 25 26 22 22 21 21 21 22 21 23 26 28 28 29 28 29 32 32 31 30 29 31 30 28 26 23 23 24 24 26 26 28 25
31 32 31 28 28 27 27 26 24 25 25 26 23 24 22 20 19 19 20 20 19 19 20 21 21 23 24 24 24 22 21 22 24 25 26 25 23 24 24 24 26 27 31 32 32
34 33 33 33 30 30 30 31 28 27 27 26 24 22 19 17 15 13 14 13 12 13 14 15 16 18 18 19 21 21 22 22 24 25 26 27 27 24 26 26 27 31 35 36 35
36 36 34 32 32 31 29 31 27 23 23 22 20 18 16 15 14 13 11 9 9 10 11 13 15 17 18 21 20 20 21 23 25 27 25 28 29 24 30 31 30 33 35 38 38
36 36 34 33 29 32 29 27 23 21 18 17 18 17 17 14 11 9 8 9 10 10 10 11 14 16 18 21 21 22 23 25 26 26 27 29 34 21 28 35 35 35 38 40 41
37 36 35 34 33 27 23 20 20 20 20 20 18 17 14 12 9 8 6 5 4 5 8 10 13 14 17 19 23 25 26 27 28 29 31 34 39 31 34 33 32 37 38 39 41
35 35 33 31 26 25 25 23 22 21 20 19 17 14 12 10 8 6 4 3 4 6 7 8 7 8 10 13 16 20 25 26 29 30 34 38 42 30 37 36 29 32 38 41 42
35 33 32 30 27 25 24 24 22 20 19 17 16 14 10 8 5 2 4 4 2 2 2 0 2 5 7 8 9 10 11 15 21 26 30 38 42 34 35 41 35 34 35 39 44
33 33 32 27 26 24 24 24 22 19 17 15 14 13 10 8 5 6 5 2 2 3 6 6 6 7 9 10 12 13 13 13 13 15 20 27 29 29 34 39 40 40 42 43 45
36 37 32 29 26 26 26 25 21 18 17 17 16 13 11 9 6 7 6 5 4 3 2 2 4 7 9 11 14 16 18 19 21 23 25 27 29 26 27 29 32 39 43 46 47
39 36 32 31 28 26 26 23 20 18 18 18 14 11 11 9 7 8 7 5 3 2 2 4 7 10 13 15 17 19 21 22 23 25 26 30 39 32 36 34 35 38 42 44 49
37 37 32 30 28 27 26 22 19 19 20 17 15 13 12 10 9 9 9 7 6 6 7 8 11 13 15 18 20 20 21 23 27 30 30 34 41 40 40 41 41 44 48 49 54
37 35 32 30 29 29 27 24 21 20 20 17 15 14 13 12 12 10 10 10 9 10 12 14 16 18 20 22 27 28 30 33 34 36 36 37 40 43 40 41 45 50 51 50 54
38 36 31 29 30 30 30 27 24 19 18 17 14 14 15 15 12 11 12 11 11 13 16 18 20 22 23 24 27 30 30 35 34 36 38 40 39 43 46 44 48 50 52 55 58
38 36 34 32 32 32 30 29 26 23 19 17 16 18 18 18 17 17 16 15 15 17 19 21 24 26 27 30 32 36 36 39 39 39 36 38 40 40 43 48 51 52 53 57 60
35 37 36 35 31 30 30 29 27 25 22 20 19 21 21 22 22 21 21 19 19 20 21 23 26 29 32 34 36 40 41 43 43 42 40 42 44 45 48 51 50 54 59 62 68
41 41 39 36 32 31 30 30 29 27 25 23 23 23 25 25 24 24 24 24 24 25 26 28 31 34 39 41 44 43 44 46 47 47 46 47 48 49 48 50 51 57 63 67 72

GFSSW_250_spd_024.txt.gz
Wind_Speed
36 35 35 36 42 41 41 41 40 38 38 38 40 40 39 37 36 37 40 40 42 46 50 51 52 56 60 62 70 74 69 81 90 88 86 89 88 83 82 79 78 79 78 80 84
34 28 32 36 35 37 38 35 35 35 38 38 39 37 37 37 37 36 38 39 43 43 45 51 58 60 64 62 62 63 64 66 80 82 77 80 85 85 85 84 85 88 83 86 85
25 30 31 31 34 36 35 33 34 34 35 37 36 36 35 37 37 37 39 40 40 44 46 51 55 61 65 59 68 65 55 56 71 76 74 81 89 91 88 83 80 79 76 82 79
28 30 31 32 32 33 30 30 30 30 30 32 32 34 39 39 35 35 38 41 43 44 45 46 53 59 66 69 65 59 61 61 65 65 73 75 72 79 83 85 80 72 82 79 79
30 30 31 29 30 29 28 26 27 27 26 26 27 33 35 35 29 32 35 38 40 42 44 44 45 52 63 69 67 66 71 69 65 65 69 71 74 77 77 78 79 81 83 83 82
31 30 28 29 27 24 23 21 20 21 21 22 25 28 32 31 26 26 30 31 32 33 41 44 46 49 57 61 63 76 75 66 68 70 76 76 75 77 77 74 78 81 77 79 82
30 28 29 24 20 20 17 15 15 18 20 23 27 28 28 28 27 26 30 30 31 34 37 39 45 48 52 65 62 68 71 73 69 67 74 75 81 81 79 78 76 78 81 86 88
28 30 25 18 18 18 16 15 17 18 20 21 23 25 27 29 30 31 30 30 32 32 30 33 37 43 44 47 50 57 65 70 72 75 70 69 79 78 78 77 79 83 83 82 84
26 22 17 17 18 17 17 18 19 19 20 21 22 24 26 28 28 29 29 28 28 29 32 31 30 32 34 38 39 41 47 56 63 68 66 71 74 76 79 80 83 82 74 72 71
20 16 17 19 18 19 20 20 19 20 21 21 22 24 26 26 26 23 24 25 24 24 25 25 26 31 34 37 38 38 40 45 48 52 55 57 62 68 71 70 62 57 55 53 50
16 17 19 19 20 20 20 20 21 21 21 22 21 22 23 25 25 23 23 23 23 23 24 25 26 28 28 31 33 35 39 45 43 46 46 46 45 45 43 39 37 37 41 43 43
18 19 20 19 23 22 24 23 25 25 27 29 27 27 27 25 24 22 20 19 20 20 22 21 21 23 26 27 30 33 35 36 31 33 34 33 34 38 37 34 37 37 39 39 38
20 23 24 26 27 26 24 24 24 25 25 27 28 28 26 26 24 21 19 19 19 18 16 16 15 17 17 19 22 21 26 31 32 34 33 34 32 32 32 29 30 32 34 36 36
24 27 26 25 25 25 27 27 26 26 26 28 28 26 23 21 19 16 16 14 12 12 13 15 17 20 18 23 25 24 25 26 26 27 26 30 25 26 28 30 31 33 34 35 33
28 28 29 28 28 29 29 29 29 27 26 26 26 25 23 20 19 17 16 14 17 18 17 17 16 15 16 15 17 17 19 22 24 27 28 27 29 23 26 31 33 34 35 37 39
34 33 31 30 31 32 32 30 28 26 25 24 24 24 22 20 20 21 19 17 17 14 15 13 11 10 9 11 13 15 18 21 22 26 28 26 25 23 27 28 31 32 37 40 39
36 34 32 33 32 32 31 32 30 27 26 26 26 23 22 20 18 16 15 13 11 10 9 8 9 9 9 9 10 10 9 9 10 10 8 8 7 12 13 16 22 24 26 26 28
37 33 34 33 33 33 33 33 31 27 28 27 26 23 22 20 20 18 16 13 11 10 9 8 9 9 9 7 6 4 0 5 8 9 10 13 16 17 18 19 20 22 27 30 33
36 34 32 32 33 34 33 32 29 30 29 26 24 23 22 20 16 13 11 9 10 9 12 15 14 12 9 6 2 2 6 9 11 14 14 16 19 22 24 26 26 27 31 33 36
35 35 34 34 35 33 32 31 29 28 26 26 24 21 19 17 13 10 11 12 12 17 17 13 10 6 3 1 3 6 8 10 14 17 16 16 18 22 25 28 31 33 35 39 40
37 37 36 36 35 34 31 28 26 25 25 22 21 19 18 15 11 13 11 14 16 15 12 10 6 3 3 5 8 10 12 15 17 20 25 22 24 26 29 31 33 34 35 37 41
38 38 38 37 35 33 29 28 26 24 21 21 21 19 17 13 10 12 14 15 13 12 11 10 9 8 9 11 13 15 17 19 21 23 28 34 34 36 38 39 40 41 43 43 44
40 39 38 37 34 32 30 28 25 22 20 20 20 18 15 13 13 15 14 13 14 12 12 12 13 13 14 14 14 14 18 23 27 32 33 37 39 39 39 42 46 46 46 48 49
40 39 38 35 34 31 30 28 25 22 20 20 20 17 16 15 14 14 13 13 14 15 15 16 17 17 17 17 18 18 20 26 29 33 38 40 44 47 46 46 48 50 52 55 57
40 42 40 36 35 33 31 29 26 23 21 20 19 18 18 17 17 15 15 15 14 14 16 17 18 18 18 19 22 25 29 32 35 37 40 44 46 49 50 51 51 52 54 56 58
42 41 40 36 31 30 29 28 26 23 20 18 18 21 23 22 19 17 15 15 15 16 17 18 19 19 21 23 26 31 35 37 38 44 45 47 52 53 54 55 56 57 58 59 61
43 41 38 36 33 30 27 26 28 26 23 20 22 23 22 19 17 17 18 17 19 19 19 20 21 23 25 27 30 34 36 40 44 50 50 56 60 59 56 59 62 62 63 62 61

GFSSW_250_spd_027.txt.gz
Wind_Speed
72 69 55 42 39 39 40 40 41 40 43 46 44 41 37 38 40 41 42 43 44 44 45 46 50 52 52 52 53 51 57 63 69 72 78 82 83 83 80 81 81 80 78 82 82
65 59 46 39 34 34 38 38 37 38 39 41 37 37 38 40 40 38 39 39 39 40 41 45 46 44 46 47 50 55 58 57 58 58 66 68 84 91 81 82 83 82 84 84 83
64 51 40 35 34 36 35 34 33 34 35 36 36 36 36 40 41 39 36 32 33 37 40 42 40 43 46 49 50 53 51 53 55 56 58 62 72 91 86 80 77 76 78 73 83
60 49 38 35 37 35 35 32 33 34 33 32 35 39 39 40 43 37 35 36 34 36 41 38 41 42 45 48 48 48 49 54 59 68 69 63 62 65 67 68 71 73 72 73 78
52 39 35 38 34 33 33 32 29 30 29 32 34 38 40 41 39 35 34 33 33 34 34 36 37 35 41 44 48 54 62 61 55 58 61 68 67 63 66 69 67 69 70 70 73
44 32 35 35 33 33 32 29 28 27 26 29 32 35 35 37 39 34 29 28 30 34 36 32 34 34 36 45 56 66 56 60 59 57 55 60 62 60 57 59 63 64 64 68 67
35 32 34 35 34 30 26 25 23 20 24 26 30 33 34 35 34 31 26 28 31 37 40 40 39 40 44 46 56 59 63 62 69 63 63 62 61 68 69 67 68 69 70 72 74
33 34 34 37 30 24 21 18 17 21 23 24 28 29 31 34 33 30 28 32 34 35 38 34 36 38 40 44 45 50 59 59 69 63 64 71 64 70 69 69 70 71 75 77 79
34 32 33 32 23 19 16 17 19 19 20 23 27 29 31 34 36 36 34 31 28 28 27 28 27 28 32 34 42 44 49 56 61 65 67 71 75 73 67 65 68 70 72 75 78
30 30 27 22 18 16 19 19 18 18 21 22 24 27 28 31 30 27 24 26 27 26 24 23 27 29 29 30 32 34 38 44 51 57 60 61 68 66 69 70 71 76 68 70 69
30 25 21 15 16 19 19 20 20 20 21 23 24 24 24 24 24 26 27 25 25 26 29 30 30 26 24 26 31 33 35 34 36 35 37 39 44 48 54 58 52 53 48 44 41
28 20 14 14 18 19 21 23 25 25 25 25 27 27 27 28 28 28 28 29 28 27 25 26 23 22 24 26 27 30 30 31 33 31 33 36 39 37 32 33 36 39 41 42 42
23 17 16 20 23 24 23 24 23 24 25 24 24 26 28 28 28 29 28 27 25 23 22 21 23 22 22 22 22 24 25 26 27 27 28 27 29 31 32 33 36 38 38 35 33
19 17 23 24 25 23 23 22 23 23 23 24 25 26 26 25 25 24 23 21 19 20 18 19 17 16 16 16 17 21 23 25 25 24 25 24 26 27 25 27 31 34 32 32 34
18 24 25 24 25 25 25 24 23 23 24 25 26 27 27 25 23 22 20 19 17 15 15 16 14 16 17 19 21 22 22 23 25 23 20 20 21 23 26 30 30 32 35 38 41
23 27 26 28 27 27 27 27 27 28 26 26 25 26 25 22 19 20 19 17 15 15 16 15 17 18 18 17 18 20 21 21 20 18 15 16 18 22 23 25 28 31 33 35 37
30 30 30 31 29 30 29 29 29 28 27 26 25 22 22 21 19 18 16 17 18 17 17 18 17 16 16 16 15 13 11 9 5 3 1 2 4 7 11 16 20 24 28 32 35
33 34 34 32 31 30 30 29 28 27 26 24 22 20 22 20 18 19 20 19 19 16 14 13 13 12 11 10 7 6 5 2 3 5 7 8 10 11 14 18 22 26 29 32 36
38 36 34 31 32 31 29 30 29 25 24 24 25 24 21 21 22 20 18 16 14 13 13 12 11 13 11 9 8 6 4 3 5 8 11 14 17 19 20 22 25 28 30 31 34
42 38 34 32 30 30 30 31 30 29 28 27 23 24 26 24 21 18 16 15 14 14 16 17 16 14 10 8 5 3 4 7 10 10 14 16 17 20 22 25 28 30 32 34 36
41 38 34 32 31 32 31 28 25 25 25 25 27 27 24 22 18 15 14 14 15 19 19 16 14 12 8 5 5 7 10 12 13 15 18 21 23 26 29 32 34 36 38 40 42
41 35 34 32 33 34 31 29 26 26 27 28 26 24 22 19 13 13 13 14 20 19 17 14 12 9 7 8 9 12 12 14 17 19 22 25 27 31 33 35 38 40 42 44 46
41 40 35 35 37 34 33 30 28 28 28 26 25 22 20 17 14 14 15 18 18 17 16 14 12 11 12 13 15 17 17 18 19 24 28 31 33 36 39 42 44 48 49 50 51
40 38 37 38 39 35 33 32 30 27 25 25 25 22 20 17 15 15 16 17 17 17 15 14 14 16 17 19 19 18 19 21 25 29 31 32 37 39 44 48 51 53 53 52 53
41 38 40 38 37 36 34 31 28 27 25 25 25 22 20 18 16 15 16 17 17 16 16 17 18 19 20 21 21 20 21 25 29 30 32 37 42 46 48 50 53 55 56 56 57
41 42 43 42 40 38 34 31 29 26 25 24 24 23 20 17 15 15 16 15 14 15 16 17 19 21 22 23 23 25 27 29 29 33 36 40 45 49 52 54 56 60 59 58 57
43 44 43 41 39 37 34 31 30 27 26 24 23 23 20 17 19 16 16 19 20 19 19 21 21 22 24 23 24 30 31 30 34 40 44 46 51 54 57 59 61 65 63 61 61

GFSSW_250_spd_030.txt.gz
Wind_Speed
82 79 79 78 76 65 56 45 38 35 38 38 36 38 38 41 42 44 43 44 42 41 44 47 48 48 46 48 49 51 51 50 56 61 66 71 74 76 86 93 83 77 72 75 80
83 80 82 79 72 65 50 36 35 35 36 36 36 36 40 41 40 39 40 39 39 41 43 44 44 41 42 41 38 44 46 44 51 54 53 57 68 75 71 80 87 83 83 79 81
81 80 78 70 69 59 43 35 38 34 33 33 35 37 41 41 41 39 38 40 40 40 41 40 38 36 37 38 37 39 39 38 42 43 49 48 50 58 57 60 68 59 65 71 78
78 77 75 71 66 51 39 36 38 36 33 37 40 43 42 41 39 36 38 36 35 34 35 34 34 33 32 33 33 35 38 36 42 45 45 45 45 44 50 62 61 58 60 62 64
75 78 74 73 60 42 36 37 37 36 36 38 39 39 38 37 36 34 33 32 31 28 22 26 29 29 29 30 32 36 40 40 50 49 55 53 53 48 51 55 58 57 59 60 70
74 71 71 69 52 40 37 38 37 37 33 33 35 35 36 33 33 31 33 32 29 26 24 27 28 30 31 32 34 42 42 43 48 49 41 45 52 51 48 47 51 53 53 56 58
68 69 67 59 46 40 37 37 38 35 30 31 31 32 31 31 32 34 33 32 28 25 23 28 29 29 32 35 37 40 44 44 46 52 53 57 55 53 61 61 66 67 64 65 64
67 66 63 49 41 37 40 36 30 28 27 25 27 28 28 32 33 34 34 30 26 26 29 31 31 29 30 33 31 33 35 39 48 54 56 58 62 60 59 56 59 61 62 64 71
63 61 59 42 36 38 39 30 25 22 20 20 21 22 25 30 31 33 34 32 30 29 29 32 34 33 30 31 33 34 34 37 38 42 53 55 59 62 64 59 59 64 65 67 70
58 59 51 37 35 35 29 23 18 15 14 17 17 21 24 29 31 35 35 31 27 24 23 25 29 31 29 32 33 32 36 38 42 44 45 47 55 54 57 66 64 63 65 70 75
52 56 43 33 35 27 22 17 16 13 15 16 19 23 23 26 29 28 26 24 21 21 23 23 25 26 27 29 30 30 30 32 38 40 42 46 49 49 49 55 56 53 52 50 52
48 44 37 31 27 20 16 14 15 16 17 18 21 22 23 25 25 25 23 22 23 23 24 23 24 26 26 28 29 28 28 26 29 30 31 32 34 36 37 40 41 41 40 39 41
43 35 33 31 23 19 15 18 17 17 19 20 21 24 25 26 26 26 26 26 26 24 22 23 23 25 25 24 24 23 23 23 25 25 26 28 30 31 33 34 35 36 36 35 34
35 28 31 28 21 19 20 19 18 20 20 21 21 24 26 27 26 27 25 24 24 25 23 22 22 23 23 23 21 20 20 18 17 18 21 23 25 27 29 32 34 34 32 32 34
29 27 30 25 21 22 19 19 18 19 17 20 22 23 24 24 23 24 23 22 20 19 18 18 16 16 17 18 18 18 18 17 16 17 18 21 22 26 27 30 29 29 31 34 37
27 27 27 23 25 23 22 18 19 20 21 22 22 23 23 23 22 23 20 19 18 16 15 15 16 17 16 16 15 14 14 13 13 14 17 20 22 27 27 26 26 25 24 24 26
27 28 24 27 27 23 21 22 23 23 24 26 24 22 21 23 22 21 21 18 19 19 17 15 17 16 15 16 15 14 13 12 13 11 9 8 9 9 12 15 19 21 24 27 30
29 29 27 30 26 25 25 25 25 25 25 22 23 24 24 24 22 20 19 17 17 15 15 16 16 17 17 16 14 13 11 10 9 9 8 7 10 12 15 18 21 24 27 30 32
32 29 33 30 28 29 27 27 26 26 26 25 23 24 24 21 19 17 17 17 16 16 16 16 16 17 15 13 11 11 10 8 6 6 6 8 12 14 18 20 24 27 31 34 37
33 32 34 33 32 30 28 28 29 28 27 25 26 25 22 19 19 19 19 18 17 17 16 16 16 14 12 13 12 10 8 6 5 8 10 12 15 19 21 24 26 29 32 35 39
36 36 37 36 33 32 30 29 28 28 26 27 24 21 20 20 19 18 17 15 15 15 14 14 14 14 14 12 10 7 5 7 9 11 12 16 18 20 23 26 30 34 37 41 45
41 42 39 35 33 32 29 29 28 27 25 23 23 24 22 20 18 15 15 15 16 17 18 17 15 13 11 9 7 7 9 12 14 15 17 20 22 24 28 31 33 38 41 44 46
45 44 38 40 33 32 31 30 28 28 24 25 25 24 23 21 19 17 17 17 18 20 19 18 17 13 10 8 10 12 16 18 19 20 22 24 26 28 31 34 37 41 45 47 48
51 45 42 39 35 35 34 32 28 28 28 27 27 26 24 23 19 15 16 16 18 19 19 17 15 12 11 12 15 17 19 20 22 23 26 27 30 32 37 41 45 47 50 51 54
51 44 42 33 35 35 35 32 30 30 30 28 28 27 26 23 18 16 16 17 18 19 17 15 14 13 15 17 19 21 23 24 27 29 31 32 33 36 41 44 51 55 53 55 57
51 42 42 40 40 39 37 34 33 32 30 28 29 27 24 20 17 15 14 15 14 14 16 16 17 17 18 20 21 23 28 27 31 32 32 33 39 44 45 50 55 60 58 58 61
49 46 44 42 39 38 37 37 35 32 29 27 28 26 24 21 17 16 15 14 16 19 21 21 20 19 22 23 22 30 31 31 33 32 34 39 42 46 50 55 60 64 61 63 65

GFSSW_250_spd_033.txt.gz
Wind_Speed
71 74 78 83 82 83 81 74 72 60 44 35 32 31 32 31 32 35 35 39 39 38 39 40 40 41 41 40 43 44 44 48 50 51 54 56 64 70 73 76 76 76 75 74 74
75 75 80 85 82 83 78 72 71 52 39 34 32 31 34 33 32 30 35 34 36 34 34 36 36 36 36 38 39 40 41 44 47 47 52 58 64 68 72 74 74 72 71 75 73
74 76 82 82 81 79 76 74 67 45 35 33 32 33 32 32 33 34 34 34 34 32 32 33 32 33 33 33 33 36 35 35 37 39 45 53 56 60 65 66 67 66 67 68 68
74 79 82 84 80 78 79 73 57 40 37 35 33 34 36 33 34 35 33 35 34 33 32 32 31 30 29 28 28 27 26 30 33 37 39 43 48 52 51 55 49 47 63 53 60
75 80 81 85 80 75 77 70 46 41 39 37 38 36 38 37 32 32 33 34 34 34 32 28 28 26 24 21 22 24 29 31 31 32 35 39 40 37 38 42 47 46 52 59 56
78 81 81 86 74 77 73 66 42 38 40 42 39 30 33 33 27 27 33 33 31 30 28 26 24 23 25 27 26 26 26 29 30 32 35 39 35 35 38 38 44 48 48 52 59
81 82 83 82 72 75 66 62 41 41 41 40 36 28 28 26 24 26 31 31 30 29 26 22 26 27 27 24 26 24 23 26 28 29 31 35 33 33 42 44 43 44 42 47 50
84 81 83 76 74 70 63 53 43 44 38 34 32 24 23 22 23 26 31 28 29 29 26 24 28 25 25 27 28 27 25 25 28 32 33 36 38 44 42 44 43 48 51 58 60
85 79 82 70 72 67 57 48 42 38 32 28 24 19 20 21 23 27 29 27 31 29 27 26 27 28 25 23 23 24 25 26 26 36 38 40 44 45 46 51 54 54 60 62 60
83 76 77 65 67 61 53 45 39 32 23 19 15 14 17 21 24 28 29 30 33 29 27 29 28 27 26 24 24 24 29 31 31 34 39 38 39 47 48 46 48 52 58 62 65
79 74 69 60 65 59 44 37 32 21 16 15 14 12 14 19 24 27 30 31 29 25 24 24 29 28 27 28 29 28 28 30 31 34 36 40 41 45 48 45 48 48 50 54 57
75 70 61 60 59 50 35 32 23 16 15 12 11 13 13 17 22 26 26 27 25 23 23 23 23 26 29 30 28 29 31 31 31 31 32 33 34 36 38 38 41 43 44 43 42
73 65 57 53 51 37 28 26 19 16 12 12 14 15 16 19 20 21 24 23 24 24 24 24 23 24 25 25 24 23 23 26 27 27 28 29 31 33 34 34 34 34 36 36 36
68 60 48 50 44 28 24 21 16 16 12 14 15 17 19 23 27 29 29 27 25 23 20 20 21 21 21 22 22 23 23 24 25 25 26 27 29 30 30 29 29 30 30 30 30
60 54 43 41 32 24 20 20 17 17 12 14 17 20 22 24 26 27 24 22 22 21 21 21 22 23 22 21 20 19 22 23 23 20 23 24 24 25 24 24 25 26 26 25 24
52 43 42 37 27 21 21 20 19 18 15 16 18 20 22 23 24 23 23 21 20 21 21 21 21 20 18 18 20 22 22 19 18 23 23 20 19 18 18 18 16 14 15 18 22
42 34 37 29 22 19 22 20 19 17 18 19 21 21 21 22 22 22 22 23 23 22 20 18 18 18 19 18 17 19 19 20 21 17 14 11 8 6 8 9 11 13 16 19 23
39 32 33 22 20 20 23 23 21 18 19 21 21 21 20 20 20 21 22 22 20 19 19 18 17 17 15 13 12 11 12 12 10 9 6 5 5 7 8 11 13 16 19 23 27
34 34 27 22 22 23 26 24 22 21 22 23 22 22 23 23 24 23 23 21 20 18 16 14 14 14 13 11 13 13 14 12 12 9 6 7 9 10 12 14 17 20 22 25 29
39 37 25 23 25 28 27 24 24 25 25 24 25 25 23 24 24 24 22 18 15 14 14 14 14 13 13 14 15 16 15 12 9 9 9 10 11 13 14 17 20 22 25 28 32
40 36 28 24 28 30 29 29 28 27 26 25 24 22 24 25 21 18 16 14 14 14 14 14 14 14 14 16 15 13 10 8 8 7 10 13 14 16 19 21 23 25 29 33 37
45 35 30 30 35 35 33 29 30 28 27 28 26 24 22 19 17 16 15 16 15 14 13 13 13 15 17 16 14 10 8 7 8 10 12 16 19 21 24 25 26 30 33 36 42
48 41 35 36 39 40 34 29 30 30 30 28 26 24 23 19 18 18 17 14 13 13 15 16 17 17 16 13 10 7 8 10 12 14 17 20 22 23 26 27 30 34 36 39 44
53 45 38 43 45 40 35 33 32 32 30 27 26 25 22 21 20 16 14 14 15 15 16 17 16 14 13 12 11 10 13 15 16 19 22 22 26 25 27 29 33 38 40 46 50
52 42 46 43 42 40 37 36 33 33 31 29 28 25 24 23 21 17 15 15 15 17 18 18 17 16 14 13 14 14 16 20 20 24 27 29 31 27 31 35 41 44 48 52 55
49 47 49 50 47 40 38 37 33 31 31 30 28 26 25 24 21 17 16 16 17 19 19 17 16 16 17 17 15 18 23 24 25 29 30 31 36 30 36 41 45 50 53 57 60
49 58 53 49 47 40 42 39 35 33 34 31 29 28 27 25 23 20 18 18 18 20 21 21 21 20 19 19 18 25 29 29 31 32 32 35 35 36 41 47 52 55 60 64 65

GFSSW_250_spd_036.txt.gz
Wind_Speed
61 57 59 61 66 71 76 79 76 77 71 69 63 36 27 23 24 24 24 31 35 37 36 37 38 38 38 34 36 41 41 42 46 52 56 56 56 57 56 58 64 69 71 70 71
62 59 62 68 69 73 79 80 79 76 68 66 59 34 28 26 23 25 25 28 30 31 31 31 32 30 30 31 32 35 37 37 41 45 48 51 50 53 57 59 65 68 72 71 70
61 58 62 67 70 74 80 82 81 77 68 67 53 33 30 30 26 24 28 27 31 31 30 29 28 29 29 29 30 32 33 35 39 40 42 46 47 51 55 59 64 67 70 69 65
62 63 64 69 69 76 83 86 84 78 68 66 51 35 31 31 31 29 28 32 32 32 30 27 27 27 26 27 29 26 26 26 30 35 37 37 40 44 50 50 57 60 63 66 69
67 64 64 68 71 75 81 85 82 77 67 65 50 39 33 34 37 34 29 31 33 34 31 29 26 26 26 24 24 22 22 26 32 28 31 29 31 31 37 42 46 49 54 50 57
71 64 64 67 72 76 80 84 82 76 67 65 47 44 35 28 32 30 27 29 30 32 31 25 26 24 26 23 22 24 28 27 25 25 27 28 27 28 31 34 35 35 35 38 44
77 69 69 69 73 80 81 84 82 73 69 59 45 35 31 25 23 20 21 24 27 30 29 26 25 28 27 25 25 27 24 24 25 25 24 21 21 28 33 34 35 39 42 43 44
77 76 73 73 74 81 84 84 80 71 68 53 39 31 25 22 18 18 20 22 24 26 25 30 32 32 28 27 25 26 24 22 21 23 21 25 22 33 35 38 40 40 40 40 41
76 74 75 75 79 83 84 84 77 68 57 45 32 23 20 19 17 19 21 23 27 26 31 31 30 31 29 28 25 24 24 19 13 13 16 19 23 26 36 34 37 37 38 38 37
72 74 75 77 81 83 84 80 72 62 48 35 24 21 18 17 16 21 24 28 28 34 34 30 31 32 29 27 27 26 23 20 21 23 24 25 25 30 39 43 47 48 49 52 52
75 76 78 77 80 84 83 79 64 55 41 27 21 20 16 14 17 24 29 31 32 37 36 30 30 32 29 26 24 23 23 25 25 24 25 31 33 37 36 40 41 44 46 47 51
75 79 80 80 81 85 82 76 57 48 33 23 19 15 13 12 19 25 30 31 34 34 32 29 29 28 27 28 24 25 25 25 26 27 30 32 34 38 42 46 45 42 41 47 51
77 79 82 84 85 83 78 66 48 39 25 19 16 12 11 11 17 23 29 32 33 32 30 28 30 30 30 28 25 27 28 29 32 32 33 35 36 37 37 36 35 35 35 36 36
78 81 85 85 86 82 74 53 44 32 21 15 13 12 11 15 18 21 26 33 30 29 27 27 27 28 29 29 30 31 30 30 29 29 30 30 30 31 29 29 30 31 30 28 29
81 82 84 84 82 74 69 45 40 27 19 14 12 13 13 19 25 29 31 32 31 29 28 28 27 25 23 25 26 27 27 27 28 28 28 27 27 26 24 24 25 25 25 26 25
83 84 85 87 77 69 62 41 35 22 19 16 13 16 16 19 23 29 34 34 32 28 24 23 21 22 22 24 24 23 24 24 24 25 27 25 22 19 21 21 19 16 14 12 14
82 83 86 83 71 60 51 38 25 20 18 18 16 19 20 21 23 27 29 30 28 26 25 24 24 23 22 22 21 21 21 21 25 23 19 17 18 16 10 8 10 10 11 14 17
84 83 84 78 53 54 41 31 21 19 19 18 18 18 21 23 25 26 26 26 24 22 22 21 22 21 21 19 17 18 20 21 19 18 18 17 12 9 9 10 11 11 14 17 19
87 83 82 55 44 42 32 24 20 22 20 18 19 20 22 24 25 26 25 24 22 21 22 22 21 21 19 20 22 22 21 20 19 17 15 12 9 9 10 11 13 14 16 18 20
93 81 75 45 43 35 29 24 23 24 20 22 24 24 24 26 25 25 25 22 22 21 19 19 20 19 20 22 20 18 15 14 14 15 12 10 10 12 14 15 16 19 20 22 24
89 70 65 42 41 33 28 26 28 25 25 27 25 24 23 24 24 23 23 22 21 20 18 17 15 16 17 16 15 14 15 16 15 13 12 13 14 16 17 18 20 23 24 25 28
74 68 52 47 40 36 31 30 30 27 29 28 23 25 25 23 23 21 21 21 20 19 16 16 16 17 17 18 19 19 19 15 14 14 15 16 17 20 22 23 25 27 27 28 33
66 64 55 50 39 38 35 36 34 34 31 28 28 28 26 25 23 21 21 20 18 15 15 16 17 18 21 21 20 17 16 14 14 15 18 21 21 23 25 27 29 30 30 34 38
69 66 62 49 46 42 42 40 37 36 34 31 29 28 28 25 21 20 21 19 16 15 15 16 20 21 20 18 18 18 16 16 17 18 21 24 25 26 29 33 33 34 35 38 43
66 67 57 48 48 46 48 42 40 35 34 31 30 30 28 24 22 24 22 19 17 15 18 20 21 20 20 20 18 17 18 20 21 21 25 28 30 28 29 34 38 39 41 44 48
66 62 56 55 54 50 50 44 41 36 35 33 33 31 28 25 26 25 21 17 16 16 20 20 20 21 21 21 20 19 23 24 23 24 28 29 35 35 35 37 40 41 44 50 54
65 63 60 59 53 52 49 46 40 39 37 36 33 32 29 29 29 25 21 19 18 20 23 24 24 24 25 23 20 25 28 26 27 30 31 33 38 39 41 42 42 45 48 55 59

GFSSW_250_spd_042.txt.gz
Wind_Speed
48 50 51 53 55 58 62 66 72 72 76 71 65 73 74 73 69 57 48 37 32 26 26 27 32 36 42 47 46 49 45 44 50 48 34 31 27 40 52 54 55 56 55 53 51
49 51 51 53 55 59 62 67 75 73 76 70 71 74 77 80 70 52 45 41 30 25 24 22 28 33 39 41 41 40 39 45 40 38 30 23 29 48 44 48 50 52 54 49 47
53 53 53 56 60 62 63 68 72 73 75 71 73 75 77 81 69 54 42 36 32 29 20 23 26 31 33 36 36 36 40 39 34 29 36 34 50 54 50 50 45 46 49 50 48
57 56 55 58 62 65 65 68 73 74 74 70 68 75 79 84 73 52 38 29 29 26 23 28 27 27 29 29 30 30 33 33 32 32 50 50 51 46 50 46 18 25 35 44 46
55 57 58 62 64 66 66 70 75 76 75 69 71 77 83 83 74 51 39 27 23 27 27 25 26 28 27 24 26 27 28 27 21 30 44 53 47 45 48 40 30 21 36 28 36
59 58 60 63 66 68 68 72 77 76 74 69 71 74 76 78 66 49 39 27 21 27 30 28 29 28 29 21 23 19 21 19 29 28 33 41 47 51 46 41 36 34 27 26 27
58 59 63 66 67 67 69 72 78 74 71 70 71 73 76 79 62 46 37 26 20 18 24 30 30 28 26 24 18 25 25 27 25 25 27 32 41 47 40 28 27 36 36 27 23
59 60 63 64 66 66 68 73 73 73 72 73 73 74 77 75 58 45 35 24 17 16 22 28 36 28 30 29 28 26 26 29 25 28 30 29 29 28 28 30 26 31 26 21 21
59 61 65 66 66 67 70 72 73 71 68 70 74 74 79 71 53 39 31 21 14 18 21 24 32 29 28 25 28 30 30 28 29 28 27 28 23 20 23 21 24 24 23 25 29
60 62 66 67 69 69 72 75 74 70 67 71 72 71 75 62 46 35 29 18 16 19 23 23 29 34 29 28 33 32 37 31 26 26 20 19 17 19 20 21 26 32 27 36 37
65 65 66 69 70 71 75 73 70 66 67 69 71 73 76 52 38 32 28 16 17 18 23 25 32 37 33 33 30 30 33 29 23 19 21 25 24 20 23 25 24 23 30 38 41
65 64 66 70 71 71 71 71 68 61 65 69 71 70 69 45 33 28 26 14 16 21 29 34 38 35 34 29 28 31 30 25 22 21 23 23 25 26 26 26 27 29 32 39 40
70 68 71 73 73 71 71 68 64 66 65 67 68 67 60 37 29 27 21 14 20 24 30 32 37 36 35 31 32 30 27 24 26 25 25 25 27 28 31 29 35 38 40 43 46
76 73 74 77 75 74 68 61 62 66 65 70 69 63 62 34 27 23 17 17 19 22 27 30 34 33 33 30 29 26 21 20 20 24 22 31 34 30 31 33 37 43 47 48 51
80 79 78 77 77 77 74 71 67 67 68 68 66 61 46 28 25 19 15 20 21 22 28 35 35 36 28 26 23 22 19 16 20 21 25 27 28 26 27 33 36 40 40 41 38
82 82 78 79 78 74 75 72 70 68 71 69 65 60 40 25 22 16 15 17 22 24 34 27 27 24 20 26 23 26 23 22 24 26 26 31 34 29 35 33 31 38 33 32 30
84 85 82 81 76 73 72 73 72 70 68 67 63 51 38 24 20 14 15 16 22 22 31 30 27 26 28 23 20 22 22 23 24 33 34 33 35 37 24 35 27 31 29 29 27
87 85 85 83 80 79 75 75 70 73 69 68 58 55 35 25 20 14 17 17 22 28 29 28 27 28 24 23 21 28 29 31 31 36 31 34 33 29 27 27 25 26 25 23 20
86 88 84 89 87 82 77 73 73 74 69 62 53 47 33 27 22 15 17 18 26 31 31 29 23 25 25 26 29 26 29 33 35 37 30 28 24 25 24 25 26 26 26 24 23
86 86 88 92 90 85 80 72 72 74 69 59 57 52 38 27 22 19 18 19 27 27 28 27 26 30 30 32 32 31 31 33 29 28 27 21 27 23 25 24 26 26 25 25 25
86 89 87 91 92 86 75 76 76 71 65 60 58 49 38 29 24 23 23 22 26 31 33 29 34 30 32 33 31 32 32 28 28 27 26 25 21 24 23 26 26 24 25 26 27
86 86 94 87 85 82 75 75 75 69 62 59 62 45 30 29 23 22 29 32 32 33 33 31 35 31 30 28 29 29 30 28 27 25 24 25 24 25 27 26 25 27 28 29 33
87 90 97 94 82 78 75 73 73 64 64 62 56 45 30 27 22 20 23 27 33 32 29 28 29 30 27 30 29 31 28 25 25 26 30 27 28 27 27 25 28 30 32 35 39
100 100 94 88 83 78 78 77 74 69 66 62 58 43 33 31 30 31 28 34 33 31 33 30 31 30 29 31 28 29 27 28 28 29 30 29 25 26 28 28 31 35 38 39 41
99 93 93 88 81 81 77 76 70 68 64 55 50 38 37 31 31 33 31 33 34 35 34 32 32 30 30 30 30 29 30 29 29 31 25 30 24 27 30 29 36 39 41 44 48
93 89 84 88 88 81 79 74 71 67 61 43 45 41 43 35 30 34 32 31 33 33 33 32 32 30 30 30 31 29 30 30 30 28 26 27 25 33 33 35 40 40 44 45 50
82 83 79 77 77 78 67 67 64 62 48 46 47 46 45 39 34 33 35 35 35 35 34 31 31 31 31 30 28 30 32 30 29 28 28 30 33 35 38 39 43 48 49 52 56

GFSSW_250_spd_045.txt.gz
Wind_Speed
51 50 48 46 48 47 48 53 53 58 61 65 68 72 75 70 67 70 69 64 52 43 35 33 32 28 27 34 35 41 38 50 52 48 45 38 34 34 11 33 38 40 41 37 44
50 48 47 48 51 49 51 53 53 58 62 65 68 71 74 68 70 70 72 66 50 39 30 30 30 26 24 33 37 39 40 44 37 33 32 32 41 32 34 42 24 36 28 28 32
49 48 47 48 51 51 51 50 53 59 61 65 69 71 73 68 71 74 75 67 47 37 28 28 28 23 21 30 37 37 42 34 30 28 31 40 45 50 40 41 30 28 14 26 29
48 47 49 50 48 51 50 51 57 59 61 64 69 71 75 68 71 72 73 62 46 35 28 27 25 22 24 27 30 33 34 31 29 25 34 49 54 47 41 40 41 36 28 16 34
51 49 49 49 51 53 49 51 56 59 62 64 68 73 75 70 72 72 69 53 42 36 27 23 21 25 23 27 26 29 29 25 26 35 44 44 54 48 43 29 25 22 25 20 29
47 48 49 52 52 52 51 53 56 58 62 64 67 73 75 67 70 71 67 50 39 33 24 23 21 22 24 24 24 21 24 25 28 33 38 49 46 46 38 35 28 24 24 30 28
52 51 49 52 55 52 51 53 57 60 64 65 69 71 72 67 70 68 65 46 38 30 18 19 24 22 21 23 15 18 20 29 26 27 31 39 46 48 44 39 39 29 30 25 37
55 52 53 55 54 51 53 55 56 60 63 64 66 71 67 67 67 69 60 44 37 28 16 15 23 22 23 27 26 27 29 28 24 24 25 25 43 39 41 38 38 33 32 34 39
54 55 57 56 52 52 54 56 55 57 63 62 67 69 64 65 70 65 55 41 35 23 14 13 22 25 21 30 27 26 29 31 22 20 23 23 24 29 30 37 40 39 32 38 34
61 59 60 59 55 56 58 58 55 59 60 61 65 60 64 63 66 67 50 38 32 16 12 12 25 28 26 32 31 34 35 25 22 24 22 20 20 21 20 24 25 27 27 29 30
61 60 59 58 56 60 60 60 55 60 61 60 63 60 64 63 66 62 42 34 28 14 13 14 27 32 32 35 29 33 25 23 25 23 21 19 21 24 23 22 25 23 25 31 34
59 59 57 58 62 65 63 61 59 58 63 62 66 64 64 63 61 56 37 32 25 15 17 18 26 36 38 31 29 27 21 23 25 20 19 23 26 28 26 25 28 28 24 25 27
61 62 64 64 67 65 67 63 63 61 61 63 66 64 60 60 63 52 33 29 25 17 18 20 27 34 33 29 31 27 25 26 25 23 23 24 27 29 31 30 29 31 27 30 33
67 69 70 69 68 68 66 66 64 64 62 63 63 61 58 57 59 45 32 28 22 15 18 16 26 33 32 30 26 26 20 24 24 20 26 25 25 28 30 32 33 35 31 33 39
71 73 74 72 73 70 68 67 67 65 64 61 59 57 56 58 52 34 28 25 19 16 15 19 26 28 24 24 24 23 21 19 20 22 24 28 28 27 25 25 27 29 33 35 35
77 74 72 73 73 68 67 70 71 66 65 58 57 58 57 59 48 31 24 20 16 15 19 19 23 27 24 26 24 22 21 16 17 19 24 29 26 21 24 27 30 34 34 27 29
81 78 77 74 75 71 73 73 72 65 66 58 59 57 59 58 50 32 24 16 14 18 17 15 22 25 29 24 20 25 24 22 25 26 28 28 27 25 27 31 31 34 35 28 25
88 82 81 84 75 77 77 75 69 68 67 61 61 61 57 55 48 33 24 17 13 18 18 16 18 22 23 21 26 26 25 22 24 29 27 25 30 29 32 34 32 31 30 29 27
90 83 82 86 83 83 80 74 67 69 67 63 61 63 61 59 51 36 25 19 12 15 22 19 28 29 27 28 25 30 26 25 23 28 27 31 27 30 32 28 29 27 27 28 28
91 86 86 92 89 88 81 72 66 70 68 66 62 65 62 61 55 39 26 23 15 12 18 25 28 28 28 27 27 30 29 28 26 28 32 34 34 27 29 30 25 27 28 26 26
104 98 94 98 92 87 74 70 69 72 68 62 63 64 62 58 49 38 29 24 21 12 20 26 30 30 29 28 32 31 33 32 31 31 35 30 26 28 31 28 27 27 25 26 28
104 99 94 100 90 80 73 71 75 73 67 61 62 63 59 54 49 36 31 27 27 21 25 33 32 34 32 27 30 33 36 37 32 30 29 32 28 30 30 29 29 25 27 29 31
105 100 97 100 87 78 76 72 74 72 69 67 58 60 56 56 53 36 31 27 30 28 30 31 34 36 34 35 37 37 34 28 26 26 31 31 35 30 30 31 28 27 30 32 34
107 107 99 97 82 82 78 78 74 75 71 68 65 65 61 59 57 38 32 25 23 28 33 31 34 34 35 36 33 28 28 27 27 29 36 32 37 29 33 27 26 31 34 35 38
105 97 93 84 83 83 77 78 75 77 71 64 62 65 61 56 53 38 36 31 26 30 27 29 31 34 32 31 30 29 30 30 31 34 37 35 35 31 31 27 28 33 37 43 42
107 97 91 84 88 82 85 77 77 73 72 69 69 69 63 60 51 38 36 35 32 31 31 33 39 30 35 34 30 32 35 34 33 34 37 37 30 33 26 29 32 36 41 41 45
95 93 94 93 88 87 77 75 79 83 79 72 70 67 62 60 51 36 38 36 31 32 31 32 34 33 35 33 33 33 36 32 36 36 35 31 26 28 33 36 36 40 44 49 51

GFSSW_250_spd_048.txt.gz
Wind_Speed
59 55 54 59 56 55 53 52 51 53 47 51 51 54 59 63 68 74 72 70 74 70 63 47 40 32 26 23 23 28 36 44 47 34 29 21 29 44 51 53 49 37 42 42 39
59 56 57 60 56 54 54 50 50 47 47 50 50 53 59 65 71 73 69 73 73 68 57 43 38 30 25 23 24 32 38 42 32 26 27 29 34 44 45 43 36 17 18 28 29
60 57 59 58 57 54 52 50 49 47 48 50 50 54 59 63 69 74 68 72 74 69 51 42 36 30 25 24 26 35 40 33 31 22 21 29 35 42 45 44 31 22 14 20 27
58 58 60 56 56 52 50 48 46 47 48 48 50 53 59 63 66 71 68 72 72 63 48 40 34 26 22 21 23 38 34 31 23 17 22 30 38 42 50 39 41 41 27 27 25
60 58 57 58 53 50 51 49 46 47 46 48 50 52 57 63 66 64 69 72 68 55 45 39 29 20 19 16 20 37 34 28 23 23 26 34 44 46 42 40 34 38 28 25 22
63 58 57 57 54 49 48 45 46 47 47 45 49 51 57 62 65 65 72 73 67 50 42 35 22 16 15 19 20 21 20 24 24 28 33 36 52 44 42 42 31 30 34 32 25
60 56 53 57 50 49 51 47 48 46 46 46 52 55 58 60 64 67 73 72 65 48 42 29 19 16 16 21 23 23 21 21 22 28 28 35 52 46 43 36 30 24 36 43 39
62 53 53 57 58 58 57 50 50 46 47 48 53 55 56 61 64 67 70 70 61 45 40 22 17 14 14 16 19 18 19 24 30 29 32 32 47 56 44 49 37 36 33 30 38
61 54 55 58 58 61 56 52 50 47 48 47 54 55 58 61 66 66 64 67 57 45 36 19 12 11 13 20 21 23 26 29 32 32 28 28 43 43 44 40 42 35 41 35 38
59 56 62 61 57 54 55 54 50 47 50 49 51 54 58 59 67 65 61 64 54 43 35 21 8 14 18 24 28 30 26 30 31 26 22 21 22 28 33 36 37 39 38 35 36
56 59 55 60 57 59 60 53 47 49 50 50 55 54 56 58 64 63 57 60 53 39 31 22 13 17 22 23 32 28 25 25 21 16 16 16 20 23 29 31 36 41 38 34 37
59 58 58 61 62 61 59 51 47 51 52 51 53 53 55 57 63 56 53 62 50 36 27 20 22 20 24 21 28 22 25 24 17 18 18 16 19 25 31 35 38 38 34 35 32
64 62 63 64 64 63 60 53 50 54 52 52 53 52 54 56 61 54 54 55 45 31 25 18 20 16 23 23 23 18 21 21 19 19 16 17 24 25 29 30 29 31 31 31 29
69 67 66 66 64 62 57 55 52 55 55 57 52 51 55 56 58 52 49 49 46 32 22 15 17 18 26 29 26 21 24 21 18 19 20 21 21 24 26 28 30 31 31 34 34
73 70 68 65 65 61 59 57 54 56 52 52 52 51 56 56 59 53 47 49 42 32 24 15 10 17 23 27 26 25 22 18 16 21 23 26 27 23 26 29 34 31 33 34 37
76 72 71 71 69 61 63 62 60 57 55 53 53 52 58 60 59 52 47 50 37 31 21 17 11 16 21 25 26 24 23 23 22 28 30 23 25 25 27 28 31 31 30 31 34
81 76 76 76 74 66 68 68 64 57 58 52 55 53 60 59 54 50 47 54 41 28 22 12 11 14 17 20 25 25 21 20 23 26 26 26 26 23 25 28 26 27 27 33 36
88 85 81 82 77 73 73 70 64 63 63 59 56 56 58 57 51 49 49 49 41 26 19 15 17 14 15 19 25 22 24 25 26 24 23 24 22 21 25 28 32 31 27 27 28
93 89 82 87 82 79 74 70 68 65 68 60 54 60 58 55 50 49 47 46 37 28 21 17 20 16 18 20 20 23 25 23 25 28 25 19 24 28 28 28 31 32 26 21 25
97 93 89 91 84 79 73 66 65 69 65 60 58 59 55 51 48 47 50 47 36 28 26 17 22 23 22 23 23 26 25 24 25 30 29 27 28 31 29 30 30 27 29 27 27
99 96 89 93 87 84 69 66 68 71 68 61 62 55 54 53 51 47 45 47 41 28 27 22 20 25 29 29 25 26 29 30 29 33 36 31 31 32 31 26 25 28 30 30 29
106 97 96 95 88 78 70 68 73 74 70 67 63 55 54 52 50 51 51 51 47 35 29 30 24 28 31 26 20 22 28 29 29 32 36 36 35 32 29 27 26 30 32 30 28
116 111 105 102 91 80 73 71 74 78 74 69 64 60 56 53 54 53 52 51 49 40 31 33 32 30 32 29 28 28 30 32 37 37 36 35 34 23 27 28 30 30 31 30 28
123 118 112 105 95 90 83 80 78 83 75 71 66 63 57 56 57 54 52 48 46 36 33 33 35 34 33 29 29 29 31 33 29 30 31 31 34 30 25 28 30 28 27 31 33
124 121 108 101 92 91 89 83 79 82 75 70 66 62 59 58 58 59 54 52 55 34 33 33 29 32 36 35 29 24 28 30 28 29 31 36 34 33 29 26 27 25 30 37 32
113 106 105 99 96 96 94 86 80 84 76 69 67 64 60 58 59 52 53 55 55 39 33 35 30 30 28 31 29 26 32 34 28 31 35 36 37 35 32 26 28 33 33 31 35
108 102 98 94 96 98 90 86 78 82 74 73 70 63 58 58 62 60 60 56 56 43 35 39 34 31 34 34 37 30 37 33 35 34 36 37 37 38 32 30 30 31 33 37 40

GFSSW_250_spd_051.txt.gz
Wind_Speed
61 64 60 60 62 57 56 55 60 59 59 56 58 54 54 55 55 59 65 71 75 74 77 77 66 51 44 34 25 26 28 29 31 23 24 23 27 32 38 40 38 31 36 34 33
65 65 61 59 58 58 57 54 59 58 58 54 55 51 52 54 55 59 65 70 75 77 78 77 62 49 42 32 25 24 27 28 27 22 22 25 31 38 44 44 44 37 36 30 33
65 65 66 63 60 60 57 54 58 56 54 53 51 49 52 50 55 59 65 71 75 75 78 76 54 47 40 26 20 21 24 21 19 23 24 26 28 35 43 50 50 47 36 24 25
64 61 66 63 63 61 58 55 55 55 51 50 49 47 48 51 55 58 66 72 75 75 78 71 49 45 34 17 14 23 21 21 20 24 23 26 27 29 48 55 55 47 38 22 18
65 66 62 61 60 63 59 55 52 52 48 50 46 48 49 50 54 57 64 69 74 74 76 64 48 41 27 19 18 16 22 22 19 24 23 20 25 32 45 47 53 43 34 26 25
65 61 62 60 63 61 59 56 50 49 47 49 47 49 49 49 52 57 62 68 74 74 74 58 47 33 24 18 13 9 18 24 20 21 26 28 24 31 36 47 45 44 41 27 23
66 67 65 62 63 61 56 50 47 47 46 54 53 49 45 49 50 54 61 65 72 71 74 53 44 29 22 14 11 7 22 28 23 25 27 20 25 29 39 45 45 53 44 34 28
63 61 62 63 60 57 54 45 45 49 53 55 51 47 44 47 52 53 59 66 71 69 75 50 39 27 16 8 11 11 13 14 26 23 20 22 26 30 45 46 44 41 44 38 38
63 59 60 60 59 59 58 50 46 48 52 52 50 45 45 46 50 53 57 63 70 67 72 47 37 26 13 6 11 15 17 16 18 20 19 21 26 27 41 41 44 39 39 43 42
62 62 59 59 59 56 55 48 44 46 51 48 51 47 46 44 48 51 56 61 67 65 64 44 36 24 20 7 14 15 15 13 18 22 21 20 23 29 35 39 35 38 40 44 45
60 60 59 58 55 53 53 50 49 52 53 50 53 46 47 46 48 50 55 61 66 66 60 41 34 21 27 9 14 11 13 16 22 23 18 13 15 23 27 31 43 39 37 40 47
62 59 60 58 55 51 48 50 52 55 52 50 49 45 46 47 47 48 55 61 65 62 55 37 31 16 20 12 10 18 17 15 19 16 13 12 13 15 21 33 34 42 50 49 48
69 66 62 60 58 56 53 47 50 52 50 53 48 44 44 45 43 47 53 60 60 58 51 34 32 11 15 11 14 20 16 18 15 14 15 15 17 19 22 23 30 33 35 39 39
70 70 67 61 59 59 52 53 52 53 53 57 43 45 43 45 42 44 51 58 59 55 50 34 29 19 11 13 16 16 15 16 17 16 18 19 18 20 21 24 28 31 31 32 32
81 75 71 66 65 61 58 59 57 53 50 49 46 46 43 43 40 44 50 56 58 54 49 31 25 20 13 9 15 19 16 17 19 16 20 19 17 17 22 24 28 31 33 36 39
87 80 77 73 70 64 64 62 59 56 50 48 50 46 46 44 43 46 50 54 56 52 46 30 22 15 9 9 14 17 18 19 19 19 19 19 22 21 24 24 24 27 31 33 33
91 85 81 77 75 67 68 67 60 53 53 51 51 50 48 47 48 44 47 49 52 49 44 29 19 16 13 5 11 15 19 20 23 23 19 22 22 20 22 26 24 25 29 32 32
94 90 84 82 78 72 71 66 58 55 57 55 55 51 49 52 49 45 47 49 50 45 42 30 19 17 15 10 13 16 19 21 24 23 21 21 24 23 26 27 26 28 29 31 32
95 94 89 86 82 75 73 65 58 60 64 59 59 53 53 50 45 46 49 47 50 47 40 33 20 18 19 19 16 15 18 18 22 20 17 18 22 27 27 26 25 25 32 38 38
97 96 96 95 88 83 78 65 64 66 65 61 62 58 56 48 46 45 49 47 48 48 45 38 25 19 20 22 19 13 14 19 20 24 22 18 25 26 26 28 30 28 31 35 33
103 100 96 97 93 85 74 70 69 72 68 63 61 57 53 49 48 47 49 49 48 44 43 43 31 22 21 21 23 20 18 19 21 24 24 23 26 29 30 29 32 33 29 29 28
107 103 103 100 96 83 78 75 76 77 69 66 60 58 56 52 50 50 51 51 49 45 47 43 36 26 26 24 23 21 19 21 23 24 25 25 27 29 32 34 32 30 29 29 28
105 107 107 106 95 78 77 76 77 79 73 69 65 57 55 54 52 52 52 49 49 48 47 42 41 36 26 27 26 23 26 29 29 28 30 26 33 28 26 27 27 30 29 29 31
110 107 109 109 91 86 80 76 76 83 72 64 62 58 55 55 55 52 52 51 52 49 49 46 44 38 32 29 27 25 33 30 32 30 30 29 26 19 19 25 28 31 29 32 37
116 108 97 95 88 84 82 79 78 79 69 64 63 59 58 59 57 55 54 54 55 49 47 45 43 38 34 32 33 31 33 34 34 31 22 26 24 26 26 27 27 30 34 37 41
116 111 99 90 91 90 88 80 78 83 74 69 67 66 66 63 61 57 57 55 50 48 50 52 48 46 36 36 33 30 35 38 36 26 23 25 25 28 30 30 30 32 35 37 37
109 111 102 97 93 90 79 81 82 87 81 75 71 71 68 66 64 58 54 54 53 50 50 53 52 49 41 38 34 28 36 34 33 30 25 25 30 32 30 31 31 32 31 32 33

GFSSW_250_spd_054.txt.gz
Wind_Speed
67 66 60 58 62 62 60 60 59 56 55 57 57 61 60 61 62 56 55 60 65 70 74 79 79 70 59 53 47 37 27 23 19 19 21 24 28 31 34 38 42 41 38 43 39
63 55 65 55 58 56 58 60 59 58 56 58 56 57 57 59 56 52 55 60 64 69 74 78 77 65 57 53 42 31 21 12 15 17 16 24 26 26 35 38 41 38 39 33 38
68 62 63 52 53 54 54 56 57 56 59 58 57 57 55 55 54 51 55 60 63 68 73 78 73 65 55 49 36 30 16 13 11 15 18 23 21 23 32 36 42 44 37 24 32
70 68 61 60 58 60 59 56 54 57 54 55 56 56 51 53 50 52 57 58 63 68 72 76 73 62 53 43 33 28 16 14 9 15 21 22 23 23 36 41 45 43 33 31 28
68 69 66 62 60 59 57 56 56 55 56 56 55 54 50 52 52 54 56 57 63 68 72 75 68 58 48 39 29 18 14 14 13 12 21 22 19 23 39 44 47 42 31 34 24
64 63 70 67 62 60 56 57 55 55 54 54 51 47 47 50 52 49 54 57 60 67 71 74 70 55 43 33 20 12 12 12 15 12 20 17 16 21 28 42 50 45 34 33 28
60 60 61 64 60 59 59 56 56 59 53 51 49 47 47 51 51 49 53 55 58 64 69 76 70 52 39 29 13 10 4 18 17 12 16 15 19 17 25 42 49 38 46 34 40
62 64 61 60 60 58 60 58 52 52 51 50 46 44 46 50 48 49 54 53 58 62 66 73 65 49 36 26 14 4 2 15 13 11 10 11 16 18 24 44 53 50 48 38 35
64 63 63 62 60 58 58 51 50 49 50 50 49 45 45 48 47 50 50 52 54 59 63 70 63 45 35 24 16 4 4 6 2 5 9 11 13 15 23 35 57 55 48 48 35
64 62 57 58 58 57 56 52 50 50 50 52 47 45 43 46 46 50 49 49 50 56 61 66 59 43 30 21 15 2 4 5 7 8 9 10 13 14 17 31 39 48 47 47 44
62 61 58 56 55 55 55 54 49 48 50 50 47 46 46 47 45 47 45 47 50 54 58 65 56 41 28 16 7 8 9 7 6 10 12 9 13 16 16 31 33 33 35 42 47
71 62 62 59 56 54 54 54 50 46 47 45 41 46 46 48 46 45 43 45 47 53 59 64 54 39 32 14 6 8 7 5 5 8 8 11 10 15 19 30 34 30 31 35 36
76 66 66 63 60 57 54 51 51 50 46 44 37 41 39 44 46 43 42 43 46 52 57 60 56 37 28 14 4 7 8 7 6 7 6 10 13 18 21 23 26 27 31 31 31
82 79 72 65 62 63 57 56 53 50 47 49 38 38 39 43 42 39 40 42 45 49 53 59 53 34 28 11 1 6 10 7 8 10 11 13 11 10 14 18 21 21 25 30 40
88 85 81 71 68 62 56 59 58 54 48 49 40 41 40 41 44 40 40 41 44 46 51 55 54 36 27 17 4 6 8 10 13 14 14 12 12 11 16 18 18 20 25 29 30
91 89 84 77 75 68 62 61 56 54 48 45 44 44 48 43 42 40 39 41 44 45 49 53 50 43 24 18 8 4 11 14 16 16 15 14 12 14 13 15 17 18 22 28 33
96 93 87 83 82 73 71 65 63 52 54 51 50 50 46 44 42 41 40 41 42 41 47 52 51 46 23 21 14 5 10 15 19 17 14 15 14 15 17 16 17 21 25 27 30
96 97 92 87 85 82 77 71 64 59 57 54 53 51 48 44 44 42 43 40 41 40 45 50 51 46 27 21 19 11 7 12 17 15 14 19 19 15 18 17 20 22 24 28 31
98 94 96 92 90 83 81 73 63 64 63 57 54 50 49 44 46 44 46 44 39 40 44 47 49 49 37 22 21 16 11 13 14 15 15 18 22 19 19 20 21 23 25 27 30
101 96 93 99 97 90 85 68 68 70 67 62 57 54 51 47 44 46 48 45 38 41 45 46 47 48 41 24 19 15 12 12 15 13 14 17 20 23 21 21 22 26 30 32 35
104 100 94 101 104 97 80 68 70 72 70 63 58 54 53 50 49 47 47 45 40 42 46 45 48 47 41 27 20 16 17 16 14 17 16 19 24 24 25 23 27 31 34 34 37
104 100 100 104 103 86 75 70 70 77 71 66 61 58 56 53 51 48 48 46 42 44 46 45 47 48 50 38 26 22 17 17 19 18 19 20 25 26 26 28 31 33 36 38 32
106 101 105 107 101 79 75 73 71 77 71 68 64 64 60 57 55 52 52 50 45 47 46 45 48 46 49 43 35 24 21 19 23 24 25 24 30 24 30 33 36 36 33 31 30
107 109 110 107 92 84 79 76 70 73 71 69 67 64 63 61 58 55 55 50 49 49 46 45 47 47 49 48 39 32 26 23 27 29 29 32 33 31 31 30 30 29 30 31 33
108 106 105 96 86 82 80 76 76 76 69 71 63 62 60 59 57 54 53 50 51 49 48 48 44 47 50 55 44 41 33 26 30 32 33 37 34 36 32 28 29 29 30 32 34
100 101 98 93 88 87 84 76 72 75 70 66 62 62 60 57 56 57 55 55 53 50 50 50 47 48 50 54 54 39 34 28 28 35 36 34 37 39 31 30 30 30 30 32 36
86 99 98 97 92 87 84 83 78 77 71 68 69 67 62 64 64 61 59 56 54 52 51 51 50 51 49 52 51 45 42 32 30 32 34 36 37 35 34 32 32 30 32 35 36

GFSSW_250_spd_057.txt.gz
Wind_Speed
59 60 60 63 66 63 63 60 59 51 50 53 51 55 54 53 58 58 59 59 57 57 63 69 72 79 80 81 65 52 41 31 22 17 14 17 22 29 33 41 47 50 52 53 58
53 58 58 54 62 67 61 56 58 57 52 52 51 50 51 51 53 57 57 56 57 59 65 68 75 77 80 78 59 49 36 28 20 17 12 15 21 26 31 36 40 46 47 48 46
44 54 55 56 58 58 61 60 58 57 52 51 52 49 50 51 54 55 53 52 55 59 63 67 71 76 76 74 54 48 31 24 21 14 12 18 18 25 26 34 40 42 39 42 43
50 44 54 56 56 59 56 62 64 55 52 54 52 51 50 52 51 49 48 50 54 57 60 66 71 73 77 68 55 43 29 17 17 13 15 15 18 21 24 34 40 42 41 36 35
55 51 50 53 55 55 58 58 56 51 52 49 50 51 52 52 47 47 47 49 52 58 59 66 72 73 74 64 56 36 22 17 12 10 14 15 19 22 21 34 42 46 46 38 28
55 52 50 53 52 53 53 56 51 57 56 52 53 49 50 46 46 45 44 48 52 56 59 65 68 71 72 61 51 32 21 16 10 11 12 17 19 21 24 30 42 44 42 31 24
60 56 52 54 56 52 50 53 50 51 51 50 50 50 48 45 44 41 45 49 51 53 58 64 67 67 66 56 48 30 20 9 13 9 11 13 15 16 17 30 40 47 40 32 31
67 65 57 58 58 54 51 52 49 48 51 51 49 48 45 44 43 44 46 44 48 50 54 61 64 63 65 51 42 26 18 11 3 7 3 6 12 13 18 22 38 43 39 32 29
75 70 74 64 62 57 52 52 52 47 48 47 48 43 41 44 45 46 42 42 46 49 54 58 62 61 59 44 41 21 11 6 3 2 1 3 6 11 16 19 32 42 44 40 32
80 76 68 64 65 60 56 53 49 51 50 47 45 40 43 44 44 43 40 43 45 48 50 54 58 59 59 38 35 18 10 3 3 4 3 1 5 11 15 22 27 41 46 40 41
86 84 80 71 69 62 59 55 48 46 46 48 45 41 43 42 40 40 40 42 43 46 46 49 54 58 58 39 31 12 11 8 3 2 6 4 7 11 11 13 20 35 49 44 40
85 83 77 75 70 66 61 58 51 45 45 45 43 42 44 38 33 34 35 36 39 42 45 46 49 52 55 39 34 7 7 4 5 5 2 7 13 12 10 12 16 21 35 42 45
90 87 79 71 71 68 63 56 55 47 42 44 43 41 39 30 31 30 31 35 38 40 43 44 47 50 51 42 32 11 6 7 5 2 10 9 8 12 14 12 15 22 28 32 34
82 80 79 76 73 71 67 58 56 54 45 46 42 40 38 34 31 29 32 34 36 39 41 43 46 48 52 41 28 20 5 10 6 7 6 8 8 10 11 13 15 18 20 20 23
79 77 81 80 75 73 70 69 58 55 50 48 45 40 40 36 35 32 32 35 36 36 38 40 42 43 49 44 25 23 12 11 9 8 9 11 11 11 9 9 13 19 21 20 23
81 77 80 81 81 77 74 72 68 59 53 49 50 45 43 39 35 31 35 37 37 36 36 39 40 43 45 38 29 20 17 14 11 11 14 13 13 13 13 10 12 14 16 18 20
87 81 80 83 86 83 81 75 73 56 56 54 53 50 43 40 34 34 38 37 36 37 36 38 38 40 43 41 34 22 19 13 14 13 16 16 14 11 13 13 12 13 15 18 19
92 89 84 85 89 86 83 81 72 63 61 56 52 50 45 39 35 39 40 37 38 37 36 36 36 38 39 40 39 22 16 13 12 14 18 17 16 12 15 17 17 17 20 21 22
99 94 89 89 93 88 86 79 67 66 66 61 54 53 50 43 43 44 41 40 37 36 35 36 33 36 38 39 40 32 16 14 14 15 17 19 22 20 18 17 17 19 21 22 23
99 95 93 96 98 97 89 74 69 69 68 66 61 57 54 50 46 44 42 42 39 36 35 36 33 36 37 39 38 36 19 15 14 17 19 18 22 22 17 19 22 24 26 26 28
101 98 92 103 102 102 86 76 75 73 70 69 64 59 58 53 50 46 46 46 40 37 37 37 35 35 37 39 37 37 33 19 16 20 19 20 20 20 19 21 23 25 27 27 30
99 97 96 105 104 90 87 78 81 77 74 71 64 63 60 57 53 48 46 46 41 37 40 40 39 38 37 38 40 40 35 28 20 21 23 25 27 21 18 21 27 30 31 32 35
93 94 103 110 98 85 82 82 80 81 76 72 69 65 60 59 56 51 49 48 45 39 42 42 43 40 36 40 40 44 40 35 28 24 28 28 32 26 26 27 29 32 34 37 40
91 95 107 108 86 89 88 82 79 80 80 74 71 68 61 61 58 56 53 52 49 44 46 44 43 40 37 38 41 42 44 39 32 21 31 34 36 34 33 33 33 33 36 37 35
89 93 93 85 77 81 84 81 80 80 79 77 72 69 61 60 60 59 55 52 50 49 48 44 39 40 40 40 41 42 43 48 34 28 26 39 38 39 37 37 36 34 36 37 35
84 84 83 79 81 86 85 81 77 79 80 75 69 64 61 59 60 57 54 52 49 46 44 43 40 42 41 42 42 41 49 46 41 32 27 33 36 39 40 39 39 37 36 36 36
76 79 80 79 83 87 81 79 77 77 75 69 68 69 64 63 64 58 54 50 47 46 46 43 42 44 44 44 43 39 50 51 44 39 32 31 34 33 38 41 43 39 34 35 36

GFSSW_250_spd_060.txt.gz
Wind_Speed
45 44 33 32 43 49 50 51 49 54 55 58 56 61 56 51 45 46 47 50 53 52 52 57 59 64 68 75 73 78 69 56 47 42 33 28 24 20 26 29 36 46 49 57 53
38 37 40 35 36 38 44 45 47 46 50 54 57 51 53 54 50 50 49 49 53 48 55 57 60 65 69 71 73 72 60 51 41 33 26 22 19 20 23 28 40 52 55 62 53
50 46 43 41 41 39 35 41 45 45 47 48 53 55 57 47 43 46 50 50 52 47 54 54 59 66 68 67 76 69 55 48 33 23 23 20 19 21 29 32 37 44 47 56 59
54 51 49 45 44 46 34 37 41 44 47 47 49 46 48 46 41 45 47 48 46 49 50 54 61 62 64 69 74 63 53 45 27 23 22 16 18 20 27 31 34 41 53 54 55
68 56 53 53 50 46 45 35 38 42 45 46 47 46 45 49 47 46 46 45 47 48 48 55 58 58 64 70 72 55 51 40 26 21 15 16 19 20 27 33 37 38 41 47 49
73 73 62 59 56 50 46 44 35 39 43 44 44 45 46 44 43 41 43 43 45 48 49 52 54 56 62 67 68 52 47 34 20 14 11 16 16 18 22 27 37 41 43 50 51
73 77 77 70 63 54 51 50 49 40 44 43 42 43 46 39 41 40 40 42 45 46 48 48 53 54 60 64 63 48 43 29 12 6 4 13 13 18 21 29 38 44 47 45 41
78 75 76 76 72 58 54 55 53 55 48 43 41 42 44 39 38 39 40 42 43 42 44 46 50 53 58 60 61 44 36 24 3 7 8 7 10 14 18 33 38 44 49 44 34
79 78 76 75 79 70 60 58 57 55 47 44 45 43 43 39 38 38 39 41 42 40 41 44 47 50 55 54 56 41 30 17 3 4 4 7 15 18 21 27 30 40 44 41 31
84 83 84 84 79 75 63 67 62 53 52 49 45 44 44 42 37 36 40 39 39 37 37 40 44 48 52 50 54 36 28 11 5 2 2 4 9 11 17 28 32 40 43 41 34
88 86 86 81 82 79 70 72 67 53 54 52 43 44 45 41 36 36 38 37 32 30 33 38 41 44 48 48 52 32 27 9 6 2 5 4 7 10 11 17 23 30 41 42 37
91 91 88 90 81 79 77 70 68 58 59 55 46 47 40 36 37 38 35 32 27 25 33 36 39 41 44 46 50 32 27 16 3 6 4 9 9 10 11 11 17 21 35 43 43
97 96 95 91 87 85 76 69 70 59 60 57 50 47 40 34 36 36 30 28 24 26 33 35 37 39 40 43 46 34 27 17 6 4 7 11 11 11 10 10 10 14 24 38 42
99 103 100 93 88 85 78 74 67 61 63 55 52 47 41 35 35 32 31 29 24 27 33 33 35 38 37 41 42 34 25 21 5 7 9 11 11 12 15 12 7 7 10 20 37
98 98 96 89 86 84 82 75 71 69 67 57 52 47 46 36 37 33 31 28 27 29 33 34 34 38 34 37 37 41 22 22 12 10 13 12 11 10 9 9 11 12 13 14 17
98 97 91 86 84 82 79 76 76 75 67 55 55 51 48 41 40 37 33 32 29 30 34 33 35 35 31 33 36 39 27 19 16 14 15 13 12 12 12 10 9 13 16 18 20
99 100 95 90 90 88 83 79 75 69 65 58 57 56 48 44 42 40 39 36 30 30 33 34 36 33 28 30 33 35 31 17 16 17 17 15 13 13 14 14 14 14 16 15 16
102 100 99 96 98 91 85 78 71 68 66 61 61 55 50 49 46 46 42 36 32 34 34 35 35 28 27 29 30 30 35 21 16 14 20 20 19 18 16 15 15 19 19 20 22
95 100 97 96 99 94 88 74 65 68 69 66 64 58 55 53 52 50 43 40 35 36 36 37 35 28 26 28 31 31 33 25 19 19 21 23 22 17 20 19 19 20 21 22 20
92 92 96 101 102 98 91 69 69 70 73 70 68 64 56 55 54 48 46 40 40 40 39 37 35 30 28 29 32 32 31 31 22 20 22 25 27 23 23 20 19 21 22 23 23
92 90 89 98 105 101 79 65 71 74 75 74 72 68 61 56 54 52 46 44 45 43 42 40 35 30 29 30 32 33 31 30 30 23 20 26 30 26 25 22 21 22 22 24 25
90 86 90 100 102 84 74 68 75 76 74 76 75 71 66 62 59 56 51 54 51 45 44 40 36 30 30 31 32 32 31 30 34 32 21 27 31 30 27 26 27 28 28 28 29
85 86 94 102 94 78 76 75 79 80 76 77 77 73 69 66 63 60 57 55 51 47 43 43 36 32 32 34 32 32 32 33 32 32 26 22 35 30 31 32 32 30 30 30 32
83 85 96 91 80 78 81 79 82 83 80 76 75 74 72 67 62 61 60 56 53 50 45 43 38 34 35 37 33 31 33 35 34 33 32 29 30 32 36 38 37 36 34 35 35
75 75 85 80 77 75 76 78 84 88 82 79 77 73 71 68 66 64 60 57 55 53 48 44 38 38 39 37 33 33 37 36 34 34 32 36 32 31 33 41 42 41 40 38 38
65 70 77 78 78 75 79 79 84 89 85 78 77 78 74 71 68 66 62 59 56 54 48 44 40 40 39 38 37 35 39 38 36 36 36 38 35 32 29 34 41 42 40 41 38
60 69 73 75 76 77 79 82 85 90 89 83 82 82 77 74 72 66 62 60 57 54 50 45 42 42 42 40 36 38 40 39 38 37 36 39 37 35 28 30 37 38 39 40 41

GFSSW_250_spd_063.txt.gz
Wind_Speed
43 40 39 35 41 42 33 31 38 46 51 48 47 43 44 47 49 53 48 49 44 47 50 52 50 53 58 61 64 68 65 69 62 56 51 39 32 31 29 25 23 25 34 43 29
52 51 50 49 42 36 37 35 31 31 34 42 40 41 39 40 43 46 46 47 44 44 46 48 49 55 57 58 64 64 66 69 58 55 41 31 29 26 22 17 19 23 38 53 36
58 56 53 54 43 44 47 44 38 33 31 36 38 39 37 41 40 39 40 42 42 47 46 46 51 54 56 58 62 61 69 68 57 51 35 26 27 24 4 33 23 26 41 51 44
63 63 59 56 52 48 48 48 41 40 37 31 34 39 39 38 39 40 39 40 45 43 43 47 52 53 55 56 58 62 67 64 55 44 31 26 23 18 14 31 34 37 44 55 51
66 66 63 59 60 57 56 51 52 42 41 34 32 33 38 38 36 35 37 41 40 39 43 46 49 51 54 55 54 62 64 57 49 37 27 17 13 11 12 25 40 42 47 54 60
72 67 67 64 61 62 61 56 57 49 49 38 41 34 43 41 36 37 40 39 36 40 43 45 47 51 52 53 52 61 62 52 43 29 18 5 9 6 11 21 31 42 46 59 59
73 74 70 68 65 65 67 67 66 63 57 46 44 46 40 46 39 34 34 32 36 41 44 43 44 48 50 49 53 58 59 45 36 21 9 15 15 21 7 11 25 30 41 61 60
79 75 75 71 68 66 68 65 73 70 68 56 48 46 47 44 40 37 33 33 37 39 39 41 43 45 44 47 51 54 55 39 26 13 7 26 19 25 27 15 23 31 37 52 64
82 81 79 76 71 68 70 64 66 68 70 68 58 52 49 44 43 37 34 37 38 38 39 41 41 37 40 45 47 51 50 35 25 10 4 12 24 26 20 22 26 33 40 42 49
88 85 78 78 76 74 72 70 70 68 66 64 61 55 55 46 44 39 39 40 37 37 39 41 34 35 38 43 46 48 44 32 26 7 2 6 11 21 15 22 31 31 39 46 39
93 93 87 84 80 77 75 79 76 73 72 70 56 58 54 50 45 38 40 39 35 38 39 34 30 34 38 40 44 43 43 26 21 9 8 7 11 20 19 26 35 39 45 41 40
102 101 97 93 91 86 81 78 79 75 72 69 68 58 54 44 46 41 38 37 37 38 37 31 28 33 37 39 42 41 42 26 17 11 11 14 14 13 12 14 27 37 41 40 41
106 106 104 103 98 93 89 88 79 78 72 67 61 58 58 44 43 44 36 38 39 36 32 28 27 33 36 37 41 40 41 29 17 12 13 16 15 12 13 8 11 15 22 33 39
108 111 109 104 102 100 95 95 89 82 77 69 67 57 57 46 40 45 39 37 37 35 29 28 28 33 32 36 40 36 38 30 18 13 14 11 13 19 14 13 10 9 12 22 36
101 105 105 107 99 92 97 97 92 89 82 75 65 60 62 51 49 44 43 37 38 31 29 27 29 32 33 35 38 31 31 36 15 12 16 13 13 11 10 7 6 7 7 12 35
96 97 96 95 91 93 92 98 97 95 85 78 66 65 62 54 46 49 44 40 35 31 32 29 29 32 33 34 34 29 31 33 24 13 14 17 15 10 10 9 9 10 12 13 16
89 89 95 98 98 95 93 97 99 95 85 79 70 65 63 55 49 48 46 43 37 37 36 31 29 34 32 34 31 27 28 33 31 15 13 17 18 15 13 15 15 13 17 18 20
88 87 86 90 100 101 98 99 95 82 83 76 68 67 65 57 52 51 48 46 42 38 42 35 31 36 33 35 29 27 30 30 32 20 16 14 21 21 19 16 16 17 19 19 21
86 84 83 87 93 99 104 103 82 79 82 75 68 65 64 61 54 53 50 47 46 46 46 39 33 37 35 35 30 26 28 28 28 28 19 15 15 23 24 21 20 21 21 23 25
86 83 81 87 94 97 99 87 81 79 78 74 67 65 63 60 59 54 56 50 47 50 51 40 35 40 37 35 31 24 27 27 26 27 28 16 13 17 28 25 25 25 26 28 29
83 82 85 87 97 97 86 69 81 81 78 72 71 68 64 61 61 59 54 53 52 55 51 43 38 42 41 36 31 25 27 28 28 28 32 22 16 17 22 28 30 30 29 29 29
82 79 87 90 93 86 70 67 79 83 81 75 73 68 65 65 62 61 56 58 60 61 52 43 41 38 42 37 32 27 27 30 30 30 31 26 26 16 15 25 31 32 30 32 34
76 77 87 90 81 77 64 69 77 84 79 76 76 71 68 69 67 61 60 56 63 61 51 45 42 43 44 41 34 27 30 31 31 31 32 29 31 29 17 19 30 34 36 36 37
73 72 79 75 78 75 69 71 77 80 78 77 75 73 71 74 73 66 64 57 58 59 55 48 48 48 47 42 33 29 33 33 31 32 33 32 33 33 22 19 21 30 37 40 41
67 63 63 62 70 76 70 72 76 78 80 78 77 74 72 75 78 75 66 64 59 57 58 52 50 53 50 41 32 33 37 36 33 33 33 34 35 35 26 18 19 23 32 42 45
53 54 57 61 72 73 71 73 80 81 82 77 76 79 77 74 79 79 74 73 70 65 65 57 52 53 50 43 34 35 39 38 35 35 33 36 37 34 34 27 24 26 31 32 38
44 56 59 62 69 62 68 75 81 83 82 82 86 82 78 78 78 79 76 75 70 72 66 60 55 54 48 46 38 34 43 39 39 37 35 35 39 37 39 35 30 28 28 34 36

GFSSW_250_spd_066.txt.gz
Wind_Speed
59 61 54 47 42 46 43 40 40 37 34 33 38 36 41 46 44 40 35 35 40 45 42 38 45 43 44 48 54 56 57 58 59 59 55 51 36 15 10 7 12 10 30 40 38
61 58 57 54 56 47 45 44 41 38 36 32 32 31 31 34 38 38 37 38 39 38 39 40 42 40 45 50 51 52 56 55 60 60 55 49 33 21 23 23 24 14 10 42 36
63 61 59 59 59 56 53 51 49 45 43 41 45 40 31 25 25 35 39 38 39 39 37 41 41 37 47 47 51 51 54 55 59 62 53 44 27 12 18 21 9 12 18 39 42
67 64 62 63 63 62 62 58 53 49 47 47 47 40 35 35 32 30 32 37 37 35 36 41 34 42 46 48 47 53 52 57 60 57 49 33 16 5 19 11 5 17 24 20 46
71 70 68 64 66 66 61 61 59 58 52 49 50 49 46 39 41 32 31 33 37 36 39 38 35 42 46 44 46 51 50 56 62 53 36 12 14 34 28 30 21 28 42 36 48
73 71 68 70 66 67 66 64 62 58 56 57 55 53 49 44 43 43 41 38 36 37 34 29 38 42 43 43 47 47 49 54 59 48 30 13 33 32 40 23 58 35 41 54 49
68 73 71 69 69 63 67 66 66 64 60 59 63 57 54 62 52 47 47 44 34 35 31 31 40 41 40 44 45 43 48 51 54 39 14 9 22 3 10 19 30 34 30 33 57
73 74 76 72 70 73 68 68 65 68 63 60 58 61 61 65 56 58 56 50 44 32 30 36 41 39 41 44 40 42 45 48 54 34 9 4 14 8 5 7 26 34 24 33 57
79 82 79 75 77 75 77 71 72 67 66 62 60 52 53 60 56 58 56 58 52 39 32 39 41 37 39 43 35 41 45 50 51 36 16 11 15 4 7 16 24 30 29 31 60
80 78 77 78 78 77 77 75 73 74 69 64 60 54 55 54 57 54 53 52 50 40 33 39 38 38 41 38 35 39 42 49 45 30 15 12 12 14 9 14 29 25 28 32 42
88 85 84 85 79 79 81 80 80 74 68 71 64 62 57 60 56 46 45 47 49 48 43 39 39 37 39 33 32 39 42 46 42 25 16 15 16 25 19 29 25 25 26 29 41
99 101 96 97 90 85 86 86 89 82 72 68 66 61 67 59 56 52 45 47 38 41 41 36 38 38 35 30 34 37 38 43 40 30 14 17 20 23 20 22 26 24 29 24 32
103 103 104 98 99 98 95 95 94 88 84 73 72 64 69 59 54 50 44 47 38 39 37 37 40 36 31 28 34 35 38 37 34 33 18 15 18 24 17 12 9 13 28 30 25
106 105 104 101 99 100 100 104 99 96 92 79 82 72 69 64 55 59 49 45 38 39 39 37 37 37 28 30 32 35 37 34 33 32 19 16 15 15 16 15 11 12 10 18 30
108 108 105 105 107 106 108 107 105 104 103 91 83 78 76 67 64 61 53 45 38 41 36 39 39 33 26 29 33 33 35 35 33 33 20 16 15 13 12 16 18 11 7 8 16
103 106 104 102 107 108 110 107 109 109 99 96 88 83 79 75 73 67 54 47 45 40 37 41 37 34 27 29 34 32 33 33 29 28 25 18 15 11 13 12 12 11 10 9 11
96 97 94 91 91 99 99 100 105 104 87 90 88 86 84 81 77 70 61 50 44 42 43 42 38 33 29 28 34 32 34 32 24 25 25 22 15 15 17 16 18 17 13 16 16
90 89 87 86 90 95 95 96 98 81 81 80 82 80 80 80 76 73 64 53 43 45 47 43 38 36 35 31 33 34 35 30 23 26 27 27 18 11 17 19 21 22 22 21 18
84 83 83 85 89 92 92 93 82 67 77 80 76 75 79 79 74 72 66 52 48 49 46 46 41 40 38 32 34 32 34 30 21 21 24 29 23 19 16 20 24 23 19 18 21
78 77 77 82 85 89 90 81 64 66 78 81 75 73 77 78 76 74 66 55 53 51 50 47 50 40 40 35 35 34 36 31 24 22 22 25 19 19 19 22 20 24 26 27 26
75 73 76 80 82 80 79 64 60 66 73 82 78 74 75 77 76 72 65 59 55 51 54 52 51 46 44 41 37 38 38 33 27 22 20 23 26 24 22 18 23 22 28 30 31
73 72 76 79 74 71 68 68 66 70 75 79 80 80 74 77 77 71 62 59 58 55 56 53 51 49 45 46 36 41 39 35 30 24 20 22 24 25 25 20 18 21 26 28 30
68 69 72 75 63 63 67 70 65 74 80 75 76 80 77 76 75 69 62 65 63 59 52 58 56 52 47 42 35 41 39 40 32 26 26 23 27 27 27 27 19 20 20 26 33
71 69 67 62 55 59 64 66 64 72 78 76 75 79 82 80 73 67 66 67 67 57 56 61 61 51 47 49 44 41 43 42 34 31 32 28 28 31 27 28 27 23 27 30 30
70 58 60 57 52 54 62 63 61 71 76 80 75 74 78 80 74 69 69 65 68 63 59 59 56 57 53 48 43 44 45 45 36 32 34 30 30 33 32 29 31 33 27 26 31
65 56 57 53 61 60 59 53 62 75 78 79 76 72 78 83 75 76 74 67 70 66 62 63 55 59 60 52 46 45 48 44 39 36 36 34 34 35 35 34 35 36 30 28 32
58 59 53 54 56 58 57 56 65 75 77 79 77 79 79 81 82 76 69 67 73 68 66 61 61 60 50 54 54 48 48 46 41 39 37 37 37 36 35 35 36 37 32 33 32

GFSSW_250_spd_069.txt.gz
Wind_Speed
62 64 62 59 57 56 57 55 49 44 44 44 41 32 31 31 28 34 35 37 35 37 40 42 40 35 39 40 36 39 45 49 48 52 53 53 48 30 22 21 41 36 32 37 35
63 63 66 65 62 59 56 59 56 53 47 44 41 38 36 33 30 31 32 30 32 37 40 40 36 37 36 35 37 41 46 46 50 50 52 52 41 20 22 23 34 46 43 45 46
72 68 66 67 64 63 61 58 57 53 51 50 48 48 45 42 35 30 32 37 31 30 34 36 36 36 37 35 34 41 44 47 52 49 50 48 30 17 22 27 38 37 44 45 49
74 75 68 64 64 64 67 63 58 57 57 56 55 54 49 44 46 43 41 42 39 35 34 35 34 36 39 32 33 41 41 47 48 49 49 32 12 20 27 7 2 13 13 17 30
70 71 72 74 72 68 68 68 64 61 60 60 57 58 52 48 55 44 46 40 39 38 36 38 35 35 33 32 37 39 42 47 45 48 47 19 9 35 13 12 4 13 19 11 19
73 74 73 75 75 68 67 67 69 66 65 63 59 56 53 55 55 51 52 50 49 47 44 37 40 32 35 31 39 39 41 43 42 45 45 15 10 29 18 6 10 15 23 33 26
79 80 73 69 71 69 68 68 70 72 70 67 63 60 54 61 54 53 57 55 51 47 49 47 49 42 33 34 39 38 42 40 41 46 45 21 21 33 20 12 12 10 18 26 25
87 81 74 75 71 72 67 65 69 68 70 66 60 57 54 64 57 51 50 56 54 43 47 47 46 43 35 37 38 37 39 38 39 46 46 23 21 31 15 12 16 5 21 25 32
86 84 77 77 76 75 76 68 72 69 69 68 66 58 58 61 59 54 48 44 44 45 45 46 47 45 39 39 38 38 37 35 43 44 41 25 17 36 21 12 12 14 19 34 29
84 87 86 77 79 83 80 81 77 76 71 72 67 64 57 56 58 56 49 44 43 45 48 44 40 43 42 42 37 34 32 34 35 43 39 25 22 11 24 22 15 13 19 32 29
84 84 88 87 87 78 82 84 87 82 69 66 67 70 61 59 58 60 54 46 46 49 45 39 32 44 43 39 33 33 29 37 36 41 41 30 19 21 17 27 14 20 19 28 41
95 87 88 88 84 86 87 79 84 82 75 72 69 68 69 63 56 59 60 51 50 48 41 36 34 39 41 36 33 33 32 35 36 38 38 33 18 19 17 12 24 23 22 32 29
91 91 89 88 88 91 90 93 95 86 81 73 75 71 74 72 57 61 60 58 54 47 43 37 40 33 38 31 29 30 30 35 34 38 34 30 24 14 14 13 20 25 19 20 28
100 97 98 94 97 99 99 102 102 100 96 84 88 75 75 74 67 69 63 60 57 49 43 37 37 30 33 30 32 28 30 35 33 35 35 31 23 10 9 12 9 14 10 8 18
106 105 104 104 104 105 109 106 107 108 104 92 91 84 83 79 72 76 76 66 58 55 48 41 37 31 29 32 31 27 28 34 28 33 33 27 26 17 11 10 7 11 13 8 12
110 112 112 108 109 116 112 112 115 116 100 92 90 85 87 88 84 78 78 72 70 60 48 43 39 30 33 32 30 26 28 33 33 31 32 27 28 19 11 10 12 8 10 8 8
107 109 108 109 115 112 112 113 116 111 93 89 88 85 87 85 86 87 82 77 72 67 58 53 43 35 37 36 33 29 27 31 34 30 32 28 24 22 14 10 14 17 13 14 12
94 97 97 96 105 102 103 104 104 88 82 84 90 87 87 83 83 84 85 81 75 70 65 56 43 40 44 38 36 28 30 30 32 29 32 27 21 23 22 16 15 16 18 19 18
90 90 89 90 95 91 90 90 86 75 75 83 91 87 88 83 80 82 80 78 77 76 70 63 49 50 44 41 37 30 34 31 31 32 32 27 20 21 23 22 15 14 19 18 20
87 86 85 88 86 83 77 77 83 74 70 82 90 76 75 75 74 75 77 70 70 73 70 63 53 52 47 46 42 30 33 33 34 32 32 27 21 20 22 21 20 17 19 22 19
82 79 79 82 78 72 66 72 75 65 69 78 80 76 73 72 71 72 69 69 70 69 69 65 54 51 51 42 43 34 36 34 35 33 32 28 22 18 23 26 21 23 20 21 25
75 69 72 75 68 62 54 64 68 57 64 75 76 73 69 68 67 73 68 68 69 66 63 59 55 52 53 43 44 44 34 37 35 35 31 29 24 18 19 25 26 20 22 21 24
71 68 69 70 55 50 54 58 58 49 60 71 70 71 71 68 68 69 64 68 67 64 61 62 55 58 55 48 43 45 38 37 38 36 31 31 25 25 20 24 24 24 24 27 22
72 67 63 56 50 49 55 55 51 45 56 69 69 67 72 69 64 69 66 66 64 61 64 66 62 59 53 50 45 44 44 39 34 36 34 36 30 26 26 25 27 27 27 25 26
71 58 57 48 45 54 54 52 49 49 55 67 68 65 65 67 64 69 72 71 66 65 64 63 60 59 53 52 51 48 44 41 36 42 38 39 37 29 32 28 29 29 30 30 31
63 51 53 50 51 54 53 49 47 51 55 64 68 66 66 67 65 70 78 76 70 67 64 64 62 63 57 55 53 50 46 43 40 41 41 40 38 32 36 31 32 32 32 33 33
56 48 46 41 46 50 45 50 54 47 53 61 70 70 67 67 71 70 78 78 73 66 60 63 64 67 62 57 59 50 44 44 45 43 46 43 42 35 35 34 35 34 33 36 36

GFSSW_250_spd_072.txt.gz
Wind_Speed
69 66 65 64 60 58 59 60 59 59 56 51 50 50 42 42 36 31 30 30 29 33 37 35 32 35 38 37 37 39 41 37 38 42 45 51 54 54 49 44 33 32 41 40 45
69 69 70 66 63 63 65 66 65 63 61 56 52 50 46 43 41 36 37 36 34 28 37 31 30 31 34 37 36 39 43 37 39 41 48 47 53 52 42 38 28 38 43 45 46
70 70 72 68 69 67 66 64 65 64 64 59 58 53 51 47 47 46 44 46 41 39 42 44 40 33 32 34 35 40 37 38 39 43 45 44 55 47 36 32 29 41 43 43 39
67 64 68 67 70 71 68 70 68 69 65 59 58 58 51 50 53 52 52 48 48 46 45 48 38 32 32 36 36 37 35 39 42 42 42 42 52 41 25 19 29 36 56 45 38
70 66 66 72 74 71 74 71 70 66 62 61 58 58 59 54 60 47 53 52 50 50 51 50 52 39 39 40 42 39 35 38 41 40 38 43 49 37 19 27 36 26 32 31 27
65 67 66 69 73 76 76 74 73 70 67 68 63 60 59 63 60 54 53 53 51 54 52 53 53 41 40 43 41 35 36 39 41 41 36 44 46 36 22 33 35 33 26 40 26
72 66 72 67 66 68 69 70 68 67 69 68 64 54 55 66 62 62 59 56 52 51 51 53 53 37 38 42 39 39 38 40 42 37 38 41 45 25 33 36 33 40 41 40 31
74 70 76 80 79 77 75 75 75 72 68 62 60 58 59 64 59 59 52 56 54 51 49 49 47 35 35 38 38 41 41 41 40 32 37 40 42 33 32 44 34 32 26 36 26
78 76 75 80 75 78 74 77 78 72 70 63 62 61 59 62 59 60 56 56 53 52 47 46 49 37 36 40 40 37 40 37 33 32 35 41 45 36 29 34 36 23 23 26 34
82 81 85 87 83 83 84 85 84 80 73 65 61 60 57 63 61 61 59 56 52 53 48 45 39 40 39 37 34 37 35 32 33 32 34 40 44 37 24 35 41 34 28 31 35
82 86 89 88 88 84 88 90 86 80 74 66 62 63 66 64 61 60 62 57 48 45 47 46 41 44 37 36 28 33 30 30 28 31 35 37 43 37 24 26 27 32 34 24 24
86 91 93 95 92 93 94 96 86 81 73 70 67 61 73 72 66 64 61 63 57 52 50 44 46 46 38 36 34 28 28 27 26 27 33 37 39 37 25 24 25 22 21 22 26
89 92 97 97 93 89 89 91 92 91 81 78 74 67 70 71 61 61 64 63 59 53 49 45 52 45 39 38 34 26 25 28 24 28 34 34 37 33 24 21 23 22 25 23 25
92 93 95 98 99 96 90 88 91 88 88 69 73 70 70 73 60 65 63 68 63 61 58 46 54 50 43 38 35 28 24 27 23 26 32 34 34 33 27 16 19 13 17 14 17
96 97 98 96 97 100 98 95 94 91 93 79 72 74 75 76 73 74 76 69 68 67 64 52 54 49 43 40 37 34 25 26 24 23 28 34 31 28 25 17 15 10 14 16 15
98 100 99 98 101 106 101 100 100 102 92 83 78 79 82 85 85 83 84 81 78 76 65 59 63 51 45 46 39 37 26 27 24 23 23 31 28 26 22 19 15 12 14 14 14
99 100 101 98 108 107 104 104 107 100 91 89 91 90 92 92 93 93 90 89 78 79 72 67 65 63 58 44 41 37 31 29 27 24 23 28 25 25 19 22 13 13 15 16 18
99 100 100 99 105 107 109 111 107 99 103 102 102 101 99 99 96 99 95 90 77 76 75 71 68 65 59 54 46 42 35 32 29 26 25 27 24 25 18 18 19 13 12 16 17
90 90 92 96 100 99 101 98 94 102 102 104 105 107 104 105 102 105 97 92 86 76 74 74 69 71 65 59 54 46 37 40 32 25 27 28 25 23 18 15 16 17 13 14 17
85 86 85 90 90 88 85 79 84 91 91 81 85 94 91 96 96 98 92 87 83 75 74 71 70 70 70 65 57 47 44 39 34 29 25 28 27 21 21 14 16 16 15 11 10
80 82 78 85 87 79 72 76 79 84 83 72 76 85 78 81 82 84 77 77 71 72 73 72 67 69 70 66 58 51 48 44 40 31 27 28 27 22 19 18 16 18 12 12 16
78 74 71 77 77 66 63 69 74 78 74 62 67 74 73 71 76 74 68 68 70 71 67 69 67 66 63 65 61 55 51 50 42 41 29 30 30 27 19 21 18 20 20 18 17
75 70 67 71 59 60 63 69 69 70 66 59 63 68 72 65 69 64 63 66 65 64 59 65 62 63 64 61 56 52 52 49 44 42 31 30 33 30 22 22 21 20 22 21 22
73 67 59 58 56 58 56 62 61 63 58 58 60 65 65 62 63 65 59 63 65 61 60 61 60 60 55 56 59 59 58 54 47 43 34 31 31 28 27 25 25 22 23 21 21
72 58 53 53 53 58 60 60 58 59 55 58 57 63 63 58 60 62 60 61 60 64 63 60 57 59 57 59 62 59 58 57 48 43 41 36 31 30 32 30 25 25 24 24 22
65 52 52 53 56 56 54 50 53 54 50 54 56 58 57 55 57 62 62 62 61 64 66 64 56 59 58 61 64 62 58 59 56 41 42 36 31 34 35 33 27 29 25 27 26
57 51 49 49 53 51 43 50 51 52 49 53 55 49 53 55 62 64 66 65 63 66 68 65 64 62 58 62 65 60 59 59 55 48 43 37 40 36 36 36 35 31 30 31 29

GFSSW_250_spd_075.txt.gz
Wind_Speed
74 72 73 70 76 73 71 66 65 61 57 54 56 55 55 53 50 49 51 47 38 36 39 33 34 38 41 38 41 45 41 36 40 42 43 44 43 47 49 56 55 53 38 31 32
73 76 76 73 73 76 76 72 67 62 60 58 58 61 59 57 55 52 52 52 42 41 39 41 41 44 51 45 40 39 36 36 37 39 40 43 43 46 51 55 52 44 31 26 28
78 71 79 78 75 71 74 72 69 65 63 64 59 60 57 58 58 55 53 53 50 47 46 44 44 47 50 53 45 47 37 39 39 40 40 41 43 43 51 54 48 40 37 26 30
85 78 72 81 77 72 65 73 67 69 66 65 60 59 58 55 59 57 51 55 54 52 50 48 48 47 52 55 53 49 45 37 38 39 41 40 42 42 49 54 47 44 43 31 32
87 84 82 77 79 72 71 71 62 64 64 66 62 58 59 58 62 49 54 53 56 55 51 49 49 48 53 54 54 44 41 38 36 40 39 41 39 41 46 47 42 40 37 34 34
94 89 82 79 81 77 78 71 67 63 65 65 62 61 62 61 61 58 55 58 54 56 56 54 52 49 51 51 50 42 40 36 36 38 36 37 34 40 43 46 37 38 28 31 31
97 95 87 77 79 79 76 71 73 63 62 63 65 64 64 69 62 62 59 56 54 54 56 55 53 51 51 48 48 40 35 34 35 37 38 33 31 38 45 47 39 31 37 31 32
103 99 91 79 77 75 82 74 63 63 66 63 60 56 55 62 59 60 57 56 52 53 54 54 49 50 49 44 47 42 40 35 33 39 33 30 30 37 43 45 38 28 30 37 40
103 104 98 81 77 74 76 82 69 68 67 65 65 60 57 59 54 54 54 58 55 55 54 52 50 49 46 47 46 40 42 36 32 37 35 26 31 35 40 45 38 27 29 35 30
98 97 93 80 77 78 76 76 77 70 64 70 62 60 59 62 59 57 55 55 56 54 52 50 47 43 47 46 40 38 38 33 31 37 29 28 32 35 39 43 40 28 24 29 36
100 94 85 76 76 78 78 76 74 77 70 73 70 64 68 64 65 60 55 56 54 52 53 53 49 46 49 39 39 42 37 30 32 34 31 26 32 32 40 43 42 28 23 28 32
92 86 79 75 79 80 79 78 81 82 79 76 76 66 72 73 63 66 60 59 64 61 56 48 44 57 52 43 39 39 35 36 31 30 29 24 28 32 39 42 40 26 22 30 29
84 79 75 76 81 82 80 81 82 86 85 83 77 71 70 72 65 67 62 60 63 66 61 58 56 54 50 43 39 41 37 39 31 27 29 24 27 30 38 43 38 26 24 26 22
78 75 75 77 83 86 85 84 83 84 87 79 84 82 77 79 68 73 70 67 61 59 63 57 57 52 49 45 44 41 43 38 33 28 29 25 26 30 35 39 34 21 19 18 13
78 77 78 80 84 86 86 87 88 88 90 79 80 79 82 85 79 75 78 73 63 63 64 55 55 54 51 53 45 44 43 38 33 29 28 23 24 26 33 36 32 19 17 13 12
80 81 82 81 87 88 86 91 89 90 86 86 81 79 81 81 84 83 81 77 71 72 67 62 62 57 56 56 49 52 46 39 35 30 27 23 22 21 31 34 33 21 12 11 9
81 82 83 86 93 90 91 92 93 90 85 84 88 92 92 86 85 83 81 77 72 72 67 66 64 66 68 61 54 54 54 38 35 31 30 23 22 23 27 29 29 24 18 12 13
81 81 84 87 88 91 92 92 87 86 87 89 94 93 89 90 89 87 90 85 79 77 77 75 71 67 64 67 67 61 56 48 37 33 28 24 24 21 26 25 27 24 21 11 10
83 82 80 85 86 87 88 84 82 87 91 97 99 97 98 96 93 93 91 86 84 80 80 80 76 78 74 73 74 70 58 54 46 34 30 26 26 22 23 25 20 20 22 21 11
82 81 78 83 83 85 79 71 78 82 91 93 99 96 96 100 97 95 93 91 88 87 89 86 83 82 81 81 72 61 63 59 47 39 37 33 30 23 23 26 20 19 17 18 19
75 74 71 79 81 80 70 71 75 78 84 89 84 90 88 91 94 96 98 98 99 98 99 94 88 87 90 81 74 66 63 62 55 45 42 40 31 25 23 28 22 21 17 15 17
72 67 64 75 76 68 63 69 72 77 81 78 74 79 82 79 78 77 75 81 89 91 92 91 91 90 88 82 78 69 66 61 56 49 46 42 36 28 25 28 28 21 19 15 18
73 69 68 75 65 58 61 62 67 73 76 74 67 71 82 75 67 69 68 74 75 76 75 78 70 72 73 65 62 63 63 62 56 52 48 37 43 41 28 28 27 24 19 19 19
67 65 59 60 54 57 58 62 64 68 68 66 63 67 73 69 60 63 66 70 70 69 69 72 64 58 55 57 58 61 61 59 57 53 49 40 49 47 33 28 31 27 25 22 19
62 56 52 49 52 59 60 61 60 62 65 63 61 62 68 61 52 58 63 62 63 66 66 63 56 54 53 63 66 63 64 61 58 53 50 48 48 46 39 30 29 31 29 27 22
54 51 49 51 56 55 54 54 56 60 62 60 63 61 57 54 48 53 57 57 58 61 63 58 54 53 53 61 64 63 59 57 54 52 53 52 50 46 46 37 29 34 34 31 28
49 49 49 50 56 54 49 53 53 55 58 57 58 52 52 55 46 50 52 54 59 61 57 54 53 54 55 59 61 58 53 57 55 56 57 51 53 53 45 34 32 37 34 33 30

GFSSW_250_spd_078.txt.gz
Wind_Speed
70 73 73 74 73 68 69 68 64 68 65 72 69 65 55 57 55 52 54 54 53 52 51 49 46 43 41 42 43 46 48 45 43 39 42 46 42 42 44 49 48 51 52 39 27
77 79 77 75 79 78 76 73 70 68 65 68 72 68 64 58 55 53 56 56 56 54 54 52 47 48 45 45 44 47 52 51 46 42 40 40 37 41 44 45 45 51 51 37 24
83 77 79 79 78 80 81 79 71 68 66 68 68 67 65 62 60 58 55 56 56 55 52 50 51 51 49 46 47 48 52 51 44 42 36 38 38 39 41 42 43 49 49 41 35
88 82 80 84 83 82 84 83 77 70 68 66 68 64 65 62 63 60 54 52 56 55 55 52 49 49 50 49 46 49 49 47 47 41 36 33 35 37 38 39 41 46 48 39 35
83 86 86 84 84 87 85 85 84 72 67 66 67 68 68 63 67 60 60 55 55 57 54 50 50 48 54 53 51 52 51 47 43 40 31 32 32 36 36 38 42 45 45 38 28
85 85 92 90 87 89 89 91 85 82 71 68 65 64 57 62 62 57 60 59 58 56 55 56 54 49 52 54 50 50 48 45 42 38 36 33 33 35 34 37 43 46 43 38 21
98 95 88 87 90 93 95 92 93 87 83 67 69 71 66 60 58 56 56 55 60 60 59 54 46 46 47 49 49 49 44 42 40 40 34 31 33 34 34 33 40 45 44 40 23
100 96 98 93 90 92 95 99 95 89 81 72 69 70 62 63 57 58 52 57 57 57 56 49 43 45 48 53 49 45 41 41 35 35 33 27 30 32 32 32 40 42 43 39 26
100 104 100 95 93 93 92 95 92 85 75 65 66 66 59 58 55 55 55 55 54 55 51 46 43 46 49 52 48 42 37 41 37 36 32 24 30 28 31 30 39 41 45 40 24
107 99 103 101 96 93 93 91 91 82 76 65 61 65 59 59 60 57 61 56 55 50 50 46 46 46 53 49 45 43 36 41 35 34 28 25 29 29 31 30 38 41 45 37 27
98 98 95 89 89 84 87 83 82 79 68 62 60 65 65 63 68 62 62 61 55 53 52 50 41 43 55 48 45 45 36 38 40 31 27 27 28 29 30 31 34 40 42 34 27
91 88 82 77 78 78 74 73 74 69 59 59 63 66 64 71 66 67 64 63 56 58 56 52 46 57 53 53 46 41 40 46 41 36 31 30 28 30 28 32 34 40 42 32 26
87 83 79 75 74 70 70 67 65 61 56 64 67 68 71 71 64 67 67 68 65 62 61 58 53 56 56 53 49 48 45 44 38 34 32 30 27 28 27 31 31 38 41 31 26
80 74 72 69 67 68 64 65 61 61 61 67 73 71 73 74 68 75 70 72 70 63 63 56 55 55 55 54 55 51 50 43 40 36 36 33 27 27 25 27 28 36 37 30 23
79 75 70 67 67 66 63 62 61 63 62 71 72 72 77 74 74 80 76 77 68 66 64 58 61 59 57 56 53 50 48 43 40 33 34 36 24 26 24 23 27 31 37 30 21
76 72 70 67 68 62 63 63 62 66 65 70 73 76 80 83 81 80 78 79 75 75 69 65 66 65 59 60 55 55 48 46 42 37 29 35 27 28 24 24 25 28 34 31 21
76 71 68 66 69 63 67 65 67 64 69 68 70 82 81 84 83 80 82 80 77 76 75 75 73 70 64 61 58 58 54 50 44 32 35 35 27 27 23 24 23 23 29 28 21
76 74 70 68 69 67 67 65 62 66 68 73 73 76 86 85 87 82 78 78 80 79 77 76 72 69 65 65 63 63 59 52 49 48 41 34 25 30 24 24 22 21 23 27 20
73 70 71 71 73 72 69 58 62 61 68 70 75 84 83 88 88 87 84 81 80 79 77 76 73 70 68 68 67 62 57 57 55 48 42 37 35 34 25 26 24 22 20 24 20
71 68 67 72 73 76 68 55 57 58 62 78 84 81 82 84 87 88 86 85 83 84 84 79 77 76 76 76 75 72 69 67 62 55 52 44 40 39 28 29 26 23 23 20 19
69 68 63 68 73 70 59 58 58 60 66 69 78 83 81 79 79 83 87 90 88 85 81 81 80 80 81 78 80 78 74 70 64 59 54 40 39 43 35 33 29 26 24 26 20
69 64 62 68 67 54 51 56 62 63 65 68 73 77 75 71 69 74 84 90 88 87 88 87 85 81 83 84 81 78 73 73 70 66 57 41 41 51 40 39 31 30 27 23 20
62 59 60 67 56 47 47 54 59 61 69 70 72 75 74 70 67 71 78 81 79 83 90 91 89 90 88 87 82 80 78 76 74 72 60 45 45 53 43 44 39 32 32 24 20
56 52 53 55 49 49 50 54 56 62 67 66 67 70 66 68 65 66 68 73 70 71 75 82 82 81 84 91 92 90 87 82 81 74 61 49 51 57 45 46 41 36 35 30 24
50 44 47 42 49 54 56 58 58 63 63 64 59 57 60 62 63 63 63 62 59 58 64 68 65 67 70 78 77 74 72 72 69 63 56 49 55 60 51 49 47 40 32 34 25
46 45 47 45 53 55 52 52 59 62 61 64 59 61 59 59 60 52 51 53 54 56 60 62 55 59 59 65 67 65 60 54 55 55 49 50 56 61 56 50 48 48 38 35 32
43 45 47 48 51 46 48 57 58 58 59 58 58 58 60 61 52 47 49 53 51 52 58 55 57 62 59 63 65 55 48 55 54 50 48 52 60 62 57 52 52 51 45 36 36

GFSSW_250_spd_081.txt.gz
Wind_Speed
66 67 68 65 66 68 67 68 73 71 65 66 67 63 66 65 60 56 63 62 56 54 50 49 51 51 48 45 39 42 47 47 46 45 48 45 42 42 37 40 44 40 38 42 43
72 75 74 74 73 74 77 81 77 72 70 73 67 68 63 61 62 56 56 62 64 56 53 50 52 53 49 47 42 43 48 45 46 45 47 46 43 41 36 42 40 36 37 42 42
77 75 78 78 75 76 76 76 75 70 71 74 76 66 64 66 65 63 53 60 65 62 53 53 50 47 46 45 45 44 46 43 45 43 48 46 42 37 33 37 37 34 35 41 40
85 84 82 81 78 77 73 71 70 72 72 72 72 76 70 61 67 61 55 56 64 63 55 51 50 47 45 44 43 46 48 45 42 44 44 42 42 35 35 36 37 34 34 38 38
79 79 78 74 73 76 77 76 76 75 73 74 74 71 76 75 64 67 61 57 63 64 59 53 54 49 46 45 44 48 49 46 41 43 37 38 37 39 37 34 35 33 34 39 38
80 77 81 83 81 81 82 80 84 83 81 80 75 70 75 72 70 70 60 62 59 67 62 57 51 46 46 46 45 47 45 44 41 41 33 35 37 35 34 31 31 32 32 37 38
84 84 90 85 91 91 91 89 88 91 89 87 84 81 66 75 67 66 60 59 60 56 57 55 49 43 45 49 49 45 41 42 42 38 30 34 33 33 32 26 30 30 32 36 38
96 98 99 99 100 97 94 94 92 92 95 91 88 87 76 75 73 62 60 57 60 56 54 48 45 42 46 49 48 44 39 42 39 33 27 34 36 30 30 27 30 30 33 37 36
102 103 105 105 104 106 99 100 100 104 98 95 93 83 72 72 69 60 60 59 60 58 54 47 40 41 45 46 45 41 40 40 39 27 29 29 39 26 29 29 33 31 33 36 34
105 106 100 109 113 108 97 104 96 103 103 93 82 83 77 70 67 57 58 56 62 59 51 46 39 43 44 47 44 42 41 39 40 26 22 26 36 31 30 30 33 32 32 36 35
108 111 109 105 113 103 100 93 92 89 83 77 70 70 72 69 63 58 60 56 59 62 51 47 44 40 54 46 40 42 35 37 40 30 27 31 35 33 29 31 33 33 31 36 34
104 110 111 108 103 101 90 93 89 74 69 67 63 62 67 66 57 61 64 60 55 59 56 48 40 54 53 47 42 39 35 41 45 36 28 34 36 33 29 30 33 32 30 34 35
108 106 99 101 98 91 84 83 79 71 66 64 60 57 58 56 57 64 65 69 63 53 59 55 52 57 51 48 44 45 39 47 39 33 36 33 35 34 29 30 30 27 30 33 36
105 101 95 92 86 84 75 72 66 64 59 58 57 50 52 53 60 67 65 68 67 65 64 65 58 59 54 52 51 46 52 44 37 34 35 31 33 34 30 29 29 25 27 32 34
100 93 88 80 80 75 67 64 60 56 48 54 51 50 53 58 61 68 69 68 63 70 65 64 64 64 56 56 53 53 47 45 38 36 33 35 26 35 27 29 29 25 25 27 32
88 87 81 76 78 71 67 62 57 55 45 47 49 52 53 61 64 65 67 71 73 69 65 65 64 65 61 58 51 53 51 45 41 43 35 40 23 39 28 31 30 25 23 24 28
83 82 77 74 73 67 65 59 55 50 49 50 50 54 57 60 65 67 71 72 76 77 69 70 68 68 65 57 57 55 56 52 49 47 36 36 22 34 26 30 29 25 21 23 24
80 76 71 69 69 66 65 59 50 48 51 52 52 55 61 62 70 71 74 75 82 75 72 71 70 71 68 65 66 64 62 56 52 50 42 34 30 44 31 32 29 25 21 22 19
73 70 66 66 66 65 64 54 50 52 50 50 51 55 64 70 71 72 71 78 78 80 82 75 66 69 67 65 66 64 60 63 54 49 43 38 31 42 38 31 33 29 25 21 17
68 65 62 64 64 64 59 49 52 54 51 53 55 56 62 69 76 77 78 78 77 80 83 82 77 74 74 72 69 68 67 66 57 50 48 42 40 42 43 38 37 34 28 23 21
62 58 61 61 61 59 48 50 56 58 57 58 61 57 58 65 73 79 83 82 80 80 81 82 82 74 72 70 72 72 69 66 61 54 52 48 45 45 48 39 39 37 31 27 24
53 49 63 60 55 46 46 51 56 60 62 64 63 61 59 60 65 72 80 83 82 84 85 83 84 84 78 75 72 68 66 67 63 61 58 54 51 52 51 44 39 39 36 33 27
45 46 56 52 42 46 47 52 53 57 62 65 64 64 64 63 64 63 68 77 78 83 84 88 88 85 81 79 77 78 77 74 72 70 59 57 51 52 56 47 43 44 41 38 32
41 39 47 38 35 45 48 49 52 56 57 59 63 67 66 64 62 62 65 70 73 77 80 81 84 85 85 84 84 77 76 76 74 70 63 59 57 57 58 53 50 47 45 42 40
34 35 42 34 39 51 52 53 57 56 56 58 59 65 67 65 65 63 67 69 67 67 68 72 72 75 77 82 88 85 82 80 77 72 69 68 65 63 64 59 55 51 50 47 46
35 37 39 41 45 50 52 49 54 56 55 54 56 62 62 63 62 59 59 60 59 58 60 59 57 66 66 73 79 82 81 79 77 77 74 75 71 68 69 66 59 54 54 45 50
33 38 38 43 44 45 42 52 55 56 55 55 57 58 59 52 44 49 49 53 57 54 55 55 57 60 60 70 73 74 65 72 71 70 69 69 69 66 67 68 57 59 58 50 53

GFSSW_250_spd_084.txt.gz
Wind_Speed
65 66 68 63 65 65 66 65 63 65 65 63 66 67 67 64 66 64 62 65 56 60 52 52 49 51 48 49 45 47 46 44 40 38 40 40 43 41 45 41 37 35 38 43 41
70 67 70 72 71 70 70 69 70 68 68 68 70 68 66 67 70 72 65 60 58 61 49 51 50 52 50 50 48 48 48 44 42 38 41 39 42 44 46 37 33 34 38 41 39
76 74 75 76 75 76 75 74 76 74 74 75 74 73 72 69 71 69 69 63 58 55 55 46 50 53 53 52 50 45 49 43 43 39 43 42 42 43 41 35 32 36 39 41 35
79 83 81 82 78 78 81 80 78 78 78 69 73 75 72 70 71 73 76 72 67 64 60 51 48 52 54 51 50 46 48 43 44 39 41 41 42 42 34 34 34 32 35 38 32
83 81 85 85 84 79 79 77 76 76 75 72 73 71 73 73 73 78 74 73 72 64 60 59 50 50 53 52 47 49 50 47 44 39 39 40 41 41 25 29 30 31 34 32 32
86 83 82 83 85 81 80 81 79 79 76 82 79 80 80 77 75 77 81 82 74 71 67 50 50 45 50 55 50 50 49 47 45 39 39 37 42 35 26 28 27 27 31 32 33
93 92 91 90 89 84 86 86 85 83 82 84 83 85 84 90 87 84 84 83 78 75 66 56 50 48 50 53 55 49 46 45 46 43 38 38 42 24 30 26 25 26 30 33 34
91 94 92 92 92 89 93 92 89 89 91 90 93 93 91 94 93 91 86 86 81 73 61 58 48 51 47 47 46 46 44 44 45 39 36 40 37 25 30 27 26 26 30 34 34
96 98 94 95 98 98 95 96 98 98 99 101 102 102 100 102 99 99 99 91 89 78 63 54 46 51 49 47 42 46 45 47 39 34 34 36 36 27 25 26 28 29 31 35 32
102 102 104 99 103 103 102 103 103 105 106 107 105 106 105 102 106 98 92 88 83 76 61 55 47 47 48 49 47 48 38 38 36 34 36 33 37 34 28 28 28 28 29 34 32
107 104 106 108 105 108 107 109 113 110 109 111 108 104 107 103 102 101 84 79 76 66 58 56 46 42 49 59 48 40 39 42 40 33 33 29 30 38 32 31 29 27 28 34 31
103 102 107 105 103 106 108 112 114 113 109 109 111 107 113 101 93 81 75 71 68 64 59 52 47 51 58 54 50 42 39 44 38 40 28 29 30 36 35 33 29 28 29 32 28
102 104 103 100 104 106 103 102 107 110 109 102 110 105 105 102 80 71 67 66 63 62 58 52 50 53 57 56 51 44 42 52 41 42 24 30 29 41 36 28 28 28 27 30 27
98 99 100 101 102 105 105 105 104 101 96 90 89 84 78 79 71 68 66 64 63 61 60 55 54 57 60 55 49 46 53 48 41 43 31 30 32 43 30 27 25 27 25 27 27
103 105 103 97 99 102 100 100 95 87 85 87 75 71 66 67 65 67 65 61 64 65 64 65 62 57 55 57 56 52 52 52 46 42 34 34 36 47 34 25 27 26 25 24 24
102 99 97 97 95 94 91 86 92 81 68 65 62 61 62 62 64 65 68 65 67 68 66 69 68 59 52 60 61 63 57 53 48 42 33 43 32 46 35 27 25 27 26 24 22
95 91 88 88 87 84 84 80 76 69 61 57 59 60 58 60 62 66 70 69 69 70 66 72 68 67 67 56 62 64 61 55 48 40 36 45 31 40 41 30 27 24 23 24 21
86 81 78 79 78 77 78 75 66 59 60 57 59 60 59 60 64 66 69 70 70 67 66 69 69 68 67 64 69 65 58 58 52 48 44 41 38 41 45 36 34 31 30 24 23
78 76 74 77 77 76 75 69 63 61 62 59 59 61 61 62 64 66 68 69 68 65 57 66 70 70 67 65 64 62 57 57 55 52 48 44 42 42 52 41 39 38 33 26 26
72 70 73 72 73 72 66 60 57 61 61 61 60 61 62 62 66 66 66 67 68 68 63 60 65 69 74 70 70 67 66 62 63 60 54 49 45 42 55 44 40 37 32 29 29
62 59 70 63 63 59 48 51 55 61 62 62 62 63 64 63 66 68 64 68 65 66 66 64 65 65 70 71 75 72 68 66 65 54 51 50 50 44 56 49 45 45 40 38 32
53 56 61 55 51 44 47 54 59 62 63 62 64 65 65 65 64 67 66 66 65 66 69 71 69 72 71 74 75 66 65 64 58 56 57 56 49 48 55 56 49 47 45 43 34
49 52 52 45 38 42 51 54 58 63 63 62 64 66 65 64 63 67 68 70 70 73 74 73 71 72 74 78 79 80 80 75 72 71 63 58 55 55 51 59 53 51 46 46 35
45 48 46 38 38 44 50 53 54 60 61 60 63 66 67 67 66 68 70 71 75 79 76 76 76 77 76 77 80 81 84 82 81 75 66 53 59 58 58 64 60 57 53 50 42
38 44 39 35 42 48 48 52 55 57 59 60 61 66 68 68 66 66 66 65 66 71 76 78 81 83 82 83 85 83 80 80 77 69 69 62 61 60 61 68 65 65 63 55 45
34 35 32 38 40 47 46 47 55 59 59 58 62 63 65 68 68 65 64 64 65 69 73 80 82 83 83 88 88 85 87 84 80 76 75 76 72 69 66 70 69 65 65 61 50
31 27 29 34 38 41 46 53 58 61 60 56 59 58 61 65 62 63 63 65 66 65 65 68 74 76 75 79 81 81 87 86 84 85 79 76 72 72 72 72 74 75 72 68 61

GFSSW_250_spd_087.txt.gz
Wind_Speed
68 68 66 66 67 68 68 65 64 66 64 64 63 64 65 65 67 67 69 71 73 70 69 65 62 49 37 46 45 51 51 48 49 44 44 41 44 41 45 45 41 42 46 40 40
73 66 67 68 72 76 70 69 68 69 69 71 71 69 67 69 69 73 73 75 72 75 76 72 65 54 51 47 44 50 52 53 49 46 45 44 43 44 43 45 37 45 44 39 40
76 73 69 69 75 76 73 73 73 72 76 75 74 75 74 72 75 73 76 74 76 72 73 74 65 57 52 47 45 47 51 54 52 46 44 46 41 44 44 42 42 46 42 39 37
76 81 84 83 82 78 78 79 82 76 77 79 77 79 79 79 78 75 76 77 77 77 75 76 69 62 60 57 50 43 55 58 56 46 47 46 44 45 44 38 44 43 36 36 32
81 81 82 85 81 85 83 82 82 86 84 85 77 75 71 71 74 74 78 79 80 82 79 73 72 71 67 61 54 42 54 55 56 49 45 44 47 45 42 39 45 37 33 30 28
86 86 87 88 88 84 87 88 87 86 82 79 78 80 79 78 81 82 81 82 84 82 73 72 75 75 73 63 55 43 47 53 56 48 44 44 47 46 40 41 39 35 34 30 28
87 88 91 90 91 92 92 89 90 86 86 82 82 79 78 84 81 84 83 83 85 83 83 80 77 82 76 77 55 47 47 53 54 52 46 44 45 43 41 39 36 31 34 31 29
96 94 90 91 92 90 92 89 91 88 89 89 89 86 84 90 88 89 90 90 92 92 90 87 83 83 82 78 62 51 47 53 59 52 47 39 45 43 38 39 38 30 29 31 31
99 95 98 96 95 95 95 95 91 91 92 92 92 93 88 90 91 94 94 96 98 97 96 91 85 81 81 74 63 51 49 52 58 46 40 37 44 40 35 36 32 30 32 33 30
99 96 95 99 99 99 98 99 96 94 92 93 97 96 99 98 98 97 99 101 102 101 101 94 89 85 77 75 57 51 56 55 49 45 38 39 42 38 40 36 32 32 32 31 30
100 95 101 97 100 103 106 105 104 104 101 99 99 99 100 101 106 101 103 106 108 107 105 98 91 82 80 67 53 57 54 50 49 44 37 33 35 42 34 32 30 31 35 31 30
101 104 101 100 103 104 105 107 107 104 104 107 108 103 107 104 103 107 107 108 108 108 105 97 86 86 76 61 55 53 56 50 52 46 37 40 36 38 36 33 24 29 31 30 28
102 101 102 104 105 103 108 105 107 108 108 107 111 108 110 111 108 110 107 110 109 105 101 91 86 76 68 59 54 46 48 52 54 51 34 39 36 39 41 32 23 26 27 26 27
87 96 103 100 105 103 106 108 109 106 113 113 108 108 107 105 105 109 103 102 99 97 95 88 72 68 62 56 60 51 55 53 52 50 43 39 36 41 43 31 27 25 28 25 25
93 95 95 101 97 107 109 104 105 105 114 109 102 98 102 105 102 97 101 99 91 86 82 68 66 60 59 56 62 57 57 54 54 51 39 36 36 43 44 36 28 29 27 26 24
98 96 94 94 96 100 103 104 102 106 107 106 97 94 95 98 95 94 90 85 77 76 71 62 57 55 59 60 59 58 54 52 54 53 47 40 42 41 48 44 30 27 29 26 26
97 97 97 98 101 98 97 99 98 95 94 94 89 85 86 86 83 82 75 72 69 68 61 60 53 58 61 62 62 53 63 55 58 51 42 47 44 43 52 38 29 29 29 29 25
91 91 93 93 93 93 93 91 88 85 82 81 79 79 80 74 72 70 68 67 64 61 58 57 57 61 65 65 64 63 61 56 56 52 52 51 44 41 48 43 34 29 31 33 29
82 83 84 84 84 86 85 80 74 79 76 70 69 66 67 64 63 65 65 63 61 59 58 59 63 62 70 70 73 68 62 57 55 56 59 54 50 47 52 49 39 39 33 34 34
78 77 79 76 78 77 71 64 69 72 67 67 72 67 67 62 62 63 64 60 59 58 56 62 67 67 71 69 75 67 66 59 53 59 58 53 52 59 52 50 44 42 38 34 36
76 77 79 72 72 69 63 64 70 69 65 71 72 63 65 63 64 65 64 63 58 58 58 64 66 67 69 68 75 78 71 62 63 57 60 54 55 55 51 53 52 46 41 39 37
71 70 66 64 62 61 58 63 64 63 64 69 69 68 66 63 63 66 66 62 58 59 61 61 65 64 64 72 71 73 73 63 65 59 59 60 59 57 56 59 58 49 45 43 40
61 63 56 53 52 53 55 58 57 58 63 66 67 65 64 62 65 69 67 64 63 63 61 62 64 63 66 62 60 72 74 70 67 71 66 67 61 64 60 63 59 56 47 46 41
54 52 46 48 49 50 51 54 53 58 62 64 64 62 61 63 67 68 68 66 65 64 65 64 65 66 70 69 60 58 67 78 76 74 70 71 74 74 73 62 59 58 53 49 46
51 46 42 43 44 46 45 48 51 55 58 61 60 61 61 61 66 69 69 66 65 63 66 66 65 67 71 75 72 70 67 68 65 70 75 76 75 69 62 63 63 61 57 55 54
43 39 39 39 41 43 42 46 49 53 58 57 60 63 60 61 65 69 69 66 67 65 68 65 69 69 73 81 77 71 77 79 72 71 66 67 67 69 70 71 69 74 65 60 58
39 36 36 33 36 40 43 45 49 53 54 55 60 59 60 62 62 64 67 67 67 64 69 68 74 77 80 81 85 83 79 74 77 81 78 77 75 78 78 77 72 72 67 61 58

GFSSW_250_spd_090.txt.gz
Wind_Speed
68 66 68 69 69 70 63 60 64 63 65 67 68 69 64 60 63 61 65 65 65 62 65 65 70 65 64 66 60 65 49 46 49 45 51 47 47 47 43 51 48 45 46 48 44
70 71 67 68 69 73 73 74 74 73 68 70 72 73 72 64 67 66 66 70 69 68 69 70 70 71 68 69 64 62 45 52 50 49 46 51 49 47 46 49 48 44 46 48 44
66 70 75 75 73 72 70 62 66 69 68 69 70 75 75 66 69 68 73 74 74 75 73 73 74 70 70 75 67 55 49 50 51 51 47 49 50 46 48 49 46 45 47 42 38
75 71 72 77 80 82 80 82 76 75 65 66 73 77 75 72 77 73 75 80 81 78 78 74 71 76 76 71 70 58 55 56 59 51 48 48 52 51 47 49 45 50 46 43 44
80 79 75 74 76 78 79 79 79 82 81 84 82 81 79 77 85 78 86 85 79 72 71 71 76 82 83 73 64 62 61 61 64 53 48 44 50 50 48 47 42 49 48 44 44
82 85 84 81 79 80 79 82 82 82 86 84 84 80 84 82 86 86 82 82 80 79 78 78 78 79 80 78 73 67 65 60 61 56 51 40 46 45 54 45 44 47 47 44 44
85 88 89 89 91 89 90 85 86 90 90 88 86 85 82 94 89 88 80 77 78 77 77 80 78 81 81 82 78 74 67 64 61 59 53 49 36 52 52 47 42 45 47 43 41
93 89 91 92 91 91 93 91 91 90 93 90 89 85 84 90 89 87 86 83 80 81 81 83 81 84 83 86 85 84 73 66 65 63 54 52 32 51 47 49 42 44 42 38 39
90 96 94 91 94 95 94 94 91 91 93 91 91 88 87 88 87 91 88 89 86 84 83 86 85 86 88 89 90 84 76 71 67 68 60 51 39 43 47 46 43 40 39 38 36
90 87 96 95 92 97 101 100 97 94 93 97 92 95 93 93 95 93 94 94 94 92 94 95 93 93 91 91 87 87 83 76 66 73 66 50 40 40 48 45 41 40 38 38 34
89 87 86 94 89 101 99 104 109 98 93 94 93 96 95 96 93 93 95 97 100 99 97 99 98 91 93 97 93 92 84 71 72 73 62 51 38 41 47 43 40 38 34 36 37
86 83 84 85 91 102 103 104 101 101 95 99 97 93 97 99 95 100 100 101 100 98 101 100 98 99 100 96 94 89 80 70 75 63 59 52 41 40 46 42 40 37 31 32 32
93 91 94 92 92 97 104 104 106 106 103 91 101 99 101 101 99 101 105 105 104 107 107 107 103 104 101 99 91 79 77 69 65 59 56 53 42 34 44 44 41 32 27 34 30
104 99 100 98 93 89 93 96 104 105 108 101 99 97 103 107 104 105 109 107 108 106 109 108 103 101 93 83 82 68 72 70 64 57 50 54 43 40 43 45 43 33 32 32 32
108 108 107 98 91 93 87 91 94 99 104 108 99 93 100 106 104 105 111 111 109 109 112 99 96 89 77 77 74 66 65 57 58 56 54 43 46 41 45 44 44 37 33 34 33
98 95 96 96 98 99 96 98 97 97 93 97 98 95 99 100 103 106 111 111 109 109 106 94 92 81 76 70 67 59 59 54 60 53 47 40 43 42 44 42 42 39 36 36 35
94 91 91 94 98 98 103 106 104 100 97 100 103 96 100 103 102 107 109 110 104 98 96 95 87 75 67 64 61 54 53 55 61 54 42 44 47 44 46 46 41 41 35 37 33
83 87 87 90 94 95 98 100 96 92 98 107 101 94 95 101 100 100 101 93 93 91 88 78 70 66 58 52 50 52 53 59 62 54 53 47 42 48 52 48 43 40 36 37 34
80 80 82 86 87 89 92 88 84 87 97 96 96 90 88 95 86 86 84 84 79 76 71 65 59 57 48 45 48 49 48 61 66 62 57 54 47 48 54 49 49 40 35 39 35
75 75 79 79 82 82 80 74 78 82 85 87 84 83 81 82 76 77 75 72 68 64 60 54 51 48 45 46 48 47 56 63 61 61 56 54 48 48 57 56 53 49 42 40 41
66 70 73 77 81 76 73 76 73 76 73 75 72 67 71 71 66 67 63 60 60 53 50 49 46 46 45 47 52 52 59 62 62 61 56 55 55 55 53 55 59 55 46 44 45
62 67 69 73 70 70 71 70 69 69 70 72 59 66 70 63 62 55 62 59 50 52 49 43 46 46 46 51 52 56 63 66 68 69 60 58 57 50 54 64 64 54 44 54 52
61 65 68 64 65 63 61 60 61 61 64 66 57 66 70 60 59 60 61 49 52 52 47 49 49 49 49 51 55 56 66 68 66 75 66 61 55 54 55 57 66 52 52 56 54
57 59 58 57 55 55 54 55 55 55 56 58 58 59 60 55 59 58 58 51 53 53 52 52 51 50 53 58 59 63 61 70 68 69 72 60 63 61 56 62 60 64 61 56 55
51 50 46 48 47 47 46 47 48 48 49 50 53 52 55 55 56 55 55 53 56 54 53 53 53 54 54 57 60 59 57 61 67 67 73 69 64 64 61 64 62 59 61 59 57
43 42 40 41 41 42 42 43 42 42 42 45 47 50 51 50 50 52 51 52 54 52 55 54 56 56 58 59 57 55 56 56 58 63 68 72 74 65 66 71 71 66 64 65 66
41 39 35 36 38 39 40 39 39 37 39 41 45 44 45 51 50 48 45 47 49 54 58 57 59 60 61 61 58 52 61 63 56 58 64 65 66 74 71 72 75 71 69 73 71

GFSSW_250_spd_093.txt.gz
Wind_Speed
64 69 66 66 64 65 61 60 61 60 59 58 60 61 56 57 61 60 62 60 63 61 56 55 59 59 61 62 61 59 51 54 58 50 50 48 45 38 42 46 53 44 41 38 41
71 69 70 68 66 67 68 70 72 69 67 70 71 70 71 67 67 65 64 64 66 67 61 59 60 60 62 65 64 62 54 59 56 62 48 50 51 43 41 44 48 47 42 36 39
78 76 73 74 76 71 69 71 71 70 72 72 74 71 66 66 67 69 69 65 64 66 65 63 65 62 63 69 71 68 62 61 62 63 56 53 49 46 38 44 45 45 42 38 37
84 84 82 79 78 79 73 76 74 73 76 76 71 71 65 66 67 67 66 68 69 70 68 69 72 69 72 75 76 69 61 65 65 67 52 55 51 48 47 43 44 46 44 43 35
87 89 88 90 87 86 82 81 78 77 76 81 83 85 77 75 80 74 71 69 73 74 76 75 75 73 77 73 71 68 70 70 71 65 65 59 54 50 50 44 39 43 43 43 39
92 89 89 85 88 85 83 85 84 82 81 80 79 81 85 81 81 81 80 81 78 78 81 77 79 78 75 74 73 78 74 73 68 65 63 63 57 52 51 46 38 37 43 45 45
93 92 90 92 92 90 89 86 89 89 86 85 81 79 76 84 81 82 79 80 83 78 77 83 78 75 75 76 77 74 73 68 69 69 72 71 59 53 53 47 40 38 41 42 45
89 93 96 98 94 93 89 90 93 90 90 88 88 84 80 85 84 85 85 83 81 80 82 81 81 79 78 78 75 75 73 67 69 76 80 79 54 59 57 52 42 39 40 39 43
95 97 100 98 97 104 98 98 96 91 90 91 91 89 88 88 90 90 89 87 86 84 81 80 79 76 78 77 76 77 73 74 77 82 79 82 67 62 56 54 43 43 38 39 41
102 104 101 98 99 96 98 98 99 93 97 93 96 90 90 91 87 90 89 92 93 89 85 85 84 84 86 87 83 85 85 84 85 86 81 78 74 62 46 56 47 45 38 39 36
103 107 105 99 104 105 101 102 98 95 92 96 93 90 94 95 87 89 88 90 91 94 94 95 90 88 91 91 91 88 88 87 83 82 84 85 78 64 44 47 50 44 40 38 34
89 103 107 105 106 112 108 107 105 95 97 91 94 80 100 99 89 97 89 84 88 92 94 92 87 92 92 91 91 90 90 89 84 87 90 84 62 48 42 35 46 44 37 36 29
96 97 100 106 95 102 106 105 97 99 95 80 87 75 89 98 93 100 99 92 86 87 88 87 87 92 92 92 93 91 94 93 93 93 78 78 52 46 38 34 39 40 38 35 29
117 112 108 105 102 95 101 101 101 97 94 75 90 79 83 97 97 98 104 101 92 92 99 91 92 93 93 94 96 96 100 98 89 77 60 72 39 39 38 36 39 34 35 37 31
101 107 110 111 107 106 100 103 102 102 93 89 85 83 82 94 96 97 101 101 99 98 99 93 99 103 100 101 103 100 103 96 79 74 50 58 46 40 38 41 38 39 38 35 33
94 96 96 106 114 112 105 104 98 98 92 98 89 87 85 87 88 87 95 99 97 97 97 94 99 103 104 101 96 93 96 90 66 64 39 58 47 33 37 41 37 41 35 33 33
84 86 91 94 102 106 109 106 106 101 99 107 99 96 88 82 84 83 84 89 89 91 95 101 99 100 103 103 96 92 89 65 57 52 42 53 43 35 42 43 43 43 37 29 32
82 83 85 90 90 93 97 100 94 94 103 112 103 96 90 89 89 92 88 90 93 92 94 95 93 97 99 87 85 82 66 57 53 47 44 45 37 45 52 43 45 42 36 30 35
75 76 82 82 85 85 84 83 78 88 91 90 95 91 90 91 99 98 95 95 97 92 93 89 84 86 85 73 70 66 52 53 48 46 41 44 47 50 53 49 43 42 37 30 32
68 72 76 76 76 74 70 69 72 77 82 78 81 85 87 84 79 85 87 90 91 84 85 81 75 76 71 64 60 52 50 49 41 40 39 50 50 51 51 52 50 46 47 33 34
61 70 66 68 64 61 66 71 68 72 72 70 74 73 77 78 73 76 72 76 76 75 74 72 65 67 59 56 52 45 42 43 40 40 44 55 54 51 51 53 53 47 43 41 41
51 59 60 58 54 61 67 66 67 69 68 66 67 67 66 65 61 60 65 66 63 62 63 57 53 53 46 44 42 41 39 42 39 42 49 60 59 55 50 54 50 49 46 47 48
47 49 52 55 59 60 61 62 62 62 62 59 63 62 58 60 61 60 56 53 40 56 49 48 46 46 39 42 45 41 41 42 43 49 52 59 57 53 53 49 49 49 56 52 46
43 46 48 51 55 57 57 56 54 54 53 53 55 50 48 58 56 60 56 40 47 52 43 41 40 42 42 40 40 35 38 40 44 43 53 51 58 63 59 56 50 56 62 48 47
36 37 39 43 45 48 48 49 47 47 46 47 48 47 48 54 52 52 49 39 50 49 45 39 40 43 44 40 39 38 40 43 45 49 54 58 57 61 63 61 54 50 52 50 46
30 28 30 34 37 40 40 40 40 39 38 39 41 41 45 45 46 45 40 39 45 46 41 43 45 43 45 42 41 39 43 44 46 50 55 61 58 63 61 56 53 58 62 60 51
26 26 29 31 33 34 34 35 33 34 33 35 36 36 36 40 35 36 35 38 42 40 42 46 45 44 46 40 40 47 52 53 52 51 58 60 60 62 64 59 57 58 62 65 60

GFSSW_250_spd_096.txt.gz
Wind_Speed
53 58 60 63 65 64 63 63 65 68 63 63 62 63 61 61 60 58 53 54 54 54 55 59 58 57 54 58 57 58 52 52 59 47 54 47 45 46 49 45 45 37 37 42 41
75 66 65 67 70 73 70 69 67 69 68 67 67 65 63 63 64 63 64 64 63 60 62 61 64 63 59 62 56 55 50 52 58 55 55 53 45 50 47 50 50 46 35 36 36
80 82 76 74 75 76 78 77 74 71 74 70 67 71 72 71 70 73 69 68 68 69 67 65 67 66 63 62 55 58 55 59 61 58 51 57 50 53 54 45 45 45 40 36 31
79 84 89 85 82 79 82 81 81 81 77 75 74 71 71 73 74 75 74 71 69 65 66 64 64 66 64 61 68 61 59 61 61 62 56 57 57 53 54 55 48 40 36 34 34
90 90 92 93 93 94 89 88 87 83 85 83 80 76 71 70 76 71 72 75 72 68 69 67 70 67 64 66 67 62 66 61 61 68 65 64 61 59 54 57 55 48 36 30 33
99 98 99 98 98 95 96 93 89 89 90 82 82 83 80 76 83 77 76 78 75 74 75 74 76 74 71 67 70 65 62 66 64 69 70 68 62 59 63 57 55 54 51 31 32
97 102 102 99 103 99 99 93 94 91 89 85 86 82 77 87 83 84 81 80 80 83 81 79 75 68 67 65 63 64 63 65 65 66 70 71 58 62 61 63 62 56 48 43 38
100 99 98 100 100 95 93 94 96 96 87 87 83 81 79 86 80 86 86 87 85 83 82 82 77 72 71 69 67 67 68 65 68 71 71 68 58 63 66 69 63 54 49 47 42
93 97 98 100 96 97 96 94 97 98 91 87 89 83 85 84 83 81 87 92 89 87 83 85 83 81 79 79 72 64 66 67 66 69 68 73 69 69 73 72 60 60 54 42 43
79 93 98 99 103 103 100 97 98 93 89 90 88 88 88 88 88 85 85 87 93 92 88 87 87 84 85 85 79 82 80 73 74 77 81 79 75 75 73 67 60 62 51 37 41
95 87 83 82 90 107 105 102 101 99 95 90 95 93 91 90 85 87 89 89 92 90 93 93 88 84 86 89 91 89 82 78 79 82 86 86 72 66 65 68 62 63 50 40 40
110 104 101 92 84 92 93 100 104 101 97 97 97 91 97 97 87 89 93 92 92 94 95 88 84 88 90 87 86 83 81 81 85 86 82 77 64 67 69 72 63 56 45 41 41
99 98 96 100 100 93 90 92 98 105 104 102 102 89 99 103 88 92 100 98 94 91 97 91 89 92 91 90 88 85 82 80 81 82 82 81 70 72 73 74 72 53 41 43 40
85 90 90 92 106 104 101 89 86 94 96 94 105 102 99 98 91 100 95 95 95 92 95 93 88 92 92 89 89 81 82 82 78 81 81 84 70 73 75 77 71 46 46 37 36
76 81 83 89 93 101 103 99 98 92 85 87 98 96 94 104 98 94 95 90 90 92 89 86 88 92 93 91 95 82 88 88 89 87 90 88 88 73 74 64 49 46 43 40 38
71 72 79 87 86 84 94 102 106 100 95 94 94 94 89 87 90 86 88 87 86 89 90 88 83 85 88 91 93 90 91 93 93 93 90 88 88 59 69 64 44 53 47 47 39
62 66 70 78 80 82 84 88 98 105 107 105 101 101 98 89 90 89 90 91 87 86 85 88 82 82 83 85 87 89 90 94 94 92 88 89 79 65 63 62 46 52 46 47 41
57 58 67 67 71 77 80 80 81 89 103 99 98 101 102 99 94 90 88 91 87 86 83 80 77 81 82 79 83 85 87 86 86 82 80 68 62 53 51 52 47 54 46 44 38
48 54 57 59 64 67 70 72 75 84 86 86 88 81 95 99 94 93 84 86 88 87 85 85 78 78 79 79 78 79 77 81 76 58 53 48 43 47 38 47 50 49 50 49 41
44 48 46 53 56 58 62 69 73 78 77 77 75 72 68 86 92 96 93 94 100 97 96 92 82 84 85 85 82 81 82 75 64 50 42 41 41 41 39 47 52 53 53 44 43
41 36 40 44 48 52 61 65 66 66 66 66 69 67 65 68 78 86 84 81 90 96 98 89 82 90 81 82 79 69 68 63 52 42 37 40 39 40 44 53 55 55 55 47 41
33 30 33 37 43 50 56 56 55 58 58 61 60 64 66 66 65 64 65 68 76 87 87 83 76 75 68 70 63 58 59 49 40 36 37 38 39 47 52 57 57 59 52 49 47
25 27 30 35 41 46 48 50 54 53 51 55 58 60 64 66 58 58 57 59 64 66 69 65 57 61 60 57 53 52 48 39 32 34 35 41 48 55 57 52 62 54 54 50 49
21 25 27 32 37 41 45 48 50 49 46 50 52 53 55 54 52 52 53 53 55 57 49 43 48 53 51 47 46 44 40 34 35 38 43 47 53 60 56 52 53 56 52 52 53
17 20 22 26 32 36 39 41 43 43 40 42 42 42 44 44 47 48 45 56 49 51 44 48 49 46 44 41 42 39 33 32 38 43 46 56 58 64 59 57 61 57 50 42 58
15 16 18 22 25 28 30 32 33 34 34 37 37 38 40 42 43 43 47 47 33 38 45 53 45 45 43 38 39 38 34 39 44 46 54 58 59 61 70 55 51 53 59 50 54
13 14 15 19 21 23 25 27 26 29 28 30 32 34 35 38 39 41 42 40 33 39 50 46 43 46 43 40 40 42 40 40 42 42 53 57 57 54 55 71 62 60 51 52 53

GFSSW_250_spd_099.txt.gz
Wind_Speed
66 70 67 62 61 58 57 60 63 62 57 57 60 65 66 66 71 68 65 65 66 65 63 60 65 57 55 59 57 53 46 43 57 59 59 54 48 43 40 40 41 42 46 44 45
76 73 73 74 72 71 70 67 67 70 67 63 62 61 65 65 67 71 72 70 65 68 72 66 63 58 54 58 60 61 54 51 63 56 56 55 49 50 37 33 45 44 45 43 44
84 84 80 78 77 77 79 80 80 74 72 72 71 65 66 62 64 69 68 75 72 70 72 77 73 70 65 68 66 66 56 63 63 63 58 58 56 55 44 35 49 45 46 44 47
94 89 90 86 86 82 80 84 84 84 80 77 78 75 74 68 69 71 70 73 71 73 74 72 75 75 75 72 70 64 57 58 62 65 59 56 57 52 46 43 50 43 46 45 47
105 103 100 97 98 95 91 90 88 88 87 84 81 78 78 74 75 76 75 74 74 75 76 79 78 77 75 76 71 61 58 58 58 60 61 61 55 55 47 56 49 44 42 43 49
106 106 109 110 109 103 101 98 99 96 92 90 89 86 85 80 86 83 80 81 82 78 76 76 74 75 73 73 73 68 69 65 64 67 65 61 58 58 60 55 49 46 43 47 49
114 118 113 112 112 112 110 109 105 103 99 96 97 93 89 90 91 80 84 82 82 80 80 78 80 74 74 72 71 73 73 73 70 61 61 62 59 59 62 59 51 52 53 53 53
114 114 113 111 109 108 109 111 116 109 104 103 101 99 91 98 95 89 83 81 82 85 85 78 78 79 78 81 77 76 67 61 58 63 65 70 53 58 61 59 56 56 60 58 54
96 100 101 94 94 97 99 105 112 113 114 109 104 102 93 99 97 94 90 88 84 80 81 81 80 78 82 82 82 80 80 73 74 72 73 69 56 55 60 60 56 62 64 63 48
88 94 98 95 90 87 86 97 106 108 108 102 105 104 101 99 95 87 92 95 88 85 82 82 82 77 75 84 85 85 84 84 80 78 77 70 61 60 65 68 70 72 71 57 48
98 101 101 98 101 98 92 88 87 103 102 94 96 94 94 93 92 87 91 80 86 85 85 86 83 79 81 82 81 89 88 84 81 80 81 78 75 76 76 74 75 73 68 51 51
102 101 97 97 93 94 104 104 89 86 80 90 96 91 93 93 89 86 86 87 87 85 88 87 82 85 84 85 79 78 81 84 85 86 85 80 72 71 73 72 69 68 62 51 54
94 89 87 84 80 87 91 97 100 91 81 80 85 86 99 97 90 91 91 90 87 88 87 87 84 84 86 85 85 79 81 84 86 86 83 79 71 73 72 72 71 66 62 53 56
87 79 76 72 75 76 85 83 86 92 92 85 88 81 92 98 92 98 96 95 91 83 89 90 92 91 89 88 90 86 83 85 85 87 84 83 72 73 73 69 70 68 64 58 58
77 69 67 68 60 72 73 77 80 85 82 93 99 86 85 91 88 94 101 93 90 96 97 87 93 95 90 88 91 83 88 81 82 84 84 82 80 65 68 68 71 71 69 68 67
69 64 60 59 59 61 68 73 77 79 71 84 94 96 81 82 83 88 97 97 94 98 97 92 90 88 90 91 88 86 84 81 79 81 77 80 80 65 71 77 76 73 72 69 59
61 57 53 51 50 55 61 65 71 71 74 76 85 95 92 84 84 84 91 96 94 98 97 97 96 92 91 89 84 82 83 81 82 81 73 80 76 72 74 77 72 71 70 66 59
54 49 44 40 43 49 54 57 63 70 68 68 75 90 97 95 92 83 81 86 88 91 94 94 88 87 88 83 84 82 85 79 76 74 74 76 65 66 68 66 64 63 60 53 51
46 42 39 38 39 42 47 52 58 61 63 68 69 75 88 98 101 95 90 89 86 84 84 81 75 82 81 82 84 81 80 80 81 75 71 65 61 60 63 62 57 53 47 44 45
38 37 36 35 33 35 42 48 55 58 64 68 69 70 73 84 95 100 99 94 93 92 90 90 86 86 85 83 83 83 83 82 77 72 69 60 60 60 64 52 46 44 39 40 46
33 34 32 32 30 33 40 49 54 53 53 57 60 61 65 71 74 84 93 97 98 95 97 97 87 90 87 84 84 82 80 84 82 72 65 60 55 64 48 41 38 35 37 43 48
29 29 30 30 30 34 38 42 41 46 49 54 56 58 62 67 68 70 72 77 86 88 85 80 83 83 90 88 88 89 88 93 79 77 60 52 48 45 37 39 35 39 43 47 52
27 25 26 27 28 29 31 34 39 42 44 48 51 52 53 56 60 62 64 68 69 72 70 69 74 82 89 90 91 95 81 77 74 62 55 46 40 38 37 39 46 47 50 54 55
26 22 23 23 25 26 27 31 32 40 41 44 47 46 48 51 55 57 57 60 63 69 66 60 66 70 76 72 74 68 62 62 59 52 45 41 42 37 37 43 47 42 45 55 52
21 18 19 19 20 22 25 29 32 35 35 37 39 41 43 46 45 50 52 56 58 61 60 62 62 63 59 56 58 60 54 52 47 42 40 41 43 44 43 50 56 56 42 47 54
17 14 15 16 17 17 20 23 26 26 28 32 34 36 39 40 38 45 50 51 56 54 54 54 56 48 47 52 52 51 46 39 39 37 42 43 46 48 49 55 55 59 59 51 59
14 15 15 15 15 17 18 20 21 23 24 26 29 34 38 37 38 42 47 45 49 46 48 51 51 43 48 47 48 43 38 36 36 41 43 46 50 54 59 58 54 64 65 55 54

GFSSW_250_spd_102.txt.gz
Wind_Speed
69 72 73 73 74 75 71 70 67 65 63 60 57 56 55 54 59 68 74 70 71 72 73 71 69 66 65 64 63 62 53 49 53 60 62 59 52 47 47 46 44 47 43 38 34
76 76 80 83 84 81 84 80 78 74 72 68 67 63 62 62 59 59 61 64 66 72 72 72 71 69 70 68 65 64 56 53 63 66 66 63 56 55 51 51 47 54 51 44 34
80 84 83 84 84 89 91 86 87 86 81 77 75 75 72 67 65 70 67 66 67 67 66 75 77 73 72 71 71 69 64 60 58 66 64 63 64 59 59 55 53 55 44 40 38
90 90 90 90 96 93 95 94 94 97 95 91 85 82 81 76 69 74 75 73 72 69 66 66 67 68 72 71 70 67 67 68 69 71 72 69 70 67 55 51 53 50 42 40 40
95 96 98 99 99 103 106 106 106 102 102 98 97 93 89 82 77 84 79 79 78 76 74 71 68 69 68 70 71 68 67 70 72 74 75 73 67 60 53 55 56 53 49 46 41
94 101 99 106 101 107 106 108 107 107 106 105 104 104 98 85 94 92 85 85 82 79 82 79 77 76 71 71 72 72 71 72 73 72 71 69 65 63 58 65 61 61 53 48 42
102 105 105 101 108 110 102 100 105 109 106 103 103 105 104 92 103 96 95 91 88 86 83 83 84 80 77 77 75 72 71 69 70 73 72 72 62 62 68 70 63 55 57 48 47
109 110 104 108 104 103 103 99 103 105 102 103 105 102 100 109 110 104 102 97 93 93 89 91 90 84 77 78 77 74 73 68 68 73 72 78 59 68 63 61 60 65 62 48 50
110 110 111 106 99 95 95 100 104 109 105 103 103 102 96 108 112 112 107 103 102 98 96 97 96 90 85 79 79 76 74 71 71 75 79 77 60 61 58 57 59 66 59 56 51
112 111 105 103 99 95 95 94 100 104 104 99 97 97 95 101 108 114 113 111 107 104 100 98 98 93 91 88 77 74 73 77 75 75 76 77 69 70 73 73 72 65 60 60 60
110 107 105 103 98 95 88 89 97 97 95 102 85 79 88 97 102 106 110 112 111 106 102 102 101 92 89 88 88 85 84 81 78 74 73 74 73 76 76 71 69 67 64 65 66
106 105 102 97 92 88 83 85 85 84 81 88 101 75 82 97 94 101 103 101 111 109 108 103 96 94 88 87 88 91 89 77 74 75 73 72 58 64 71 75 73 71 68 66 64
103 100 94 89 85 80 74 75 81 81 71 76 87 90 89 91 85 89 88 98 98 101 101 98 91 89 93 89 87 90 82 78 76 78 76 71 58 61 64 64 68 67 70 70 66
98 91 83 79 76 73 70 68 74 78 67 64 81 83 100 99 78 85 88 93 93 93 91 87 84 86 83 82 84 81 81 83 81 80 75 77 67 66 68 65 68 73 72 66 62
92 83 78 73 68 63 60 62 67 68 62 71 75 76 92 103 85 78 81 85 85 88 90 86 84 86 80 82 80 77 81 81 82 84 83 79 74 65 66 70 73 70 69 68 66
85 80 75 67 61 54 53 54 55 62 61 68 71 74 78 98 90 83 79 75 83 85 86 88 83 82 80 84 84 84 81 85 84 81 78 76 77 70 68 64 67 63 64 66 63
81 76 69 61 50 44 43 44 49 48 57 63 68 70 73 87 97 90 87 81 76 78 84 90 86 84 88 89 90 90 89 89 89 84 78 79 80 74 66 63 54 63 70 67 65
75 70 61 50 44 40 38 36 39 48 53 57 62 65 66 74 90 96 91 90 82 75 75 83 84 88 92 93 95 92 89 87 88 88 82 80 76 67 63 60 62 66 70 72 70
69 62 53 47 41 36 34 34 35 44 50 54 58 61 65 64 74 85 93 97 91 82 75 79 83 83 86 88 92 91 89 91 93 90 89 85 75 67 63 63 63 61 63 65 59
61 54 47 42 38 35 33 31 33 40 48 52 56 60 63 66 68 72 81 92 100 96 83 75 77 80 85 85 86 89 91 89 87 81 82 73 69 67 67 63 59 54 52 51 52
53 45 42 37 34 31 29 28 30 36 41 45 46 52 58 59 63 67 72 82 89 94 86 78 78 81 80 81 85 85 85 84 79 75 75 70 68 67 67 65 59 51 49 53 58
48 42 37 32 30 26 24 23 25 29 35 40 45 48 54 59 60 64 65 73 82 87 90 86 81 80 81 80 81 82 81 82 83 83 82 82 69 68 67 64 57 41 47 46 46
45 40 34 29 26 22 21 22 23 28 33 37 41 45 50 54 56 58 62 64 72 82 90 92 90 89 92 91 86 87 86 89 85 89 77 75 72 69 57 59 41 41 40 39 33
42 35 30 26 23 21 21 21 22 26 32 35 38 41 45 50 52 54 57 59 61 68 71 78 83 88 93 97 95 92 94 93 87 75 70 68 63 52 59 46 37 39 36 32 32
38 31 26 24 21 19 18 19 20 24 29 33 37 40 43 45 46 50 53 56 60 64 66 66 65 67 68 75 80 76 72 70 66 62 61 57 50 50 48 37 35 40 36 32 42
34 28 24 21 18 15 15 16 15 20 25 27 30 33 37 41 44 48 48 52 58 57 60 61 62 61 63 66 64 60 57 55 52 50 46 42 44 45 41 36 44 46 53 44 41
29 24 21 18 14 13 13 14 16 16 20 23 26 29 34 38 42 45 47 52 53 56 56 56 55 55 57 56 55 55 49 47 44 40 39 39 38 40 39 41 54 51 46 52 55

GFSSW_250_spd_105.txt.gz
Wind_Speed
57 59 63 63 64 66 69 73 70 69 65 71 70 70 67 66 63 61 63 66 69 68 68 69 69 70 68 67 66 66 61 58 63 67 69 63 56 52 50 48 47 45 48 50 47
67 68 71 72 72 73 73 76 77 78 77 74 71 73 76 74 72 69 69 66 69 70 69 70 72 70 70 71 69 69 64 62 66 70 68 63 58 56 53 53 51 53 55 56 56
70 72 71 72 76 81 81 81 84 85 85 84 84 80 79 75 82 78 78 75 71 70 70 69 69 71 69 72 67 70 61 65 68 73 71 69 63 61 58 52 56 58 61 58 63
76 77 80 85 85 87 91 90 88 85 84 86 90 87 84 82 77 87 86 83 82 78 73 71 69 67 64 65 70 68 64 66 66 75 70 68 70 65 61 62 60 61 64 64 62
84 84 85 88 93 99 95 95 96 93 93 88 87 88 89 83 83 94 93 91 91 88 82 78 75 72 69 66 69 66 65 67 65 67 65 64 64 66 64 63 66 65 66 61 57
89 91 96 98 100 102 101 101 100 101 99 97 93 92 87 80 97 101 97 96 95 96 93 86 83 81 77 70 69 64 64 64 64 63 63 62 64 64 62 70 70 67 63 57 54
96 98 100 106 105 103 99 100 104 105 110 106 100 92 89 82 99 102 102 100 97 97 100 99 93 87 82 78 76 71 68 67 64 62 65 67 61 64 70 74 72 68 59 56 54
101 102 103 104 105 102 104 107 111 110 106 103 98 95 86 91 98 103 106 99 100 96 95 103 102 95 87 83 80 77 77 73 71 73 72 72 57 67 72 71 68 66 63 59 58
102 105 105 104 108 110 111 107 106 104 100 101 92 90 85 89 98 101 107 102 102 99 98 101 104 101 96 91 86 81 75 72 74 76 75 75 67 69 69 68 68 65 63 62 57
108 109 107 111 111 112 112 108 106 93 88 94 90 87 88 89 93 101 102 102 104 102 102 101 101 102 97 96 90 88 83 82 83 85 83 81 72 68 69 69 67 65 67 67 68
108 111 116 112 114 114 108 102 93 86 82 83 78 76 75 87 93 99 102 100 98 101 100 102 103 98 103 100 97 93 92 88 88 91 87 80 75 73 72 67 67 68 66 66 67
113 117 114 114 113 110 100 91 85 77 69 80 73 67 74 82 86 97 97 101 99 101 99 102 97 101 102 101 101 99 95 92 90 90 91 86 77 76 73 68 68 67 67 65 59
118 114 109 110 108 99 89 82 78 72 61 70 72 66 73 83 78 88 97 96 91 92 93 95 96 99 100 103 102 102 99 95 91 92 90 87 78 74 75 74 68 68 66 63 59
110 107 109 105 97 90 79 74 68 61 57 59 72 69 71 75 73 86 91 94 89 84 83 83 86 90 95 97 95 91 88 93 93 95 90 84 74 74 74 74 70 69 66 64 64
107 109 107 96 87 78 71 66 59 52 53 54 60 62 68 71 69 83 82 91 88 84 79 79 81 82 86 85 94 88 89 92 96 92 80 76 74 68 64 67 70 70 68 66 61
108 107 96 89 80 70 63 60 53 47 43 47 54 57 61 64 67 71 78 80 91 89 79 78 80 79 81 83 83 78 79 84 81 68 73 70 72 64 59 67 72 71 67 64 56
102 95 89 82 74 66 56 53 47 41 37 40 45 52 55 59 62 65 70 76 91 89 81 80 77 78 81 83 84 82 82 82 80 77 73 69 67 57 60 67 70 70 67 64 63
90 87 83 77 68 62 51 45 41 35 34 38 41 47 52 56 60 64 68 73 77 91 83 76 75 76 78 79 81 81 81 80 76 73 74 71 65 66 67 72 74 70 70 69 65
83 82 79 71 64 55 46 39 34 31 29 33 38 45 50 55 59 63 67 69 74 83 87 76 73 75 80 80 81 80 79 80 79 73 71 69 73 76 74 74 74 74 75 71 70
77 79 72 67 59 47 40 35 31 27 26 30 34 40 47 50 55 61 65 65 70 78 90 81 75 74 73 76 79 80 81 79 77 74 74 74 75 76 79 77 77 76 74 71 60
73 74 69 60 51 41 35 33 29 26 26 25 31 37 43 49 54 59 63 66 68 74 89 88 84 79 75 74 73 73 80 85 83 80 81 80 81 82 79 78 77 77 65 58 54
70 68 61 53 44 36 32 30 28 25 24 24 28 34 42 48 52 56 58 61 64 71 83 90 88 88 84 81 76 72 70 75 76 75 74 73 72 74 77 78 72 65 62 55 56
63 62 53 45 38 32 29 28 25 22 20 22 27 33 40 45 49 52 56 59 60 67 78 87 90 90 87 85 83 77 71 69 71 72 68 71 75 77 75 71 67 68 67 59 47
58 54 46 38 34 29 26 26 22 19 18 22 26 33 38 42 46 50 53 57 61 61 66 74 82 86 88 88 88 85 77 71 70 70 68 66 68 69 71 72 71 69 65 43 48
52 46 40 34 31 27 23 22 20 16 18 21 26 32 36 41 45 48 50 52 55 59 62 64 66 70 75 78 80 84 84 78 74 72 72 74 75 77 74 74 76 67 48 44 51
46 40 36 32 28 24 22 20 17 15 16 19 23 27 33 38 41 42 45 48 52 55 59 61 58 59 63 70 72 73 79 82 82 80 79 83 83 78 65 64 54 47 41 39 39
41 35 33 30 25 20 19 17 14 15 18 19 21 25 29 32 36 40 43 45 48 53 56 56 55 56 57 63 66 70 76 79 81 77 71 63 60 54 47 42 39 38 37 38 41

GFSSW_250_spd_111.txt.gz
Wind_Speed
60 59 59 58 58 58 60 60 59 60 61 61 61 62 64 64 66 62 64 63 65 65 64 64 61 62 63 62 64 66 61 53 57 59 67 70 58 58 54 56 51 51 54 49 56
63 62 64 63 62 62 63 64 66 66 66 66 68 69 71 72 70 71 66 71 70 67 69 73 72 68 63 67 65 64 67 60 64 66 66 72 61 63 56 57 57 58 54 56 56
63 64 65 67 70 70 69 69 68 69 71 73 75 76 77 75 75 73 78 78 76 78 80 76 76 77 71 69 71 68 61 69 68 70 69 73 64 66 57 61 62 62 60 59 59
63 69 71 70 74 76 76 77 78 79 78 77 80 82 83 83 84 81 86 86 84 83 83 84 81 80 80 75 74 71 67 70 70 71 70 74 70 66 64 66 66 67 64 60 60
68 70 76 78 78 79 82 85 84 83 84 85 86 85 88 91 91 99 92 92 91 92 90 89 89 90 81 84 82 71 69 70 71 72 70 77 71 68 67 69 68 67 63 61 60
75 77 77 79 84 87 88 92 92 93 94 95 94 95 96 93 98 100 102 100 101 98 98 94 93 92 90 89 86 83 78 72 72 71 75 75 74 74 72 71 67 70 63 62 61
81 82 84 86 88 90 91 96 96 94 94 97 98 102 103 93 99 96 98 104 106 105 104 100 96 92 90 92 89 88 86 82 73 73 77 80 73 71 75 79 74 72 70 67 64
88 91 93 94 94 94 97 95 96 100 103 105 105 105 101 99 94 95 100 97 102 105 102 102 99 92 93 93 93 91 89 85 74 78 78 83 73 73 75 72 69 70 70 70 68
92 94 96 99 100 103 104 106 105 104 103 110 113 107 102 96 94 93 97 100 104 106 108 106 102 96 97 94 94 92 86 84 85 84 83 80 78 80 82 75 71 68 65 62 62
97 98 101 103 102 101 96 96 101 105 109 116 110 105 96 95 97 95 101 106 107 109 112 107 105 100 97 95 91 85 94 91 89 90 89 80 77 85 88 81 74 74 68 64 63
89 96 94 92 94 99 103 105 107 112 110 113 107 102 96 100 97 97 106 107 106 110 108 103 108 100 87 94 93 99 99 98 93 95 93 86 82 87 87 86 82 78 73 73 71
89 93 95 99 101 105 105 109 111 110 105 110 102 104 100 97 93 94 99 99 100 102 105 109 109 86 98 99 97 100 100 91 91 101 98 93 85 89 88 85 85 82 79 79 76
93 96 97 102 105 107 110 111 108 107 105 96 98 95 89 89 85 84 85 84 84 91 95 101 86 99 104 100 98 97 92 89 95 103 98 93 89 90 90 86 84 84 85 86 81
98 103 103 105 108 108 109 109 105 102 99 94 92 81 81 77 74 73 72 73 75 76 82 88 86 95 94 93 94 90 86 93 96 102 96 96 90 91 93 89 83 80 84 84 85
105 102 104 107 108 107 106 103 102 100 94 89 83 76 66 66 66 61 58 58 61 65 74 72 83 88 85 81 84 81 84 86 89 93 98 98 88 89 92 88 82 80 82 86 84
101 104 105 107 106 105 101 100 100 94 91 86 75 67 60 55 53 51 48 48 54 57 61 67 74 77 78 83 81 83 77 77 80 81 92 85 90 86 88 85 81 80 81 81 81
106 105 105 102 101 98 98 99 95 91 85 76 67 58 51 46 41 42 41 43 48 54 52 62 70 71 74 76 76 75 74 74 71 72 71 82 89 82 90 84 81 75 75 76 77
101 106 103 100 97 97 98 97 92 86 76 67 58 50 41 41 36 36 38 38 41 46 49 58 58 63 66 69 72 76 73 75 70 65 66 79 81 83 88 84 80 76 75 72 76
101 103 97 96 95 95 96 93 86 77 68 59 48 44 39 36 32 34 36 35 39 44 47 51 56 63 64 70 74 75 70 72 68 62 63 65 74 79 81 84 81 84 86 78 78
99 96 92 92 90 91 91 88 77 69 62 50 44 38 35 31 30 33 34 33 36 40 44 50 57 57 61 66 71 72 73 69 64 56 56 62 67 72 79 80 82 81 82 80 82
94 90 89 86 87 87 85 79 68 62 54 46 40 33 29 26 30 32 28 31 34 40 44 49 52 55 58 61 70 70 73 68 63 56 52 53 59 67 68 68 73 72 73 80 80
89 86 84 83 81 80 78 71 62 56 48 42 36 28 25 25 29 30 24 28 33 39 44 47 51 53 57 60 67 72 75 71 62 59 57 56 60 59 56 60 66 62 57 65 72
83 80 80 78 75 74 70 63 57 50 45 36 31 23 22 24 25 25 24 25 31 38 44 47 53 55 58 60 64 70 76 73 68 64 60 60 62 53 61 66 72 68 71 69 70
78 77 75 72 70 66 63 58 53 45 38 33 24 20 19 23 23 24 25 27 29 36 41 45 54 57 58 60 64 66 77 77 75 67 62 62 64 67 67 67 65 70 69 73 73
72 71 71 68 63 60 57 54 49 41 31 27 22 17 17 20 22 24 25 25 29 36 39 41 49 54 57 58 62 68 73 80 77 72 68 65 65 63 62 68 69 71 70 67 65
67 66 66 61 58 55 53 49 43 34 26 21 19 19 18 18 21 24 26 26 30 36 36 38 45 49 51 52 56 58 62 77 79 78 70 68 69 59 63 65 65 67 69 69 67
64 62 60 59 57 52 48 42 37 29 23 17 16 16 17 18 20 24 26 27 27 34 36 38 43 47 50 53 53 56 60 68 79 79 75 70 68 68 63 64 64 65 64 63 60

GFSSW_250_spd_114.txt.gz
Wind_Speed
48 54 57 59 58 60 62 62 62 61 59 60 61 63 62 60 62 62 61 64 63 65 65 66 65 67 64 59 60 59 54 45 49 56 56 64 66 50 51 51 51 53 51 51 45
52 50 50 54 52 57 62 64 67 68 67 65 65 67 67 65 66 66 65 70 72 71 75 73 73 74 69 66 66 66 60 51 59 61 60 62 63 62 52 57 54 53 51 54 51
57 55 59 61 60 61 64 67 71 73 73 73 73 73 72 70 72 70 76 77 79 79 78 79 78 78 74 71 70 70 55 65 62 65 68 66 65 65 57 56 57 56 55 57 54
62 66 63 65 66 69 68 69 74 76 77 76 76 77 79 77 81 81 81 84 83 84 86 87 89 84 82 80 82 80 67 69 68 69 71 71 68 67 64 63 58 62 55 58 58
69 70 71 71 71 75 73 73 75 78 81 82 82 82 81 82 88 91 86 88 90 92 93 93 95 96 91 90 90 84 79 77 75 74 71 74 72 69 63 60 60 63 60 58 62
75 76 76 79 80 80 80 83 84 84 85 85 83 86 86 87 93 93 95 95 96 99 97 101 102 106 101 100 97 91 90 84 84 76 75 77 75 76 66 64 61 63 65 64 60
80 82 81 83 86 86 86 89 89 89 92 94 92 92 93 94 98 97 98 100 105 102 103 106 106 111 108 110 106 101 99 93 86 78 80 85 80 71 73 71 66 63 67 66 62
85 85 85 87 89 91 93 94 95 97 97 100 101 100 98 101 102 106 109 109 112 111 112 113 117 113 111 110 112 108 106 96 78 86 88 91 77 77 81 77 69 65 62 66 66
84 85 86 89 92 95 96 98 100 101 103 107 104 107 111 109 110 106 108 110 109 115 112 111 113 113 110 107 107 112 102 95 89 94 89 95 76 84 86 83 76 68 64 68 61
85 90 89 91 92 94 95 97 99 99 101 107 106 113 106 100 102 100 104 104 101 103 107 111 112 113 112 111 107 90 96 96 88 88 89 93 82 88 90 87 81 74 69 71 69
87 78 79 80 82 84 91 90 91 92 97 95 99 99 101 98 97 99 100 98 98 99 102 108 118 118 105 98 92 97 102 99 95 91 95 96 85 90 92 87 80 77 72 71 74
89 90 88 87 89 87 86 87 92 98 99 104 102 101 98 95 88 97 99 101 99 99 99 102 111 102 95 93 105 102 107 106 101 96 105 99 95 89 92 82 81 81 77 75 74
92 94 98 95 92 91 96 94 100 100 103 98 98 99 98 89 92 90 96 96 93 91 92 91 89 90 94 101 100 101 106 102 97 97 105 97 96 93 91 88 81 81 79 80 76
94 94 102 102 94 98 100 101 99 99 99 96 96 91 93 92 89 89 79 80 78 78 77 73 77 80 89 93 93 93 96 97 99 101 99 96 95 94 90 91 90 84 84 82 81
92 95 97 96 98 103 105 103 100 100 100 100 96 90 92 90 79 78 70 68 66 61 61 60 62 71 78 77 80 79 92 96 100 97 89 91 89 83 91 92 91 84 89 87 84
95 95 99 100 104 108 109 105 103 105 104 100 94 90 87 81 74 64 63 57 56 51 51 54 50 60 64 68 74 76 86 88 86 86 87 79 85 78 87 86 87 92 86 92 89
95 99 101 106 108 110 110 110 105 106 102 94 90 86 81 75 68 60 55 50 46 42 41 41 47 52 56 61 64 68 70 73 75 77 75 80 83 73 82 85 85 86 82 75 84
99 104 108 108 112 115 111 110 103 103 95 91 83 82 74 67 63 55 45 42 39 30 28 34 41 46 54 57 57 53 60 61 66 66 67 73 66 64 75 81 82 89 93 87 85
101 104 105 111 115 113 109 102 103 97 91 82 80 74 67 62 53 46 37 36 32 27 27 31 35 41 46 51 54 53 53 60 62 61 61 60 56 57 66 77 83 85 87 76 82
107 109 113 116 116 113 104 100 94 91 84 79 75 65 60 53 45 39 30 29 26 21 25 31 35 36 37 42 48 48 57 61 58 57 56 56 54 54 55 66 69 73 83 84 84
112 110 109 109 107 104 101 91 87 84 76 74 66 57 50 46 42 32 22 23 21 19 23 28 30 35 35 40 48 49 52 57 58 59 55 56 57 48 49 53 57 71 73 78 73
110 107 103 101 98 92 87 83 80 79 71 65 57 49 44 42 38 31 16 20 17 18 21 26 30 32 41 45 46 50 55 61 61 57 55 56 50 47 47 50 56 62 64 69 70
102 99 98 93 88 84 80 79 76 72 64 55 50 43 41 38 34 26 17 17 16 16 21 25 31 31 38 44 46 47 55 60 60 61 56 52 49 46 47 54 59 59 65 64 69
89 89 88 84 80 75 74 72 70 63 57 49 46 40 36 31 29 23 18 14 16 18 22 26 35 40 45 46 51 52 53 59 61 58 61 58 53 53 54 51 52 61 65 64 68
82 79 76 74 73 68 66 65 64 56 50 48 43 38 29 25 22 22 17 14 17 19 24 30 35 40 50 57 51 50 51 56 60 61 63 63 58 51 51 52 63 56 52 50 56
72 68 68 67 66 63 60 59 58 52 46 45 40 31 26 21 20 17 16 12 16 22 28 31 34 36 43 46 47 47 51 54 60 64 68 70 64 57 57 62 66 55 50 50 56
67 66 65 61 62 59 56 55 53 49 44 40 35 30 25 20 18 15 14 12 13 22 25 30 33 34 39 42 45 46 51 49 53 65 67 72 66 64 62 67 65 56 53 54 56

GFSSW_250_spd_117.txt.gz
Wind_Speed
43 42 44 43 46 48 49 49 53 58 54 58 60 60 62 61 61 60 61 62 61 62 62 64 64 66 63 63 64 65 58 48 48 49 48 54 59 54 50 49 46 50 42 44 38
47 51 51 50 50 48 52 55 55 52 55 55 58 61 63 66 68 68 65 67 68 68 69 67 69 69 70 70 71 72 66 59 61 59 55 58 59 63 53 45 47 53 49 39 49
54 51 57 58 60 59 56 56 58 62 63 65 63 62 66 69 73 73 73 73 73 73 74 76 78 76 75 79 82 83 70 75 68 68 65 62 59 64 62 48 46 54 49 47 47
59 61 61 63 66 66 66 66 65 66 69 69 71 71 67 70 76 75 74 77 77 77 79 79 81 83 83 82 87 86 78 82 74 74 71 65 65 65 65 56 51 55 57 47 49
65 64 64 64 65 72 73 73 73 75 75 74 73 75 76 75 80 79 77 79 80 83 83 85 87 91 88 91 96 89 88 89 85 83 75 77 72 74 67 66 64 57 61 53 51
64 65 66 66 70 74 77 79 78 79 80 80 80 80 80 85 86 87 87 84 89 90 87 91 95 100 94 93 96 93 93 93 95 85 83 86 78 81 67 75 70 65 63 61 57
70 70 67 71 72 75 82 82 83 86 86 85 84 83 86 88 88 90 92 93 94 96 97 101 105 107 108 108 109 105 106 99 92 83 90 96 94 78 77 82 77 72 67 66 63
77 74 75 77 71 73 82 84 85 87 88 88 88 88 92 93 95 97 99 101 103 105 105 107 111 111 113 113 112 118 120 108 90 93 98 103 95 80 87 86 82 80 77 71 67
83 80 81 75 71 70 76 82 82 87 89 89 90 92 95 96 99 102 106 107 110 112 112 117 121 125 127 125 123 123 119 110 102 105 106 109 98 91 92 90 88 85 84 76 71
80 77 76 67 67 70 75 77 81 77 85 85 84 90 92 92 96 107 111 111 113 115 110 115 128 129 125 125 124 117 119 117 112 101 108 109 100 96 93 92 88 87 82 79 73
80 70 71 73 73 75 80 83 83 87 89 88 84 80 85 83 84 94 96 92 99 102 104 108 113 110 113 116 117 117 118 116 110 105 111 111 104 93 92 93 90 87 85 82 75
85 84 83 77 80 82 86 91 93 92 92 90 87 87 86 83 84 96 95 95 101 100 104 98 98 106 107 108 111 108 107 106 102 105 112 110 108 97 98 93 90 87 86 82 79
79 83 85 86 89 94 97 96 92 94 99 95 94 92 92 92 93 90 95 95 97 94 93 94 99 99 101 100 102 99 99 95 92 97 108 107 102 95 91 92 86 85 82 80 79
85 89 88 86 88 93 95 97 94 102 106 101 96 99 95 92 97 92 91 82 83 88 85 83 84 83 83 81 81 79 82 88 94 95 102 102 98 93 91 92 85 82 79 78 80
81 82 87 87 91 95 94 95 96 101 105 102 102 97 95 94 87 95 88 74 75 74 72 68 66 65 64 66 67 64 72 79 86 96 94 95 97 90 88 87 83 78 78 78 79
87 83 89 87 88 95 93 96 101 106 107 108 103 99 101 100 92 87 82 73 64 62 59 54 53 49 48 48 51 59 68 76 78 84 84 89 87 83 82 79 81 82 82 85 86
86 89 89 91 91 96 98 103 105 107 107 111 109 109 102 100 90 82 77 66 60 55 49 48 45 43 39 37 44 52 60 63 71 69 72 75 74 71 79 81 81 81 82 85 88
92 96 93 94 94 99 103 103 103 110 113 112 109 107 100 92 83 74 65 60 53 46 42 37 36 38 32 34 39 44 41 48 47 52 59 68 62 67 78 80 79 80 84 82 83
92 91 95 94 94 97 97 103 107 112 117 114 114 101 92 83 73 63 58 56 43 38 36 32 27 25 27 27 23 31 33 35 37 44 53 57 59 66 70 75 74 71 72 77 79
91 90 94 92 91 96 101 105 110 114 115 109 102 88 81 74 63 56 48 46 37 33 32 25 23 21 24 23 23 33 44 44 46 46 48 50 53 57 65 62 68 69 73 78 77
94 95 97 95 94 99 101 105 114 114 111 103 90 79 70 65 56 47 38 38 35 26 26 20 18 19 21 26 27 30 28 34 41 44 40 42 44 53 52 50 51 53 60 66 68
94 97 94 98 96 100 105 111 115 112 104 88 78 69 64 55 47 39 32 32 31 25 21 17 18 20 18 24 29 31 34 39 36 35 39 36 44 45 44 44 45 44 47 54 55
99 97 101 99 100 105 109 109 101 100 86 77 69 62 53 45 40 34 29 28 27 24 20 18 19 21 23 26 29 32 33 36 37 39 42 48 47 43 41 39 39 38 41 49 52
91 97 100 103 104 103 102 100 89 77 74 68 60 52 43 41 36 31 23 22 22 21 19 19 19 22 26 30 32 35 36 35 39 42 46 47 45 43 42 42 39 44 49 47 46
80 79 83 87 88 90 77 71 68 68 66 62 52 43 38 37 32 27 18 17 18 19 20 20 19 21 27 29 33 36 37 37 39 44 49 50 49 45 44 45 44 51 51 54 54
75 78 79 78 75 72 67 66 63 61 58 54 47 37 38 34 29 24 16 14 16 17 21 21 22 25 30 32 33 37 39 40 45 51 54 54 56 51 43 40 49 55 61 52 52
79 80 85 83 77 67 61 60 60 55 53 47 43 40 40 33 24 21 16 11 13 17 19 22 23 27 28 31 33 39 42 43 47 53 55 57 61 58 57 60 63 60 57 48 43

GFSSW_250_spd_120.txt.gz
Wind_Speed
50 44 43 40 41 40 40 40 42 44 45 46 47 46 49 52 49 53 58 60 61 61 61 61 64 65 62 62 61 61 57 48 50 52 53 64 60 64 59 55 49 42 33 35 37
50 53 50 47 49 48 48 47 48 49 48 48 51 55 57 57 54 56 57 58 62 64 67 69 70 68 70 70 69 67 58 57 58 64 62 64 65 73 64 61 57 51 41 37 33
52 51 56 56 52 51 51 54 56 58 56 55 59 58 58 63 66 62 65 63 64 65 69 72 75 75 74 76 76 73 60 67 67 67 67 65 68 79 72 63 63 60 49 42 40
53 54 55 51 52 55 57 57 58 58 61 64 67 68 69 68 67 69 71 72 72 73 75 74 76 77 77 80 83 79 76 75 72 72 72 72 74 74 78 66 69 68 60 47 49
54 56 57 61 62 63 63 60 61 60 59 61 65 72 77 77 77 76 77 77 77 77 79 82 82 83 81 81 84 80 82 82 80 75 75 79 76 78 77 76 77 73 67 60 50
61 59 62 63 62 66 63 60 65 63 66 67 69 72 75 79 80 81 80 81 83 84 87 89 91 92 90 91 92 93 92 87 89 79 80 84 81 89 70 84 83 79 73 68 60
65 65 65 65 66 66 69 65 68 68 66 70 64 69 73 78 77 80 83 82 83 87 91 94 95 96 98 99 100 102 102 100 92 89 90 98 96 87 69 83 86 87 81 75 68
72 69 68 69 69 69 70 69 75 72 71 67 62 67 69 74 79 78 79 81 84 87 92 97 102 103 105 106 109 112 115 109 97 101 97 104 104 87 88 91 89 86 85 84 79
77 75 76 76 76 74 77 76 77 75 72 71 61 72 68 74 82 82 80 83 87 91 91 93 99 101 104 114 118 117 122 120 110 109 110 114 109 92 99 100 96 95 91 87 85
83 83 81 80 80 75 77 78 79 78 77 72 65 75 76 79 76 72 75 81 81 85 86 90 89 96 101 111 121 120 127 122 115 111 117 117 111 104 109 112 105 101 97 94 90
87 86 80 79 76 75 77 79 83 83 80 76 74 78 81 85 89 88 85 77 78 77 84 91 94 103 104 113 123 119 116 114 108 106 112 110 111 103 111 111 107 103 100 96 91
85 85 80 78 74 79 81 82 85 84 73 78 78 84 87 88 94 95 90 89 88 84 89 94 97 107 108 109 116 115 112 107 102 104 108 105 109 99 109 106 101 100 93 90 92
86 85 85 80 75 76 83 86 85 82 85 86 84 93 93 92 97 94 96 96 99 98 97 93 99 102 102 101 107 105 104 97 95 98 102 106 104 91 94 96 96 97 93 84 81
86 83 86 82 78 79 79 81 86 89 91 90 90 91 98 99 104 102 98 100 99 94 91 90 90 89 89 89 95 91 100 87 85 87 93 98 94 87 85 86 90 93 93 84 78
85 84 82 86 85 83 85 87 89 87 86 86 96 97 98 104 103 106 105 102 97 87 82 83 82 78 74 73 76 73 73 72 74 73 84 88 88 83 82 84 82 86 86 76 82
87 83 80 88 86 82 85 84 88 91 95 94 97 102 104 108 106 104 102 96 84 79 76 78 71 64 62 59 58 58 59 62 63 64 66 67 71 76 78 79 78 78 78 79 88
85 89 84 86 85 85 86 85 85 88 92 93 96 104 110 115 112 106 99 94 80 75 72 67 60 57 51 47 47 41 42 45 49 50 51 57 60 66 74 75 79 78 80 84 90
83 86 87 87 87 84 82 86 91 94 96 104 106 108 111 114 110 106 102 89 74 67 61 60 56 47 43 41 37 34 33 38 40 42 42 47 52 58 66 74 75 77 80 86 91
76 82 82 83 78 81 84 86 88 93 100 100 105 112 112 113 111 106 90 77 71 60 58 53 46 40 36 36 33 31 31 32 31 29 29 36 48 57 62 64 69 71 74 79 82
79 76 83 87 83 86 84 83 85 86 95 99 100 107 112 116 113 91 78 70 64 56 51 43 39 34 32 29 27 22 21 28 30 29 28 37 46 50 53 55 58 63 70 74 74
79 78 80 86 85 88 87 84 86 88 94 103 104 110 114 111 97 78 64 61 57 48 41 36 33 30 29 26 21 22 23 25 29 33 32 37 39 40 43 48 53 58 62 67 71
68 76 85 87 82 80 83 85 87 95 98 103 108 109 109 97 79 63 54 54 48 37 33 32 32 30 26 21 19 20 25 27 34 36 35 34 31 35 37 37 41 44 48 56 61
69 75 78 77 87 90 91 92 93 96 100 101 100 98 86 72 62 53 47 42 36 31 30 29 29 26 25 18 16 22 28 33 34 35 34 30 24 24 33 30 30 21 37 43 48
59 61 62 67 74 83 90 92 93 89 83 77 82 75 65 54 52 46 38 35 31 27 26 25 29 25 19 15 19 22 29 31 31 33 35 34 32 23 23 17 20 46 49 39 40
58 59 63 65 66 71 76 74 71 73 73 78 74 62 53 46 40 34 35 30 29 26 22 21 22 23 20 19 21 27 29 27 26 34 38 41 38 35 39 45 46 39 35 38 42
50 52 54 56 57 59 62 62 73 69 71 67 64 54 47 40 34 30 30 27 24 23 20 20 19 23 20 20 24 29 32 32 33 33 41 50 45 45 43 46 49 43 44 43 48
56 58 58 57 57 59 66 69 70 68 64 62 55 49 44 36 30 31 32 26 22 23 18 18 18 20 20 23 25 31 35 36 37 41 48 54 56 55 49 49 49 50 54 52 53

GFSSW_250_spd_123.txt.gz
Wind_Speed
57 57 55 52 52 51 46 43 41 39 39 39 40 40 44 42 44 47 49 51 55 57 56 58 62 62 63 64 64 61 56 47 49 50 52 67 66 68 63 53 52 49 46 44 38
59 57 58 55 56 55 53 49 48 48 47 48 47 47 49 49 49 52 51 55 55 57 58 60 62 61 59 63 64 66 61 58 60 59 57 64 70 72 66 60 57 56 56 51 45
60 60 61 61 58 57 56 57 53 54 55 53 56 56 54 54 54 57 59 60 60 62 64 65 66 67 67 68 69 66 62 67 65 66 65 65 69 74 73 62 64 63 62 57 52
56 60 58 57 57 58 58 56 56 58 57 58 58 57 59 59 59 61 61 64 66 72 73 73 72 74 73 74 77 74 71 71 68 70 71 70 72 77 78 65 74 74 69 62 58
60 60 59 55 55 55 57 58 57 58 59 62 63 65 64 60 63 64 65 67 73 77 80 82 81 82 81 82 83 80 77 78 75 75 74 74 75 80 76 72 80 81 75 67 60
61 61 61 61 60 58 58 61 60 61 64 64 64 64 64 64 65 64 69 71 71 76 81 80 82 83 83 86 87 85 83 81 81 82 85 84 82 85 66 83 83 85 81 75 69
63 66 65 65 64 62 61 61 61 65 62 63 66 67 65 66 69 69 68 73 71 68 68 73 76 78 82 83 87 89 89 90 83 89 92 93 88 82 75 88 90 89 91 83 75
63 65 67 68 65 63 67 68 65 62 65 65 66 66 69 68 71 68 69 66 69 67 69 77 83 84 86 88 88 96 98 96 85 98 99 103 95 88 93 94 93 95 96 95 85
70 70 69 71 71 71 72 74 71 71 70 71 72 75 71 73 73 73 73 70 66 70 80 78 72 76 84 86 85 92 96 104 94 94 99 107 106 92 103 105 101 101 103 102 96
77 77 77 77 77 75 77 81 79 79 77 77 75 75 76 78 79 79 78 75 70 77 75 82 82 83 85 93 88 89 97 100 105 88 108 109 110 107 106 109 107 104 104 104 102
84 85 85 82 81 82 83 84 86 86 82 79 78 80 82 79 82 83 83 77 77 82 85 82 88 93 93 92 93 92 96 104 102 113 110 110 99 96 102 100 102 108 106 103 101
91 87 90 88 89 89 88 86 89 90 87 84 81 81 78 79 84 85 78 78 88 89 87 93 94 94 90 94 96 95 98 110 122 119 117 113 97 92 91 91 89 99 107 105 102
96 92 94 92 92 95 95 90 85 85 84 80 82 82 81 81 82 82 83 89 91 90 98 100 103 98 95 98 106 99 108 108 112 106 103 104 100 94 92 97 96 89 98 101 103
100 101 97 99 96 97 97 91 86 86 86 85 85 84 85 84 85 88 89 90 92 100 100 107 108 100 100 98 102 89 106 99 98 98 91 102 66 73 72 84 87 82 89 90 100
106 102 104 102 97 99 95 89 85 84 87 90 88 89 90 91 89 92 91 98 99 103 105 112 104 101 105 94 91 79 88 87 85 84 77 79 57 61 64 71 79 80 85 91 93
104 107 111 102 98 96 92 83 87 85 85 89 88 89 89 89 92 91 95 98 106 106 106 106 105 97 86 81 76 70 74 72 67 69 66 68 46 50 51 61 70 74 86 91 94
98 100 104 93 97 94 87 85 83 84 86 87 90 91 90 91 91 94 100 101 108 106 109 108 100 79 72 68 62 63 63 57 54 53 52 51 38 50 47 55 67 75 83 83 86
93 96 96 92 92 88 82 81 82 85 88 90 92 94 95 92 93 95 101 106 108 106 101 87 82 67 64 56 50 54 51 45 42 38 37 34 36 41 45 51 58 67 74 76 74
88 90 91 91 88 84 78 79 78 82 83 82 83 86 90 91 94 98 102 110 104 103 88 71 67 62 56 50 47 47 40 35 32 28 27 27 30 35 38 48 52 56 62 65 66
86 89 87 83 85 89 76 73 75 77 81 84 87 89 90 94 99 103 109 108 104 88 73 61 59 56 50 45 39 38 35 30 24 20 24 23 25 28 30 36 37 51 49 56 61
87 88 88 86 85 80 78 78 78 76 79 82 86 86 91 96 102 107 103 100 95 77 64 54 53 48 43 36 30 32 29 22 18 18 22 20 19 22 26 32 39 44 46 52 59
82 86 86 79 86 79 71 64 70 72 76 76 80 86 88 93 101 107 104 94 78 66 55 48 45 41 34 27 24 25 24 21 18 20 23 20 15 16 21 27 32 36 43 50 56
81 78 78 75 79 68 64 63 66 71 71 75 77 82 89 95 99 103 89 73 64 54 48 39 35 33 27 22 21 22 20 20 20 23 23 25 20 12 10 19 24 26 31 37 43
67 63 68 66 70 66 63 62 65 65 63 68 72 77 80 83 87 78 65 58 53 46 38 35 30 27 22 20 20 16 21 20 25 26 30 35 26 15 16 17 17 14 22 29 33
56 58 53 56 54 56 57 57 53 52 57 62 65 65 68 68 62 58 53 48 46 40 31 31 28 24 21 20 20 21 20 22 27 33 37 43 39 34 33 34 37 36 33 26 24
62 58 59 62 59 62 54 52 50 54 54 52 57 59 59 57 52 46 43 41 37 31 27 27 24 24 18 22 24 25 23 26 27 33 41 49 51 51 49 47 48 47 46 46 55
53 51 51 51 48 44 45 46 46 47 49 55 58 57 55 52 47 43 37 35 35 30 20 26 23 19 20 22 26 28 26 34 35 38 46 47 48 52 49 42 45 51 51 52 55

GFSSW_250_spd_126.txt.gz
Wind_Speed
67 64 64 64 63 62 57 57 55 52 51 48 44 45 42 38 39 39 41 42 44 46 47 48 49 51 54 58 58 59 54 50 54 58 57 62 66 64 62 55 56 51 45 44 44
68 68 69 66 64 60 60 58 59 55 54 56 51 51 49 48 46 45 44 46 48 49 51 51 52 56 56 57 57 56 52 55 57 60 62 62 67 70 66 61 60 61 60 54 50
67 68 69 66 66 68 62 60 62 60 60 59 57 57 56 55 53 55 54 52 51 54 54 57 60 61 62 64 67 64 62 65 64 65 62 61 67 72 70 61 67 73 68 60 57
70 68 69 65 66 64 60 61 64 64 64 61 62 65 63 61 61 59 55 54 59 60 62 62 62 63 63 67 73 70 70 71 70 70 69 69 68 70 69 55 73 75 75 66 62
66 64 64 65 63 58 56 61 63 60 62 62 65 66 64 64 64 63 62 64 63 64 64 64 64 67 72 72 75 75 79 80 79 78 79 78 75 76 66 74 75 75 76 72 69
62 61 65 63 63 64 63 63 65 60 59 63 64 65 64 63 63 65 66 65 65 66 69 71 68 71 73 77 79 79 79 79 79 80 82 85 81 81 71 80 81 80 81 78 72
66 64 65 64 63 65 64 63 66 67 66 66 66 67 68 67 68 68 70 69 69 69 69 71 75 74 77 74 75 74 69 67 74 77 79 82 75 76 78 85 84 86 85 83 79
69 68 65 64 66 67 67 65 68 67 70 69 68 66 67 67 67 69 70 68 71 71 76 75 76 76 74 71 71 74 77 75 77 77 82 93 81 82 87 88 87 90 88 90 87
74 73 70 69 67 68 67 67 68 71 72 73 73 71 68 71 71 73 73 74 75 78 78 80 80 80 80 74 74 74 72 77 79 82 82 90 93 81 93 93 91 93 95 96 93
76 73 70 67 72 73 73 71 73 75 74 75 75 73 74 78 80 81 81 85 88 89 88 86 88 89 87 82 75 76 81 76 80 81 87 92 95 88 95 101 95 99 99 98 100
84 79 78 75 75 74 76 76 78 79 83 81 83 80 76 80 83 85 85 88 90 90 88 89 91 91 88 86 83 86 84 89 91 95 96 103 105 105 96 107 104 104 105 103 103
88 84 85 82 80 83 83 83 84 86 86 87 88 85 83 84 87 87 86 90 90 90 90 90 93 93 90 89 92 89 97 92 97 99 103 101 109 109 109 107 108 105 106 109 107
93 91 91 87 89 86 85 85 87 90 89 91 91 92 90 91 91 89 92 93 90 90 91 92 93 94 94 98 94 93 100 99 98 94 100 115 109 106 110 110 107 105 102 101 109
100 93 94 95 95 91 90 90 90 92 95 94 93 91 93 95 95 92 88 88 89 89 92 94 96 96 99 100 99 90 97 100 94 104 107 103 99 83 88 85 85 92 88 90 101
112 101 98 101 102 99 97 96 97 95 98 99 95 95 96 98 95 92 89 90 90 90 92 98 100 101 102 102 97 96 99 97 91 91 92 90 85 70 78 70 67 75 78 77 87
116 112 105 102 106 102 102 100 102 101 99 100 98 95 94 89 87 88 89 92 95 96 97 101 103 104 98 101 99 94 85 85 81 79 80 75 69 62 58 55 53 57 63 70 77
111 110 104 104 108 96 101 102 105 101 100 98 96 90 83 82 86 89 89 91 92 92 96 102 106 100 84 96 93 80 76 73 70 66 64 56 56 47 41 40 40 48 52 60 69
99 96 99 100 99 94 94 100 100 98 99 94 92 87 80 80 82 85 88 89 90 92 95 98 107 99 86 86 76 68 63 61 58 51 46 39 39 34 29 31 33 42 46 50 60
88 92 91 94 89 93 90 94 92 91 88 84 84 79 75 76 82 82 81 85 89 93 98 98 93 82 84 75 63 58 53 50 45 39 33 28 26 23 22 26 31 38 41 42 48
84 84 83 85 86 86 85 85 83 81 83 81 77 77 74 74 73 74 78 82 88 94 94 91 85 77 65 59 53 52 47 43 35 29 26 24 21 20 20 22 24 28 32 39 45
77 82 80 75 76 76 78 76 78 76 75 73 67 64 66 64 70 77 80 84 90 94 89 86 77 72 60 50 44 44 38 33 25 23 21 18 17 17 18 19 19 27 32 36 41
70 68 66 67 65 73 77 78 77 78 74 68 67 63 62 58 62 68 75 81 86 90 91 73 73 63 51 45 39 34 25 24 21 19 17 15 17 14 15 17 22 26 31 37 43
49 50 56 64 69 70 68 65 66 63 62 61 65 60 58 60 65 69 73 79 83 81 79 69 57 51 45 36 30 24 18 19 18 20 18 20 20 24 18 14 16 20 25 29 35
50 54 57 57 60 63 63 53 53 58 62 60 56 54 56 61 60 63 68 74 73 70 67 53 44 43 39 26 24 17 17 18 22 23 23 25 27 28 23 22 19 22 23 26 34
47 53 57 55 49 48 51 54 55 55 52 50 46 50 50 52 57 58 61 61 57 55 53 44 41 40 32 20 22 17 19 21 24 27 28 34 33 29 27 26 24 28 26 23 27
49 45 46 49 51 49 46 43 44 44 43 46 45 48 49 52 50 55 53 51 48 46 45 37 37 35 29 19 24 20 26 28 28 32 36 34 43 41 39 36 33 22 21 13 15
48 48 49 47 44 42 46 46 47 45 46 44 45 49 50 48 51 50 50 45 43 42 39 34 31 28 27 18 24 22 28 35 35 38 39 37 47 49 52 50 46 34 35 32 30